[[[{"header":{"parameterUnit":"kt","parameterCategory":2,"dx":1,"dy":1,"la1":29.587661999999998,"la2":31.0,"lo1":-88.76705300000003,"lo2":-86.6583820000003,"nx":115,"ny":88,"refTime":"2022-10-16T06:00:00:Z","depth":0,"parameterNumber":1,"parameterNumberName":"U-component_of_WINDS"},"data":[16.915,16.915,16.915,16.915,16.915,16.915,16.915,16.915,16.915,16.915,16.915,16.915,16.915,16.915,16.915,16.915,16.915,16.915,16.915,16.915,16.9436,16.9293,16.965,17.072,17.1719,17.2432,17.2932,17.3208,17.3582,17.4866,17.5794,17.6293,17.7595,17.8032,17.8175,17.8469,17.8469,17.8469,17.8469,17.8469,17.8469,17.8469,17.8469,17.8469,17.8469,17.8469,17.8469,17.8469,17.8469,17.8469,17.8398,17.8184,17.7684,17.689,17.6194,17.5552,17.4205,17.3531,17.2994,17.2574,17.2095,17.2128,17.2111,17.2217,17.2305,17.2331,17.2486,17.2338,17.2306,17.1574,17.1628,17.2436,17.2676,17.2676,17.2764,17.3164,17.3752,17.4043,17.4602,17.525,17.5646,17.5921,17.6122,17.669,17.7368,17.7837,17.8588,17.9072,18.0019,18.0581,18.0874,18.1059,18.1205,18.0367,17.9587,17.9877,17.9836,18.0136,18.0788,18.1843,18.2943,18.4139,18.4377,18.3846,18.4295,18.4965,18.5504,18.549,18.6106,18.6648,18.6443,18.6389,18.7189,18.7964,18.8702,16.915,16.915,16.915,16.915,16.915,16.915,16.915,16.915,16.915,16.915,16.915,16.915,16.915,16.915,16.915,16.915,16.915,16.915,16.915,16.915,16.915,16.915,16.9222,16.9364,16.9864,17.0514,17.1308,17.1664,17.1807,17.3297,17.4652,17.5928,17.6579,17.7087,17.8032,17.8398,17.8469,17.8398,17.8469,17.8469,17.8398,17.8469,17.8469,17.8469,17.8469,17.8469,17.8469,17.8469,17.8469,17.8469,17.8398,17.7773,17.6926,17.5909,17.5122,17.3931,17.2582,17.1923,17.1545,17.0851,17.0364,16.9965,16.9637,16.97,16.978,16.9948,17.0216,17.0304,17.0518,17.0393,17.0385,17.0624,17.0624,17.0696,17.0864,17.1103,17.1976,17.2747,17.3881,17.5121,17.55,17.5843,17.6191,17.6526,17.6928,17.7283,17.7729,17.8093,17.8697,17.9652,17.9641,17.9492,17.9442,17.9823,17.9895,17.9663,17.9311,17.9613,17.9765,18.0532,18.1388,18.2369,18.2884,18.2666,18.2898,18.3316,18.3822,18.4422,18.546,18.6215,18.5927,18.5619,18.6147,18.6376,18.7128,16.915,16.915,16.915,16.915,16.915,16.915,16.915,16.915,16.915,16.915,16.915,16.915,16.915,16.915,16.915,16.915,16.915,16.915,16.915,16.915,16.915,16.915,16.915,16.9222,16.915,16.915,16.9944,17.03,17.0443,17.1727,17.2655,17.3368,17.4572,17.5509,17.6882,17.7167,17.7453,17.8318,17.8469,17.7889,17.7096,17.7961,17.8469,17.8469,17.8469,17.8469,17.8469,17.8469,17.8469,17.8478,17.8299,17.7469,17.6228,17.4694,17.3414,17.2301,17.1301,17.0125,16.9965,16.9717,16.9398,16.9478,16.9318,16.9553,16.9394,16.9681,17.0001,17.0017,17.024,17.0344,17.0328,17.032,17.032,17.0328,17.0487,17.0567,17.1173,17.1868,17.2818,17.3833,17.4105,17.4464,17.4838,17.5187,17.5682,17.6006,17.6661,17.7126,17.825,17.9255,17.8161,17.7537,17.7145,17.7311,17.8284,17.8457,17.8531,17.8778,17.8895,17.9386,17.9893,18.0767,18.1598,18.1907,18.2188,18.2176,18.2281,18.285,18.3837,18.474,18.4731,18.4718,18.4695,18.4845,18.4765,16.915,16.915,16.915,16.915,16.915,16.915,16.915,16.915,16.915,16.915,16.915,16.915,16.915,16.915,16.915,16.915,16.915,16.915,16.915,16.915,16.915,16.915,16.915,16.915,16.915,16.915,16.915,16.9364,16.9587,17.0238,17.1022,17.1664,17.2521,17.401,17.5437,17.558,17.5945,17.6614,17.6931,17.6701,17.6112,17.7044,17.7652,17.7607,17.8134,17.8034,17.8097,17.8142,17.8116,17.8018,17.7867,17.7027,17.5855,17.3256,17.1797,17.1005,17.0244,16.9775,16.9595,16.9558,16.9478,16.9549,16.9574,16.9738,16.9907,17.0284,17.045,17.0458,17.0522,17.0579,17.0644,17.0644,17.0708,17.0716,17.0724,17.0724,17.0667,17.1202,17.1627,17.2053,17.2376,17.2703,17.3014,17.3486,17.4104,17.4804,17.5646,17.6328,17.7465,17.7927,17.6804,17.6787,17.5981,17.5886,17.6327,17.6811,17.7292,17.7539,17.7948,17.8198,17.8452,17.8974,17.9466,18.0413,18.1159,18.0984,18.1019,18.1415,18.1934,18.2655,18.2968,18.3298,18.335,18.2844,18.236,16.915,16.915,16.915,16.915,16.915,16.915,16.915,16.915,16.915,16.915,16.915,16.915,16.915,16.915,16.915,16.915,16.915,16.915,16.915,16.915,16.915,16.915,16.915,16.915,16.915,16.915,16.915,16.915,16.9159,16.9516,17.0309,17.1459,17.1627,17.2526,17.3837,17.406,17.4145,17.4651,17.4877,17.5255,17.5099,17.5173,17.5231,17.5604,17.6456,17.7254,17.7334,17.7359,17.7401,17.689,17.6308,17.5438,17.4616,17.3212,17.1683,17.0719,17.0152,16.9855,16.9817,16.979,16.9921,16.9926,16.9999,16.9897,16.9762,16.9958,17.0087,17.0155,17.0555,17.0722,17.0897,17.0976,17.1288,17.144,17.1448,17.152,17.1527,17.1876,17.2247,17.2394,17.2758,17.3098,17.3351,17.372,17.4528,17.4635,17.5083,17.5345,17.5996,17.6446,17.6327,17.6708,17.6395,17.6404,17.6463,17.645,17.6596,17.6712,17.6962,17.7287,17.7726,17.7704,17.7458,17.8169,17.9031,17.9197,17.9584,17.9787,18.0214,18.0751,18.1138,18.1709,18.1467,18.0804,18.0386,16.915,16.915,16.915,16.915,16.915,16.915,16.915,16.915,16.915,16.915,16.915,16.915,16.915,16.915,16.915,16.915,16.915,16.915,16.915,16.915,16.915,16.915,16.915,16.915,16.915,16.915,16.915,16.915,16.915,16.9222,16.923,17.0129,17.03,17.1334,17.2364,17.2919,17.2573,17.2531,17.2718,17.323,17.3837,17.4411,17.4731,17.5137,17.5433,17.5791,17.5863,17.5855,17.5872,17.5673,17.5529,17.4577,17.3352,17.3018,17.1885,17.056,17.0128,17.0077,16.9993,17.0017,17.0009,17.0144,17.0271,16.9686,16.9439,16.9246,16.9383,16.9736,17.0257,17.0713,17.1031,17.1402,17.1779,17.2113,17.2199,17.2272,17.2526,17.2692,17.2869,17.2987,17.3352,17.3781,17.412,17.4457,17.4768,17.4951,17.5158,17.5435,17.5713,17.6097,17.6506,17.677,17.6753,17.6786,17.6756,17.6782,17.6865,17.6979,17.6977,17.6977,17.7127,17.7272,17.7338,17.7347,17.7285,17.7593,17.8283,17.8366,17.8599,17.8507,17.8806,17.9276,17.9264,17.893,17.8847,16.915,16.915,16.915,16.915,16.915,16.915,16.915,16.915,16.915,16.915,16.915,16.915,16.915,16.915,16.915,16.915,16.915,16.915,16.915,16.915,16.915,16.915,16.915,16.915,16.915,16.915,16.915,16.915,16.9159,16.915,16.9167,16.9288,16.985,17.041,17.1339,17.2045,17.1667,17.151,17.2061,17.2404,17.2877,17.3326,17.3598,17.4127,17.4511,17.4943,17.5015,17.4984,17.4968,17.4648,17.442,17.378,17.2409,17.2401,17.2188,17.0764,17.0144,16.9982,16.9903,16.9539,16.9152,16.9155,16.9548,16.8788,16.8208,16.7935,16.806,16.8624,16.9237,16.9659,16.996,17.0198,17.0546,17.066,17.0677,17.1214,17.2222,17.2534,17.3045,17.3324,17.4027,17.4408,17.4672,17.5035,17.5182,17.5432,17.5648,17.5908,17.616,17.6459,17.6764,17.6922,17.7019,17.7036,17.6979,17.6935,17.7114,17.721,17.721,17.721,17.721,17.721,17.7285,17.7285,17.7285,17.7285,17.7285,17.7439,17.7826,17.7518,17.7443,17.7364,17.7285,17.7584,17.7655,16.915,16.915,16.915,16.915,16.915,16.915,16.915,16.915,16.915,16.915,16.915,16.915,16.915,16.915,16.915,16.915,16.915,16.915,16.915,16.915,16.915,16.915,16.915,16.915,16.915,16.915,16.9159,16.9184,16.9113,16.9251,16.9443,16.9635,16.9984,17.0392,17.0819,17.1476,17.1792,17.1678,17.1998,17.2048,17.2178,17.2391,17.2614,17.2961,17.3563,17.4078,17.4158,17.4252,17.4319,17.3966,17.3205,17.2487,17.2116,17.2066,17.2027,17.1536,17.0354,16.9825,16.9308,16.8344,16.7909,16.7492,16.7807,16.8046,16.7735,16.7386,16.7296,16.7622,16.8224,16.858,16.9036,16.935,16.9575,16.9655,16.9638,17.041,17.1517,17.2127,17.2745,17.3141,17.3833,17.4462,17.4599,17.5427,17.5734,17.562,17.5259,17.5445,17.5182,17.5634,17.6266,17.6516,17.6824,17.6982,17.7206,17.7193,17.721,17.721,17.7285,17.7285,17.7285,17.7285,17.7285,17.7285,17.7285,17.7285,17.7285,17.7285,17.7215,17.7285,17.7364,17.7285,17.7285,17.7285,17.7285,16.915,16.915,16.915,16.915,16.915,16.915,16.915,16.915,16.915,16.915,16.915,16.915,16.915,16.915,16.915,16.915,16.915,16.915,16.915,16.915,16.915,16.915,16.915,16.915,16.9167,16.915,16.9176,16.9335,16.9446,16.9454,16.966,16.9984,17.032,17.055,17.0991,17.1295,17.176,17.1715,17.1728,17.1838,17.1896,17.2006,17.1992,17.2217,17.2652,17.3008,17.2965,17.2856,17.2842,17.2733,17.2427,17.21,17.2036,17.1906,17.1456,17.0764,16.9808,16.9222,16.8481,16.7539,16.6757,16.5846,16.552,16.5593,16.5609,16.6136,16.6164,16.6506,16.7097,16.7509,16.7957,16.9314,16.9577,16.9886,16.9924,17.0009,17.0817,17.0891,17.1353,17.1317,17.1885,17.297,17.3725,17.4696,17.5438,17.511,17.478,17.4106,17.3592,17.4496,17.5277,17.5668,17.6055,17.6362,17.667,17.667,17.6745,17.7136,17.7285,17.7285,17.7136,17.667,17.7057,17.7285,17.7285,17.7285,17.7285,17.7219,17.7078,17.7078,17.7219,17.7289,17.7285,17.7285,17.7285,16.915,16.915,16.915,16.915,16.915,16.915,16.915,16.915,16.915,16.915,16.915,16.915,16.915,16.915,16.915,16.915,16.915,16.915,16.915,16.915,16.915,16.9159,16.915,16.9167,16.9155,16.9301,16.9376,16.9495,16.9679,16.9823,16.9953,17.0272,17.0632,17.0767,17.0643,17.0803,17.0913,17.0975,17.1062,17.0989,17.1082,17.1547,17.1786,17.1866,17.2476,17.2861,17.2948,17.2982,17.2982,17.2923,17.2947,17.276,17.2697,17.187,17.1408,17.0715,16.9449,16.8732,16.7609,16.6723,16.612,16.5371,16.4977,16.5098,16.475,16.4823,16.4853,16.5304,16.6193,16.6514,16.6673,16.7877,16.8458,16.879,16.8996,16.9155,16.9722,16.9855,17.0093,17.0177,17.0879,17.2202,17.2707,17.3399,17.3851,17.3727,17.361,17.3026,17.2537,17.3372,17.3953,17.4489,17.4925,17.5452,17.5589,17.4895,17.4741,17.4908,17.5369,17.5922,17.6142,17.5822,17.5976,17.6129,17.667,17.7285,17.7285,17.7215,17.7082,17.6945,17.7153,17.7294,17.7136,17.7057,17.6977,16.8936,16.9079,16.9008,16.8962,16.876,16.8978,16.9012,16.8944,16.8991,16.9037,16.9163,16.9218,16.9209,16.915,16.915,16.915,16.915,16.9201,16.9226,16.907,16.8986,16.8982,16.8911,16.87,16.8365,16.9316,16.9032,16.8891,16.9594,16.9291,16.9703,17.0007,17.0012,16.9912,16.8085,16.8366,16.8764,16.899,16.9203,16.9331,16.9752,17.068,17.1107,17.154,17.2413,17.3066,17.3133,17.3286,17.3573,17.3452,17.3391,17.3079,17.2952,17.1912,17.104,17.0651,16.945,16.8102,16.6688,16.5838,16.5453,16.525,16.5223,16.5318,16.5503,16.5588,16.5554,16.5405,16.5844,16.5857,16.5787,16.5911,16.6159,16.649,16.6683,16.6995,16.8128,16.8649,16.9192,16.9504,17.0689,17.1628,17.1649,17.1908,17.2222,17.2238,17.2303,17.2115,17.178,17.205,17.223,17.2736,17.3148,17.3609,17.392,17.3176,17.2764,17.2606,17.2935,17.3513,17.382,17.4215,17.4568,17.4741,17.5136,17.5465,17.6226,17.6911,17.5928,17.5001,17.5932,17.6454,17.6832,17.6749,17.6129,16.6464,16.748,16.7463,16.7101,16.651,16.6471,16.7187,16.7976,16.8103,16.8587,16.9479,16.9534,16.941,16.9201,16.9096,16.9041,16.9062,16.9149,16.9374,16.9044,16.8459,16.8191,16.7761,16.7323,16.6956,16.6645,16.6724,16.7113,16.7613,16.7486,16.7788,16.8239,16.8552,16.8781,16.8158,16.8823,16.9144,16.9198,16.9373,16.9486,16.9339,16.9995,17.0216,17.043,17.1772,17.2441,17.2735,17.3403,17.3844,17.3654,17.3157,17.2642,17.1999,17.113,16.9715,16.8732,16.7805,16.6948,16.5905,16.5315,16.5504,16.5491,16.5591,16.5532,16.5677,16.5766,16.5417,16.5614,16.5976,16.636,16.6355,16.6307,16.6266,16.6193,16.6253,16.636,16.7355,16.7818,16.8347,16.8821,16.875,16.9115,16.9433,17.0271,17.0232,16.9729,16.9814,16.9814,16.9889,17.0255,17.053,17.0875,17.1295,17.1777,17.2258,17.1926,17.1515,17.1432,17.1353,17.1685,17.1847,17.2657,17.311,17.3284,17.3462,17.3716,17.3895,17.3846,17.3472,17.3104,17.3455,17.3861,17.4318,17.4867,17.4547,16.5435,16.6158,16.5586,16.5388,16.5414,16.5414,16.5996,16.6786,16.6858,16.737,16.7976,16.8684,16.9136,16.9212,16.9074,16.8574,16.8535,16.8325,16.7943,16.7705,16.7362,16.6906,16.6643,16.6053,16.5505,16.5889,16.5871,16.603,16.6368,16.6964,16.6608,16.5937,16.6292,16.6779,16.712,16.7115,16.7469,16.7686,16.7929,16.807,16.8212,16.8507,16.9024,16.9166,17.059,17.1334,17.1566,17.2526,17.2815,17.2668,17.1935,17.1566,17.1175,16.983,16.8723,16.7916,16.6979,16.6204,16.5465,16.5773,16.6053,16.5983,16.5523,16.5173,16.511,16.455,16.4421,16.4752,16.5044,16.5435,16.5894,16.631,16.6619,16.6739,16.6788,16.6745,16.7088,16.7279,16.7641,16.8052,16.7716,16.7423,16.8042,16.8735,16.8116,16.7577,16.7423,16.7502,16.8042,16.849,16.8789,16.9072,16.9293,16.9691,16.9695,17.0018,17.0346,17.0184,17.0097,16.9853,16.9608,17.0574,17.146,17.1793,17.2008,17.2512,17.24,17.1303,17.1045,17.1331,17.1494,17.1615,17.2063,17.2686,17.2919,16.5102,16.5115,16.3693,16.386,16.5112,16.5187,16.5225,16.5499,16.5494,16.5654,16.6331,16.7024,16.8421,16.8885,16.8032,16.7474,16.7473,16.6076,16.6059,16.5859,16.5379,16.5484,16.5375,16.5299,16.523,16.561,16.5394,16.5865,16.6653,16.6181,16.5478,16.4155,16.4909,16.4831,16.5153,16.5827,16.5958,16.6239,16.6381,16.6259,16.6602,16.7189,16.7924,16.8279,16.9363,17.0383,17.0389,17.0965,17.1208,17.1219,17.0711,17.041,17.0208,16.8865,16.805,16.7371,16.6619,16.612,16.5918,16.6295,16.6601,16.6168,16.5444,16.4468,16.404,16.2707,16.2115,16.2493,16.3636,16.4194,16.4683,16.5392,16.5944,16.6052,16.6221,16.6462,16.6911,16.7017,16.7096,16.7266,16.7348,16.7348,16.7884,16.7963,16.7502,16.7423,16.7348,16.7348,16.7577,16.7656,16.773,16.7734,16.7809,16.7809,16.773,16.7963,16.8735,16.8888,16.8814,16.8428,16.8042,16.8632,16.9695,16.9974,17.0178,17.1179,17.1582,17.0182,16.9234,16.957,16.9798,17.0053,17.0489,17.0622,17.0921,16.2451,16.3193,16.2845,16.2838,16.32,16.32,16.391,16.4851,16.4974,16.5633,16.656,16.6735,16.6636,16.6529,16.6362,16.6136,16.5995,16.5877,16.5947,16.5713,16.5278,16.4824,16.4563,16.3795,16.3452,16.3409,16.3958,16.4175,16.4452,16.4774,16.5178,16.4641,16.466,16.4953,16.5271,16.5421,16.5537,16.5935,16.6124,16.6316,16.6499,16.6899,16.7057,16.7592,16.8504,16.9619,16.9768,17.0488,17.1227,17.0916,17.0143,16.9431,16.9301,16.8093,16.7284,16.7025,16.6834,16.6438,16.6527,16.6368,16.6072,16.5379,16.4458,16.374,16.28,16.2293,16.183,16.1552,16.2387,16.2601,16.283,16.3298,16.429,16.5065,16.5427,16.6344,16.6958,16.6876,16.6954,16.7037,16.7116,16.7191,16.673,16.7037,16.7195,16.727,16.7348,16.7348,16.7423,16.7423,16.7502,16.7502,16.7577,16.7577,16.7502,16.7498,16.7423,16.7656,16.7656,16.7502,16.7656,16.8021,16.8391,16.8242,16.8151,16.8981,16.9796,16.8612,16.7577,16.8116,16.8581,16.866,16.8731,16.8411,16.8545,16.2083,16.2691,16.2811,16.2864,16.2864,16.2864,16.3366,16.4067,16.4033,16.4567,16.5271,16.5572,16.5562,16.5343,16.5218,16.5145,16.5045,16.4564,16.4578,16.4257,16.3957,16.3686,16.3727,16.3127,16.2877,16.3181,16.3093,16.3208,16.3981,16.4572,16.4808,16.5125,16.5201,16.5384,16.5657,16.5879,16.606,16.6285,16.6551,16.6691,16.6777,16.6724,16.6794,16.6864,16.7671,16.8104,16.8323,16.9263,16.9561,16.9486,16.8881,16.8206,16.7917,16.7404,16.6812,16.6821,16.6939,16.6973,16.6918,16.632,16.5686,16.4868,16.3952,16.2814,16.1361,16.0437,15.9927,16.0113,16.0737,16.1106,16.126,16.2008,16.2929,16.3511,16.3861,16.4455,16.4801,16.5572,16.6356,16.6655,16.673,16.5726,16.4954,16.5502,16.597,16.6195,16.6498,16.673,16.6958,16.6884,16.6884,16.6962,16.6884,16.7037,16.6962,16.7116,16.6962,16.7348,16.7348,16.7348,16.7348,16.7348,16.7569,16.7569,16.7494,16.7494,16.7494,16.7348,16.7423,16.7348,16.7348,16.773,16.7963,16.7573,16.7573,16.2875,16.3119,16.3272,16.3447,16.3374,16.3367,16.344,16.3488,16.3296,16.31,16.3649,16.4239,16.4751,16.4683,16.4669,16.4649,16.4286,16.3639,16.3171,16.3331,16.3088,16.3188,16.3173,16.302,16.3342,16.3631,16.3718,16.4343,16.4421,16.4545,16.5009,16.5594,16.5667,16.5874,16.6089,16.6225,16.6383,16.656,16.6745,16.6694,16.6488,16.6444,16.6461,16.6531,16.683,16.7145,16.7312,16.7386,16.7452,16.7286,16.704,16.6952,16.6869,16.6874,16.6874,16.6969,16.6981,16.7112,16.6647,16.5494,16.4419,16.359,16.2838,16.1455,16.0014,15.8701,15.8159,15.7706,15.8858,15.961,15.9909,16.0927,16.1781,16.2105,16.226,16.235,16.3011,16.4302,16.4637,16.4932,16.5058,16.4184,16.3397,16.4152,16.4825,16.5273,16.5651,16.6112,16.6269,16.5884,16.5805,16.5572,16.5419,16.588,16.5958,16.6423,16.673,16.7344,16.7348,16.7348,16.7348,16.7348,16.7348,16.7191,16.7344,16.7344,16.7348,16.7348,16.7348,16.7348,16.7348,16.7348,16.7348,16.7348,16.7423,16.2742,16.4011,16.4054,16.4072,16.4078,16.3999,16.4011,16.4072,16.4024,16.3999,16.3956,16.3995,16.3996,16.3866,16.3804,16.3609,16.3529,16.3317,16.3148,16.3196,16.3173,16.3496,16.3859,16.4048,16.379,16.3714,16.3914,16.4032,16.3737,16.3581,16.4574,16.5244,16.5941,16.6264,16.6313,16.6093,16.6682,16.6808,16.6935,16.6291,16.5429,16.5218,16.537,16.5441,16.6566,16.7077,16.6824,16.6894,16.6973,16.7052,16.7139,16.7226,16.7239,16.7243,16.7243,16.7023,16.6067,16.5643,16.5116,16.3967,16.2579,16.1681,16.0766,15.9704,15.8473,15.8013,15.7628,15.7702,15.8091,15.8245,15.8398,15.8552,15.9247,16.0082,16.0598,16.0952,16.1858,16.2519,16.2854,16.2862,16.3227,16.2853,16.231,16.2759,16.3011,16.3452,16.3952,16.4408,16.4649,16.44,16.4479,16.4152,16.4223,16.4687,16.5077,16.5479,16.5726,16.6037,16.6112,16.6187,16.6498,16.7037,16.6962,16.6655,16.6734,16.6356,16.712,16.7348,16.6904,16.6758,16.7199,16.7348,16.7348,16.7348,16.7348,16.1468,16.2396,16.253,16.3017,16.3612,16.368,16.4127,16.4779,16.4751,16.47,16.462,16.4434,16.4178,16.4028,16.3883,16.3773,16.348,16.301,16.2711,16.2599,16.2146,16.1938,16.2209,16.2311,16.2468,16.2666,16.2908,16.2607,16.2445,16.2477,16.3047,16.4017,16.4119,16.4214,16.4392,16.4654,16.4469,16.4511,16.4654,16.4387,16.3726,16.37,16.3751,16.3909,16.4582,16.4964,16.5184,16.5633,16.6223,16.6368,16.6971,16.727,16.6892,16.6069,16.4885,16.4794,16.4267,16.3822,16.3554,16.2256,16.0981,15.9928,15.9244,15.8473,15.7859,15.7628,15.7628,15.7628,15.7628,15.7628,15.7628,15.7702,15.8013,15.8705,15.8854,15.9236,16.0003,16.0818,16.0626,16.0139,16.0492,16.068,16.0557,16.0995,16.1192,16.1614,16.211,16.2496,16.2814,16.2976,16.3145,16.3058,16.3216,16.3523,16.3605,16.3751,16.3951,16.4262,16.4415,16.4415,16.4726,16.5502,16.5734,16.5514,16.5057,16.4447,16.5065,16.5467,16.5786,16.5873,16.6065,16.6344,16.6884,16.7344,16.7348,15.9996,16.0403,16.0683,16.1504,16.2599,16.2668,16.3371,16.4644,16.4291,16.448,16.4369,16.4512,16.4144,16.3873,16.3958,16.394,16.3096,16.2197,16.1756,16.1598,16.0906,16.0422,16.0872,16.0983,16.05,16.0382,16.043,16.0878,16.1183,16.1513,16.1797,16.1971,16.2212,16.2325,16.2484,16.2186,16.2721,16.2898,16.2924,16.2622,16.2177,16.2122,16.2051,16.2126,16.2728,16.2878,16.3098,16.3917,16.4656,16.4731,16.5849,16.6376,16.5782,16.3995,16.3027,16.2803,16.2433,16.2082,16.1896,16.0542,15.9779,15.9322,15.8552,15.7781,15.7628,15.7628,15.7628,15.7628,15.7628,15.7628,15.7628,15.7628,15.7702,15.7702,15.7781,15.7859,15.8159,15.8745,15.9171,15.8502,15.814,15.8013,15.8705,15.9232,15.9445,15.9882,16.017,16.0406,16.0567,16.0889,16.1294,16.1616,16.1867,16.1942,16.1942,16.1937,16.2319,16.2645,16.3196,16.3196,16.3421,16.4085,16.3912,16.3251,16.2728,16.2889,16.2972,16.298,16.3535,16.4334,16.4727,16.5033,16.5112,16.5187,16.5726,15.9357,16.0645,16.0749,16.0913,16.1061,16.1086,16.1412,16.1609,16.1464,16.1905,16.1675,16.2907,16.2754,16.1937,16.2734,16.2438,16.1637,16.0951,16.0809,16.0829,16.0185,16.0066,16.0216,16.0041,15.955,15.7729,15.8034,15.8726,15.9522,15.9863,16.0437,16.1714,16.1958,16.1642,16.2157,16.2378,16.1988,16.1835,16.1886,16.1606,16.0555,16.0406,16.0331,16.0555,16.1303,16.1976,16.2051,16.2578,16.2874,16.2952,16.3102,16.3251,16.3102,16.2578,16.2504,16.2358,16.1035,16.0456,16.0089,15.909,15.8166,15.8013,15.7702,15.7628,15.7628,15.7628,15.7628,15.7628,15.7549,15.7549,15.7628,15.7396,15.747,15.7549,15.7549,15.7628,15.7702,15.7777,15.7986,15.7549,15.7628,15.7628,15.7856,15.8013,15.7934,15.8009,15.8159,15.8237,15.8233,15.8391,15.8772,15.909,15.9476,15.9554,15.9708,15.9754,16.0768,16.1401,16.2266,16.2266,16.2341,16.2306,16.1815,16.1119,16.1032,16.1819,16.2063,16.1524,16.1693,16.2569,16.3066,16.3444,16.3389,16.3266,16.3349,15.7893,15.8742,15.8816,15.9262,15.9926,16.0075,16.0525,16.1277,16.1351,16.1351,16.1574,16.209,16.1962,16.1171,16.175,16.1691,16.0889,16.077,16.0386,15.9543,15.8765,15.8634,15.8566,15.8519,15.8362,15.7419,15.7134,15.7478,15.8107,15.8471,15.8975,15.9668,15.9679,16.0025,15.9871,15.98,16.0032,16.0032,15.9882,15.9579,15.8906,15.8757,15.8757,15.8981,15.9426,15.9879,16.0103,16.0705,16.1158,16.0933,16.0406,15.9882,15.9957,15.9882,15.9879,15.9882,15.9079,15.8783,15.8705,15.8088,15.7628,15.7628,15.7628,15.7628,15.7628,15.7628,15.7628,15.7628,15.7549,15.7164,15.6393,15.6319,15.6315,15.6393,15.701,15.7624,15.7474,15.6853,15.6547,15.747,15.747,15.7549,15.7628,15.7702,15.7706,15.7781,15.7856,15.7856,15.7628,15.7628,15.7628,15.7628,15.7628,15.7702,15.7856,15.8473,15.9554,16.0093,16.071,16.0632,16.0632,16.0243,15.9853,15.9445,15.9029,15.9972,16.0582,16.0066,15.9767,16.0617,16.1357,16.1771,16.1949,16.1988,16.1965,15.6788,15.7056,15.7056,15.7789,15.8824,15.8898,15.9631,16.0749,16.0753,16.0561,16.0902,16.1196,16.0948,16.0311,16.0594,16.0529,15.9796,15.9708,15.9416,15.8177,15.7005,15.6789,15.6962,15.7284,15.7225,15.7274,15.7312,15.736,15.7383,15.7689,15.7699,15.777,15.805,15.7702,15.7852,15.8076,15.7628,15.7628,15.7706,15.7852,15.7781,15.7781,15.7781,15.7781,15.7852,15.7781,15.793,15.8828,15.9426,15.9202,15.8529,15.8001,15.8001,15.7927,15.8001,15.7927,15.7777,15.7702,15.7628,15.7702,15.7628,15.7628,15.7628,15.7628,15.7628,15.7628,15.747,15.7085,15.7085,15.6236,15.486,15.4584,15.4595,15.4786,15.5548,15.6259,15.6293,15.5351,15.5163,15.6083,15.6625,15.7085,15.701,15.7164,15.7628,15.7628,15.7628,15.7628,15.7628,15.7628,15.7628,15.7628,15.7628,15.7628,15.7781,15.8013,15.8477,15.8705,15.8705,15.8626,15.8552,15.8316,15.8548,15.8241,15.7628,15.7852,15.8611,15.8245,15.8552,15.8937,15.9543,15.9898,16.026,16.0705,16.076,15.7014,15.7056,15.7056,15.7118,15.7363,15.7346,15.7677,15.7657,15.7901,15.7897,15.8125,15.9139,15.9043,15.7581,15.9103,15.8875,15.7645,15.7856,15.7487,15.7343,15.7166,15.6679,15.6694,15.6786,15.6922,15.7013,15.7507,15.7444,15.7365,15.753,15.7628,15.7628,15.7628,15.7628,15.7628,15.7628,15.7628,15.7628,15.7628,15.7628,15.7628,15.7628,15.7628,15.7628,15.7628,15.7628,15.7702,15.7856,15.8005,15.7934,15.7777,15.7628,15.7628,15.7628,15.7628,15.7628,15.7628,15.7628,15.7628,15.7628,15.7628,15.7628,15.7628,15.7628,15.7628,15.7628,15.7085,15.5851,15.5391,15.4644,15.3358,15.2868,15.2868,15.2921,15.2872,15.3179,15.3114,15.2958,15.292,15.3152,15.455,15.5163,15.5698,15.6547,15.7474,15.624,15.6472,15.6625,15.6932,15.6932,15.7085,15.7396,15.7628,15.7628,15.7549,15.7549,15.7549,15.7553,15.7553,15.7164,15.7164,15.6857,15.7164,15.7628,15.7628,15.7628,15.7628,15.7628,15.7781,15.8166,15.8477,15.8398,15.8394,15.9284,15.9505,15.726,15.7418,15.7426,15.7426,15.7426,15.7426,15.7426,15.7426,15.743,15.7426,15.7493,15.8161,15.7881,15.7282,15.7867,15.7669,15.7139,15.7056,15.706,15.706,15.6994,15.6022,15.4882,15.4595,15.4726,15.4797,15.5687,15.6132,15.6282,15.7183,15.7553,15.7553,15.7628,15.7628,15.7628,15.7628,15.7628,15.7628,15.7628,15.7628,15.7628,15.7628,15.7628,15.7628,15.7628,15.7628,15.7628,15.7628,15.7628,15.7628,15.7628,15.7628,15.7628,15.7628,15.7628,15.7628,15.7628,15.7628,15.7628,15.7628,15.7628,15.7628,15.7628,15.7628,15.7628,15.7628,15.6932,15.5324,15.5152,15.3818,15.1952,15.1251,15.1262,15.1111,15.0334,15.0139,15.1209,15.1226,15.1653,15.2494,15.3178,15.3687,15.3709,15.4161,15.4617,15.4778,15.5025,15.5485,15.602,15.6162,15.6315,15.7164,15.7628,15.7317,15.7089,15.7089,15.7085,15.7399,15.7246,15.6393,15.593,15.5159,15.6087,15.7168,15.7474,15.7628,15.7628,15.7628,15.7628,15.7628,15.7628,15.7781,15.7856,15.8304,15.823,15.7449,15.7628,15.7628,15.7628,15.7628,15.7628,15.7624,15.7628,15.762,15.7605,15.762,15.7628,15.7547,15.7379,15.7367,15.7308,15.7232,15.7204,15.7113,15.6591,15.6147,15.4514,15.2966,15.2636,15.2711,15.286,15.3967,15.4483,15.4562,15.5538,15.636,15.6955,15.6876,15.7104,15.7631,15.7628,15.7628,15.7628,15.7628,15.7628,15.7628,15.7628,15.7482,15.71,15.6955,15.6659,15.6289,15.6738,15.688,15.6435,15.6663,15.7179,15.7557,15.7628,15.7628,15.7628,15.7628,15.7628,15.7628,15.7628,15.7628,15.7628,15.7628,15.7628,15.7628,15.7242,15.6162,15.4797,15.3982,15.2548,15.0286,14.9613,14.9613,14.9381,14.8672,14.8444,14.9303,14.9613,14.9997,15.1077,15.1682,15.1928,15.2143,15.2484,15.2872,15.2872,15.3029,15.3265,15.4109,15.4476,15.4543,15.5851,15.6491,15.6479,15.6479,15.6479,15.6562,15.6655,15.5975,15.4909,15.4162,15.3698,15.4921,15.5956,15.5579,15.5986,15.6439,15.6861,15.7549,15.7628,15.7628,15.7628,15.7628,15.7317,15.7242,15.762,15.7628,15.7628,15.7628,15.7628,15.7628,15.7628,15.7628,15.7628,15.7628,15.7628,15.7628,15.7616,15.7616,15.7586,15.7578,15.7597,15.7417,15.6505,15.4943,15.3683,15.273,15.2101,15.1959,15.1963,15.2184,15.2557,15.2703,15.2782,15.3227,15.3672,15.5156,15.531,15.5983,15.6884,15.7557,15.7254,15.7108,15.7332,15.7257,15.7257,15.7411,15.6734,15.5306,15.5231,15.464,15.3754,15.442,15.4416,15.338,15.4491,15.5911,15.7254,15.7628,15.7557,15.7628,15.7628,15.7628,15.7628,15.7628,15.7628,15.7624,15.7474,15.7628,15.7164,15.6012,15.4554,15.2891,15.1649,15.0065,14.8605,14.807,14.807,14.7917,14.7917,14.7764,14.7917,14.7996,14.8302,14.8533,14.9459,15.0371,15.0428,15.1493,15.2035,15.2188,15.2106,15.2178,15.2619,15.276,15.2805,15.3182,15.3837,15.3997,15.4408,15.4412,15.4491,15.4281,15.3313,15.2658,15.2081,15.2313,15.315,15.3208,15.3239,15.396,15.4569,15.5036,15.5619,15.6083,15.67,15.747,15.7317,15.6779,15.6547,15.7628,15.7628,15.7628,15.7628,15.7628,15.7628,15.7628,15.7628,15.7628,15.7628,15.7628,15.7628,15.7628,15.7628,15.7628,15.7628,15.7482,15.6506,15.464,15.2251,15.1283,15.0538,14.9634,14.9563,14.9559,14.9712,15.0613,15.114,15.1211,15.2112,15.2931,15.3451,15.3526,15.39,15.4349,15.4502,15.4498,15.4494,15.4573,15.4427,15.4502,15.4498,15.4195,15.3672,15.3522,15.3156,15.2636,15.218,15.1802,15.1585,15.2707,15.4266,15.5829,15.6054,15.6577,15.7328,15.7628,15.7553,15.7628,15.7396,15.7628,15.7396,15.67,15.6083,15.5776,15.4464,15.285,15.147,15.0571,14.9613,14.807,14.7686,14.7686,14.7686,14.7686,14.7686,14.7686,14.7686,14.7686,14.7839,14.8302,14.8533,14.8687,14.9381,14.9459,14.9534,14.9538,14.9691,15.0827,15.1076,15.191,15.2355,15.2098,15.2087,15.2337,15.2415,15.2423,15.1678,15.0938,15.0589,15.0382,15.0688,15.1055,15.1186,15.1627,15.243,15.3021,15.3403,15.3814,15.3773,15.4154,15.479,15.5201,15.5036,15.5496,15.636,15.6805,15.6884,15.7108,15.7628,15.7628,15.7628,15.7628,15.7628,15.7628,15.7628,15.7628,15.7628,15.7628,15.7628,15.7328,15.6659,15.4569,15.2472,15.0535,14.9709,14.889,14.7985,14.7761,14.7686,14.791,14.8961,14.9488,14.9637,15.0542,15.1436,15.181,15.1888,15.2109,15.2707,15.2561,15.2561,15.2561,15.2561,15.2561,15.2561,15.2636,15.2337,15.1884,15.1884,15.1585,15.1065,15.009,14.9488,14.9488,15.0987,15.2629,15.3967,15.4337,15.4868,15.5915,15.6065,15.6057,15.602,15.6008,15.593,15.5851,15.5006,15.4405,15.4132,15.2857,15.1399,15.0578,14.9691,14.9075,14.7996,14.7686,14.7686,14.7686,14.7686,14.7686,14.7686,14.7686,14.7686,14.7686,14.7686,14.7686,14.7764,14.7839,14.7996,14.7992,14.7917,14.8224,14.915,14.9445,15.0076,15.077,15.0923,15.0663,15.0336,15.009,15.0093,14.9726,14.9125,14.8761,14.8765,14.8914,14.9278,14.963,15.0264,15.0884,15.1543,15.2038,15.239,15.2581,15.2727,15.2719,15.2633,15.3014,15.3706,15.3672,15.501,15.5081,15.5979,15.7108,15.7183,15.7482,15.7254,15.7403,15.7328,15.7254,15.7478,15.7328,15.7482,15.7108,15.651,15.4633,15.2027,15.0542,14.9936,14.8587,14.7839,14.7686,14.7686,14.7686,14.7761,14.7761,14.7832,14.7985,14.8209,14.8957,15.0015,15.0239,15.0837,15.2408,15.2109,15.2258,15.2187,15.2034,15.2262,15.2561,15.2187,15.1514,15.0389,15.0243,14.9563,14.806,14.791,14.7989,14.8063,14.9413,15.0991,15.2187,15.2554,15.2707,15.3017,15.2868,15.2741,15.2876,15.3025,15.3186,15.3111,15.2786,15.2615,15.2393,15.1233,15.0204,14.9766,14.8765,14.7839,14.7764,14.7686,14.7686,14.7686,14.7686,14.7686,14.7686,14.7686,14.7686,14.7686,14.7686,14.7686,14.7686,14.7686,14.7686,14.7686,14.7686,14.7917,14.807,14.8149,14.7917,14.807,14.8608,14.8996,14.838,14.7839,14.7917,14.7992,14.7839,14.7761,14.7917,14.7992,14.8434,14.8512,14.9142,14.9374,15.0029,15.0257,15.0695,15.1076,15.1725,15.18,15.1454,15.1186,15.1866,15.2931,15.3376,15.3376,15.375,15.4195,15.4203,15.4203,15.4352,15.5463,15.5983,15.59,15.5904,15.5908,15.5754,15.4719,15.3376,15.1806,15.0837,14.9641,14.8587,14.7989,14.7686,14.7686,14.7686,14.7686,14.7686,14.7686,14.7686,14.7686,14.7686,14.7985,14.8508,14.8508,14.8815,14.9185,14.9335,14.9338,14.9338,14.9263,14.9338,14.9338,14.9263,14.9039,14.8658,14.8512,14.8288,14.7761,14.7686,14.7686,14.7764,14.8213,14.8736,14.9331,15.0385,15.1465,15.242,15.2573,15.2555,15.2605,15.2598,15.2515,15.2519,15.1667,15.0987,15.087,14.9516,14.8687,14.8459,14.7917,14.7686,14.7686,14.7686,14.7686,14.7686,14.7686,14.7686,14.7686,14.7686,14.7686,14.7686,14.7686,14.7686,14.7686,14.7686,14.7686,14.7686,14.7686,14.7686,14.7686,14.7686,14.7686,14.7686,14.7686,14.7686,14.7761,14.7764,14.7839,14.7839,14.7686,14.7686,14.7764,14.7764,14.7835,14.7761,14.7917,14.807,14.8227,14.8455,14.8758,14.9064,14.9691,15.0229,14.983,14.9502,15.0075,15.0837,15.0912,15.151,15.2109,15.2561,15.2561,15.2561,15.2707,15.3747,15.4188,15.4192,15.4192,15.4192,15.4042,15.1881,15.0314,14.9413,14.9338,14.8811,14.7839,14.7686,14.7686,14.7686,14.7686,14.7686,14.7686,14.7686,14.7686,14.7686,14.7686,14.7686,14.7686,14.7686,14.7686,14.7686,14.7686,14.7686,14.7761,14.7686,14.7686,14.7835,14.7686,14.7686,14.7686,14.7686,14.7686,14.7686,14.7686,14.7686,14.7686,14.7686,14.7686,14.7835,14.8736,14.9808,15.0688,15.0845,15.0845,15.0845,15.0845,15.0845,15.0767,14.9844,14.9299,14.915,14.838,14.7686,14.7761,14.7761,14.6963,14.6446,14.5948,14.5988,14.6066,14.6451,14.676,14.6913,14.7376,14.7686,14.7686,14.7686,14.7686,14.7686,14.7686,14.7686,14.7686,14.7686,14.7686,14.7686,14.7686,14.7686,14.7686,14.7686,14.7686,14.7686,14.7686,14.7686,14.7686,14.7686,14.7686,14.7686,14.7686,14.7686,14.7686,14.7686,14.7839,14.7917,14.807,14.807,14.8224,14.8149,14.8455,14.7686,14.8366,14.88,14.7533,14.7764,14.9338,15.0834,15.2333,15.2266,15.2258,15.2034,15.2412,15.2483,15.2483,15.2479,15.2412,15.2109,14.9335,14.7839,14.7761,14.7686,14.7533,14.7458,14.7462,14.7536,14.7611,14.7686,14.7686,14.7686,14.7686,14.7686,14.7686,14.7686,14.7686,14.7686,14.7686,14.7686,14.7686,14.7686,14.7686,14.7686,14.7686,14.7686,14.7686,14.7686,14.7686,14.7686,14.7686,14.7686,14.7686,14.7686,14.7686,14.7686,14.7686,14.7686,14.7686,14.7761,14.7835,14.7917,14.7764,14.7686,14.7554,14.7543,14.7529,14.7529,14.7376,14.7454,14.7298,14.7145,14.6999,14.739,14.7105,14.6018,14.3757,14.343,14.3333,14.333,14.4319,14.5002,14.5144,14.6298,14.7376,14.7454,14.7376,14.7454,14.7686,14.7686,14.7686,14.7686,14.7686,14.7686,14.7686,14.7686,14.7686,14.7686,14.7686,14.7686,14.7686,14.7686,14.7686,14.7686,14.7686,14.7686,14.7686,14.7686,14.7686,14.7686,14.7686,14.7686,14.7686,14.7686,14.7686,14.7686,14.7686,14.7686,14.7686,14.7686,14.7907,14.4236,14.4464,14.5884,14.7533,14.9039,14.9039,14.911,14.9189,15.0389,15.0916,15.0912,15.0909,15.0236,14.9035,14.8135,14.7686,14.7536,14.6486,14.5881,14.5888,14.5881,14.5888,14.6034,14.7084,14.7686,14.7686,14.7686,14.7686,14.7686,14.7686,14.7686,14.7686,14.7686,14.7686,14.7686,14.7686,14.7686,14.7686,14.7686,14.7686,14.7686,14.7686,14.7686,14.7686,14.7686,14.7686,14.7686,14.7686,14.7686,14.7686,14.7686,14.7686,14.7686,14.7686,14.7686,14.7608,14.6607,14.5436,14.4274,14.4222,14.4212,14.4216,14.4216,14.4216,14.4216,14.4216,14.4255,14.4189,14.4179,14.3982,14.2899,14.2852,14.2819,14.29,14.3206,14.3519,14.3543,14.3828,14.476,14.5682,14.5917,14.6298,14.7376,14.7608,14.7686,14.7686,14.7686,14.7686,14.7686,14.7686,14.7686,14.7686,14.7686,14.7686,14.7686,14.7686,14.7686,14.7686,14.7686,14.7686,14.7686,14.7686,14.7686,14.7686,14.7686,14.7686,14.7686,14.7686,14.7686,14.7686,14.7686,14.7686,14.7686,14.7686,14.7686,14.2886,14.2965,14.3858,14.4837,14.5663,14.5738,14.6112,14.6782,14.7757,14.8587,14.9035,14.7764,14.671,14.5813,14.5738,14.5735,14.5663,14.4688,14.4239,14.4232,14.4239,14.4232,14.4314,14.5364,14.5735,14.5813,14.6411,14.6714,14.6785,14.7465,14.7686,14.7686,14.7686,14.7686,14.7686,14.7686,14.7686,14.7686,14.7686,14.7686,14.7768,14.7746,14.7784,14.7859,14.784,14.7938,14.7867,14.786,14.7567,14.6962,14.6873,14.657,14.5914,14.5841,14.5802,14.5747,14.4865,14.3828,14.2889,14.2866,14.2876,14.2876,14.2876,14.2855,14.2885,14.2885,14.2243,14.1126,14.0795,14.0815,14.0741,14.0819,14.0815,14.0894,14.1434,14.1849,14.1883,14.2492,14.3185,14.4029,14.4265,14.4678,14.5525,14.6298,14.6992,14.7608,14.7686,14.7686,14.7686,14.7686,14.7686,14.7686,14.7686,14.7686,14.7686,14.7686,14.7686,14.7686,14.7686,14.7686,14.7686,14.7686,14.7686,14.7686,14.7686,14.7686,14.7686,14.7686,14.7686,14.7686,14.7686,14.7686,14.7686,14.7686,14.7686,14.2213,14.2441,14.2516,14.2662,14.2737,14.2886,14.3784,14.4912,14.4983,14.5884,14.686,14.4164,14.2961,14.2886,14.2961,14.3036,14.3036,14.2737,14.2591,14.2666,14.2662,14.2666,14.2666,14.2815,14.2886,14.3189,14.4382,14.4983,14.5055,14.6411,14.7234,14.7533,14.7686,14.7686,14.7686,14.7686,14.7686,14.7686,14.7465,14.7319,14.7337,14.7397,14.7472,14.7488,14.7597,14.7658,14.7492,14.7662,14.6983,14.5555,14.5377,14.478,14.3499,14.3168,14.3155,14.3189,14.2821,14.2645,14.2623,14.2535,14.2274,14.2433,14.227,14.223,14.222,14.1982,14.0562,13.8186,13.736,13.751,13.7601,13.7662,13.7887,13.8274,13.9354,14.0122,14.0262,14.1509,14.2512,14.259,14.2594,14.2778,14.3265,14.4269,14.5561,14.6614,14.6913,14.7148,14.7223,14.7454,14.7686,14.7223,14.7148,14.7145,14.7301,14.7454,14.7454,14.7686,14.7686,14.7686,14.7686,14.7686,14.7686,14.7686,14.7686,14.7686,14.7686,14.7686,14.7686,14.7686,14.7686,14.7686,14.7686,14.7686,14.7686,13.7887,13.9083,14.0361,14.0888,14.1034,14.2292,14.3107,14.3335,14.341,14.3563,14.3862,14.3264,14.2886,14.2886,14.2886,14.2812,14.2662,14.1476,14.0885,14.0885,14.0888,14.0888,14.1034,14.2299,14.2886,14.2886,14.3264,14.341,14.3406,14.3787,14.4538,14.5809,14.7084,14.7686,14.7686,14.7686,14.7686,14.7536,14.5283,14.3992,14.4113,14.415,14.4219,14.4312,14.4346,14.4362,14.4359,14.4362,14.4212,14.384,14.3764,14.3623,14.3315,14.3246,14.3237,14.3118,14.1969,14.1151,14.1025,13.9784,13.8967,13.8967,13.8967,13.8964,13.8781,13.6699,13.481,13.4197,13.4161,13.4687,13.5741,13.6011,13.6501,13.7659,13.8196,13.8274,13.8352,13.8736,13.9354,14.0666,14.0864,14.1442,14.2526,14.3216,14.3614,14.4105,14.5063,14.5682,14.5913,14.6992,14.6451,14.4909,14.3981,14.4532,14.5603,14.576,14.6298,14.7608,14.7608,14.738,14.7454,14.7608,14.7686,14.7454,14.7533,14.7454,14.7608,14.7611,14.7533,14.7376,14.7301,14.7533,14.7529,14.7533,14.7611,13.4818,13.564,13.6544,13.7448,13.8196,13.9083,14.0351,14.1476,13.9297,13.8325,13.8322,13.8322,13.8322,13.8397,13.9151,13.9528,13.9528,13.9311,13.9171,13.9168,13.9168,13.9168,13.9314,14.0127,14.0572,14.0579,14.1326,14.17,14.1772,14.2519,14.3335,14.4157,14.4983,14.5514,14.5514,14.551,14.5514,14.5436,14.3856,14.2964,14.3043,14.3165,14.3268,14.3407,14.3442,14.3494,14.3416,14.3475,14.3127,14.2445,14.2377,14.199,14.1254,14.0405,13.9906,13.9802,13.8314,13.7288,13.7266,13.6281,13.5759,13.5669,13.5652,13.5727,13.5652,13.403,13.2919,13.2916,13.2945,13.3354,13.4241,13.4353,13.4651,13.55,13.5574,13.5574,13.5652,13.6192,13.7116,13.7965,13.8736,13.9507,14.0431,14.1203,14.1693,14.1843,14.3124,14.4086,14.4155,14.4905,14.4821,14.3281,14.2818,14.3274,14.3968,14.4133,14.4529,14.5294,14.5525,14.545,14.5525,14.545,14.545,14.5525,14.545,14.5525,14.545,14.5553,14.5482,14.5468,14.5525,14.5913,14.6451,14.6604,14.6298,13.2799,13.2945,13.2945,13.3764,13.5117,13.512,13.6697,13.894,13.4814,13.2945,13.2945,13.2945,13.2945,13.3017,13.4515,13.512,13.5192,13.6544,13.7142,0.0,13.7142,13.7214,13.7441,13.7519,13.7591,13.789,13.9321,13.9991,14.014,14.1401,14.2292,14.2516,14.2516,14.2662,14.2886,14.2886,14.2662,14.2142,14.229,14.2379,14.2401,14.2659,14.2803,14.2823,14.2863,14.2968,14.2965,14.3055,14.2506,14.1067,14.0744,13.9963,13.8473,13.685,13.5693,13.5535,13.4224,13.3434,13.3417,13.3383,13.3355,13.322,13.3196,13.2923,13.2536,13.2383,13.2331,13.2237,13.2114,13.2341,13.2638,13.2649,13.2702,13.301,13.3004,13.2997,13.316,13.4323,13.5159,13.5272,13.6345,13.7116,13.7272,13.858,13.9507,13.9813,14.0789,14.2149,14.2261,14.2173,14.1961,14.2127,14.2202,14.228,14.2478,14.2516,14.2746,14.2792,14.3112,14.3205,14.3286,14.3279,14.3279,14.2956,14.3177,14.3095,14.3045,14.2862,14.3107,14.3219,14.3283,14.3507,14.467,14.4585,14.4109,13.168,13.2945,13.2945,13.3166,13.3394,13.3387,13.369,13.4216,0.0,0.0,0.0,13.2945,13.2945,13.3013,13.3244,13.3391,13.3391,13.3693,13.3842,13.3842,13.3842,13.4515,13.5868,13.5871,13.6544,13.7815,13.8114,13.8261,13.8267,13.856,13.9389,14.066,14.0817,14.1476,14.2812,14.2886,14.1544,13.8865,13.8844,13.8965,13.9076,13.9334,13.9503,13.9662,13.978,13.9843,13.977,13.9861,13.972,13.9419,13.8076,13.7167,13.6843,13.523,13.4301,13.4284,13.389,13.361,13.3543,13.3528,13.3461,13.3332,13.3216,13.1977,12.9281,12.9125,12.9054,12.8988,12.8932,12.949,13.0724,13.0839,13.1435,13.2825,13.2978,13.29,13.2972,13.329,13.3445,13.3449,13.3738,13.3803,13.404,13.5431,13.6345,13.6579,13.7734,13.9107,14.0089,13.8634,13.7503,13.8658,13.9123,13.9354,14.0428,14.0775,14.1394,14.237,14.2679,14.2849,14.2849,14.2852,14.2852,14.2519,14.2839,14.2679,14.2747,14.2618,14.2862,14.2856,14.2849,14.3005,14.3084,14.2227,14.1656,12.9742,0.0,13.0481,13.0933,0.0,13.1684,13.1232,13.0484,13.0487,13.0481,13.0487,13.0484,13.0487,13.0559,13.131,13.1684,13.1761,13.2568,13.2945,13.2945,13.2945,13.3387,13.4213,13.4216,13.4593,13.5338,13.6245,13.6622,13.6694,13.7445,13.8267,13.9015,13.9097,13.946,14.0273,14.0351,13.8739,13.5444,13.5572,13.5699,13.583,13.6059,13.6203,13.6255,0.0,0.0,0.0,0.0,0.0,0.0,0.0,0.0,0.0,0.0,0.0,13.2713,13.1869,13.1326,13.1244,13.1317,13.1223,13.1112,13.091,12.9477,12.6325,12.5866,12.5758,12.5638,12.6392,12.7191,12.7931,12.8748,12.9568,13.0412,13.0493,13.049,13.0568,13.1185,13.1684,13.1742,13.2422,13.2958,13.2955,13.3731,13.4158,13.4284,13.4882,13.5961,13.7272,13.5805,13.4804,13.6345,13.7194,13.8121,13.8889,13.9045,13.9429,14.0047,14.0278,14.0353,14.0353,14.0353,14.0278,14.0275,14.032,14.029,14.0272,14.0278,14.0278,14.0353,14.0278,14.0278,14.0278,13.966,13.9341,12.7346,12.7574,12.7577,12.8549,12.9895,12.9303,12.8325,12.7125,12.7125,12.7122,12.7128,12.7122,12.7197,12.7278,12.877,12.9524,12.9599,13.1229,13.2051,13.2045,13.2051,13.2201,13.2496,13.25,13.2643,13.302,13.4369,13.497,13.5039,13.6242,13.6915,13.6918,13.6915,13.6921,13.6918,0.0,0.0,0.0,13.3294,13.3429,13.3547,13.3687,13.3741,13.3783,13.4012,0.0,13.4175,13.4365,13.4511,13.452,13.4207,0.0,0.0,0.0,0.0,0.0,0.0,0.0,0.0,0.0,0.0,0.0,12.7866,12.6698,12.4082,12.3619,12.3419,12.3355,12.4507,12.5196,12.5135,12.6333,12.7101,12.7175,12.7101,12.7101,12.7175,12.8181,12.9029,12.9103,13.049,13.149,13.1409,13.2186,13.2507,13.2513,13.2783,13.34,13.4483,13.3339,13.3176,13.4704,13.591,13.6807,13.6963,13.6885,13.681,13.6963,13.6888,13.6888,13.6885,13.6888,13.6885,13.6885,13.6885,13.696,13.735,13.737,13.7607,13.7822,13.7887,13.7656,13.7038,13.6888,13.6888,12.4574,12.5926,12.5926,12.6826,12.8178,12.525,12.3901,12.367,12.367,12.3673,12.3673,12.3673,12.3673,12.382,12.5471,12.6225,12.63,12.7945,12.8695,12.8699,12.8695,12.9446,13.0721,13.0792,13.1534,13.2945,13.3166,13.3319,13.3319,13.3465,13.3615,13.3543,13.3543,13.3543,13.3618,13.3543,13.3461,13.3217,13.3378,13.3547,13.3508,13.3795,13.3975,13.4052,13.4234,13.4347,13.4462,13.4483,13.452,13.449,13.316,13.2293,13.2211,12.9283,12.7579,0.0,12.5914,0.0,0.0,0.0,0.0,0.0,0.0,0.0,0.0,12.3792,12.369,12.3407,12.3519,12.356,12.3529,12.3661,12.3705,12.3705,12.3705,12.3705,12.3705,12.386,12.4013,12.4013,12.5479,12.6484,12.6715,12.9029,13.0724,13.0758,13.1594,13.1977,13.1294,13.0827,13.121,13.299,13.3462,13.3907,13.3979,13.3901,13.3914,13.3816,13.3969,13.3569,13.3813,13.3735,13.3653,13.3653,13.3813,13.419,13.5574,13.58,13.6203,13.7298,13.7519,13.6749,13.459,13.3897,13.3569,12.3521,12.4122,12.42,12.4574,12.5172,12.3676,12.3072,12.3072,12.3072,12.3072,12.3072,12.3072,12.3072,12.3072,12.382,12.4194,12.4197,12.4951,12.5324,12.5324,12.6222,12.705,12.7798,12.8699,12.9521,13.026,13.116,13.1537,13.1606,13.2493,13.2945,13.2945,13.2945,13.2045,13.0341,13.0337,13.0401,13.0464,13.0625,13.0826,13.0999,13.1235,13.1315,13.1468,13.1658,13.1775,13.1829,13.1889,13.1931,13.1875,13.0261,12.9415,12.9337,12.7099,12.5707,0.0,0.0,0.0,0.0,0.0,0.0,0.0,0.0,0.0,0.0,0.0,12.1147,12.0991,12.1635,12.2037,12.1968,12.2731,12.326,12.3182,12.3182,12.3108,12.3027,12.3027,12.303,12.3027,12.3721,12.414,12.4184,12.5479,12.6637,12.7639,12.7562,12.7175,12.6637,12.7253,12.8412,13.0107,13.1182,13.2051,13.313,13.3283,13.33,13.3277,13.3205,13.3205,13.3205,13.3208,13.3127,13.3042,13.3037,13.328,13.3872,13.4109,13.4262,13.4957,13.524,13.4742,13.3361,13.3052,13.3026,12.2103,12.2405,12.2028,12.1879,12.1876,12.1879,12.1879,12.1879,12.1879,12.1876,12.1882,12.1882,12.1882,12.1876,12.233,12.248,12.248,12.2851,12.3072,12.3147,12.4424,12.4951,12.5022,12.6296,12.6901,12.6976,12.8477,12.9297,12.9375,13.1007,13.1827,13.1752,13.141,13.0023,12.7668,12.8062,12.835,12.8385,12.8401,12.8597,12.8887,12.9155,12.9078,12.8753,12.897,12.8857,12.8514,12.8584,12.8621,12.8629,12.748,12.6716,12.6716,12.5161,0.0,0.0,0.0,0.0,0.0,0.0,0.0,0.0,0.0,11.8161,11.8164,0.0,11.7968,0.0,11.9086,12.0043,12.0339,12.1494,0.0,0.0,12.2151,12.2081,12.2003,12.2003,12.2003,12.1928,12.2259,12.2459,12.2501,12.2851,12.3389,12.4316,12.3392,12.2779,12.3243,12.4406,12.5631,12.6915,12.8145,12.9667,13.1086,13.1669,13.1676,13.219,13.221,13.2129,13.2132,13.2132,13.2057,13.2042,13.1996,13.2133,13.2396,13.2448,13.2259,13.1536,13.1779,13.2135,13.2048,13.1953,13.1924,11.9503,12.0778,11.9204,11.86,11.86,11.8528,11.8603,11.8528,11.8528,11.8528,11.86,11.86,11.86,11.8678,12.0185,0.0,12.0927,12.2411,12.2997,12.3072,12.3147,12.3222,12.3294,12.3449,12.3446,12.3524,12.5175,12.5923,12.6078,12.7646,12.8468,12.8399,12.7021,12.6307,12.6253,12.7616,12.8349,12.8457,12.8478,12.8599,12.8814,12.9157,12.8621,12.7363,12.7291,12.671,12.5302,12.5236,12.5255,12.5355,12.5103,12.5011,12.4934,0.0,0.0,0.0,0.0,0.0,0.0,0.0,0.0,0.0,0.0,0.0,0.0,0.0,0.0,0.0,11.5781,0.0,11.8626,11.884,0.0,0.0,0.0,11.8922,11.8922,11.8922,11.8922,11.8922,0.0,0.0,12.0889,12.2141,12.2605,12.1445,12.114,12.1678,12.3215,12.3474,12.3675,12.392,12.3998,12.4762,12.6738,12.7031,12.7519,12.877,12.8835,12.8739,12.8757,12.8674,12.8672,12.8727,12.8707,12.9063,13.0723,13.0749,13.0018,12.7139,12.771,12.8667,12.8714,12.8735,12.8682,11.793,11.7634,11.6949,11.613,11.5307,11.523,11.5232,11.523,11.5232,11.5232,11.5232,11.5232,11.5232,11.5307,11.598,0.0,0.0,0.0,12.0093,12.0171,12.1146,12.1672,12.1669,12.2627,12.3072,12.3072,12.3751,12.4047,12.4119,12.4726,12.51,12.5244,0.0,0.0,12.4486,12.5153,12.5542,12.5648,12.5637,12.5771,12.6034,12.6178,12.6001,12.5618,12.5706,12.5413,12.4815,12.4894,12.4898,12.4986,12.3988,12.3374,0.0,0.0,0.0,0.0,0.0,0.0,0.0,0.0,0.0,0.0,0.0,11.4621,11.4568,0.0,0.0,0.0,11.474,11.5299,11.5722,11.5741,0.0,0.0,0.0,0.0,0.0,0.0,0.0,11.8623,11.9087,11.9417,11.9455,11.9091,11.902,11.9406,11.9483,11.9791,12.0486,0.0,12.2156,12.2263,12.3097,12.4018,12.4709,12.4846,12.5102,12.5716,12.5764,12.5689,12.5711,12.5625,12.5595,12.5568,12.5524,12.5717,12.6287,12.6566,12.6234,12.5105,12.533,12.5668,12.5661,12.5609,12.5578,11.613,0.0,0.0,0.0,0.0,11.3366,11.3377,11.3377,11.3377,11.3377,11.3377,11.3382,0.0,0.0,0.0,0.0,0.0,0.0,11.713,11.7651,11.8779,11.968,12.0132,12.1238,12.1753,12.1828,12.2202,12.2429,12.2426,12.1977,12.1876,12.21,0.0,0.0,0.0,0.0,12.3771,12.3837,12.3838,12.4035,12.4204,12.4255,12.4351,12.4595,12.4322,12.3866,12.3389,12.3476,12.333,12.2801,12.1663,0.0,0.0,0.0,0.0,0.0,0.0,0.0,0.0,0.0,0.0,0.0,0.0,0.0,0.0,0.0,0.0,0.0,0.0,0.0,11.3343,11.3724,11.4405,0.0,0.0,0.0,0.0,0.0,0.0,0.0,0.0,0.0,11.7236,11.6195,11.5961,0.0,0.0,11.7496,11.8034,11.9199,12.0184,12.0721,12.1868,0.0,0.0,12.3396,12.3583,12.4041,12.4143,12.4106,12.4102,12.4019,12.3928,12.3898,12.3801,12.3391,12.2529,12.2826,12.3338,12.3332,12.3702,12.3971,12.388,12.387,12.3823,0.0,0.0,0.0,0.0,0.0,0.0,0.0,0.0,11.3442,11.3363,0.0,11.336,0.0,0.0,0.0,0.0,0.0,11.3662,0.0,0.0,11.6214,11.7049,11.8546,11.8694,11.8694,11.8849,12.0268,12.0943,12.0873,11.9451,0.0,0.0,0.0,0.0,0.0,0.0,12.4024,12.3955,12.3882,12.4043,12.4122,12.4133,12.4277,12.452,12.3209,12.1762,12.0198,12.0154,11.9336,11.7748,11.7673,0.0,0.0,0.0,0.0,0.0,0.0,0.0,0.0,0.0,0.0,0.0,0.0,0.0,0.0,0.0,0.0,0.0,0.0,0.0,0.0,11.3201,0.0,0.0,0.0,0.0,0.0,0.0,0.0,0.0,0.0,0.0,11.428,11.42,11.4198,11.4283,0.0,0.0,0.0,0.0,11.738,11.8983,11.9369,12.0054,12.1659,12.1969,12.2512,12.4038,0.0,0.0,12.4202,12.4202,12.4072,12.4,12.3866,12.2992,11.9943,12.0781,12.1722,12.166,12.2788,12.3859,12.3998,12.3701,12.3777,0.0,0.0,0.0,0.0,0.0,0.0,0.0,0.0,0.0,11.0305,0.0,11.0383,0.0,0.0,0.0,0.0,0.0,0.0,0.0,0.0,11.4352,11.4727,11.5332,11.6379,11.6907,0.0,11.8634,11.8394,0.0,0.0,0.0,0.0,0.0,0.0,0.0,0.0,12.0909,12.096,12.1014,12.101,12.1178,12.1262,12.1343,12.1421,12.1016,12.002,11.8375,11.8282,11.7538,0.0,0.0,0.0,0.0,0.0,0.0,0.0,0.0,0.0,0.0,0.0,0.0,0.0,0.0,0.0,0.0,0.0,0.0,0.0,0.0,0.0,0.0,0.0,11.1493,0.0,0.0,0.0,0.0,0.0,0.0,0.0,0.0,0.0,11.2698,11.2607,11.3041,11.4113,11.4266,11.4496,11.5106,0.0,0.0,0.0,0.0,0.0,0.0,0.0,12.0555,12.1166,12.1253,12.1256,12.1179,12.1093,12.1028,12.1001,0.0,0.0,11.9657,11.9873,12.0249,12.0265,12.0669,12.106,12.0984,12.098,12.0946,0.0,0.0,0.0,0.0,0.0,0.0,0.0,0.0,0.0,10.7121,10.7192,0.0,0.0,0.0,0.0,0.0,0.0,0.0,0.0,0.0,0.0,0.0,11.3729,11.4856,0.0,0.0,0.0,0.0,0.0,0.0,0.0,0.0,0.0,0.0,0.0,0.0,11.9335,11.9456,11.9455,11.9439,11.9573,11.9736,11.9792,11.975,11.9376,11.8586,11.7464,0.0,0.0,0.0,0.0,0.0,0.0,0.0,0.0,0.0,0.0,0.0,0.0,0.0,0.0,0.0,0.0,0.0,0.0,0.0,0.0,0.0,0.0,0.0,0.0,0.0,10.8488,0.0,0.0,0.0,0.0,0.0,0.0,0.0,0.0,0.0,0.0,0.0,11.1461,11.2603,11.2758,11.2985,11.3596,11.3706,11.4348,0.0,0.0,0.0,0.0,0.0,0.0,0.0,0.0,0.0,0.0,0.0,0.0,0.0,0.0,11.9523,11.9598,11.9601,11.9627,11.9557,0.0,0.0,0.0,0.0,0.0,0.0,0.0,0.0,0.0,0.0,0.0,0.0,0.0,0.0,0.0,0.0,0.0,0.0,10.4297,0.0,0.0,0.0,0.0,0.0,0.0,0.0,0.0,0.0,0.0,0.0,0.0,0.0,0.0,0.0,0.0,0.0,0.0,0.0,0.0,0.0,0.0,11.9518,11.9518,11.9505,11.9637,11.9681,11.9725,11.9709,11.9778,11.821,11.7314,11.7317,0.0,0.0,0.0,0.0,0.0,0.0,0.0,0.0,0.0,0.0,0.0,0.0,0.0,0.0,0.0,0.0,0.0,0.0,0.0,0.0,0.0,0.0,0.0,0.0,0.0,0.0,10.6941,10.8438,10.944,0.0,0.0,0.0,0.0,0.0,0.0,0.0,0.0,0.0,0.0,10.9685,11.0217,11.1889,11.2123,11.2735,11.4412,11.4765,11.4877,11.4938,11.6321,11.7388,0.0,0.0,0.0,0.0,0.0,0.0,0.0,0.0,0.0,0.0,0.0,0.0,0.0,0.0,0.0,0.0,0.0,0.0,0.0,0.0,0.0,0.0,0.0,0.0,0.0,0.0,0.0,0.0,0.0,0.0,0.0,0.0,0.0,0.0,0.0,0.0,0.0,0.0,0.0,0.0,0.0,0.0,0.0,0.0,0.0,0.0,0.0,0.0,0.0,0.0,0.0,0.0,0.0,0.0,11.8469,11.9608,11.9658,11.9689,11.97,11.8675,11.8103,11.8136,11.6551,11.5674,0.0,0.0,0.0,0.0,0.0,0.0,0.0,0.0,0.0,0.0,0.0,0.0,0.0,0.0,0.0,0.0,0.0,0.0,0.0,0.0,0.0,0.0,0.0,0.0,0.0,0.0,0.0,0.0,10.683,10.8305,10.9447,0.0,0.0,0.0,0.0,0.0,0.0,0.0,0.0,0.0,0.0,10.999,11.0449,11.0541,11.1127,11.2799,11.3097,11.3562,11.4733,11.5346,11.5647,11.5641,0.0,0.0,0.0,0.0,0.0,0.0,0.0,0.0,0.0,0.0,0.0,0.0,0.0,0.0,0.0,0.0,0.0,0.0,0.0,0.0,0.0,0.0,0.0,0.0,0.0,0.0,0.0,0.0,0.0,0.0,0.0,0.0,0.0,0.0,0.0,0.0,0.0,0.0,0.0,0.0,0.0,0.0,0.0,0.0,0.0,0.0,0.0,0.0,0.0,0.0,0.0,0.0,0.0,11.7116,11.8783,11.8825,11.8848,11.8783,11.7892,11.7148,11.6478,11.4843,11.4035,0.0,0.0,0.0,0.0,0.0,0.0,0.0,0.0,0.0,0.0,0.0,0.0,0.0,0.0,0.0,0.0,0.0,0.0,0.0,0.0,0.0,0.0,0.0,0.0,0.0,0.0,0.0,0.0,10.4619,10.5882,10.7639,0.0,0.0,0.0,0.0,0.0,0.0,0.0,0.0,0.0,0.0,10.9776,10.9776,10.9841,0.0,0.0,11.1474,11.1866,11.2881,11.3568,11.4022,11.3943,11.531,0.0,0.0,0.0,0.0,0.0,0.0,0.0,0.0,0.0,0.0,0.0,0.0,0.0,0.0,0.0,0.0,0.0,0.0,0.0,0.0,0.0,0.0,0.0,0.0,0.0,0.0,0.0,0.0,0.0,0.0,0.0,0.0,0.0,0.0,0.0,0.0,0.0,0.0,0.0,0.0,0.0,0.0,0.0,0.0,0.0,0.0,0.0,0.0,0.0,0.0,0.0,0.0,0.0,11.7158,11.7267,11.7216,11.7235,11.7164,11.6333,11.4746,11.3206,11.2378,0.0,0.0,0.0,0.0,0.0,0.0,0.0,0.0,0.0,0.0,0.0,0.0,0.0,0.0,0.0,0.0,0.0,0.0,0.0,0.0,0.0,0.0,0.0,0.0,0.0,0.0,0.0,0.0,0.0,0.0,0.0,0.0,0.0,0.0,0.0,0.0,0.0,0.0,0.0,0.0,0.0,10.9879,10.9803,10.9809,10.9889,0.0,0.0,11.0065,11.0024,11.1391,11.2378,11.2378,0.0,0.0,0.0,0.0,0.0,0.0,0.0,0.0,0.0,0.0,0.0,0.0,0.0,0.0,0.0,0.0,0.0,0.0,0.0,0.0,0.0,0.0,0.0,0.0,0.0,0.0,0.0,0.0,0.0,0.0,0.0,0.0,0.0,0.0,0.0,0.0,0.0,0.0,0.0,0.0,0.0,0.0,0.0,0.0,0.0,0.0,0.0,0.0,0.0,0.0,0.0,0.0,0.0,0.0,11.5475,11.5479,11.5559,11.549,11.4385,11.3575,11.3133,11.1542,0.0,0.0,0.0,0.0,0.0,0.0,0.0,0.0,0.0,0.0,0.0,0.0,0.0,0.0,0.0,0.0,0.0,0.0,0.0,0.0,0.0,0.0,0.0,0.0,0.0,0.0,0.0,9.8649,0.0,0.0,0.0,0.0,0.0,0.0,0.0,0.0,0.0,0.0,0.0,0.0,0.0,0.0,10.9955,10.9955,11.0002,11.002,0.0,0.0,11.0022,11.0024,11.0404,11.0632,0.0,0.0,0.0,0.0,0.0,0.0,0.0,0.0,0.0,0.0,0.0,0.0,0.0,0.0,0.0,0.0,0.0,0.0,0.0,0.0,0.0,0.0,0.0,0.0,0.0,0.0,0.0,0.0,0.0,0.0,0.0,0.0,0.0,0.0,0.0,0.0,0.0,0.0,0.0,0.0,0.0,0.0,0.0,0.0,0.0,0.0,0.0,0.0,0.0,0.0,0.0,0.0,0.0,0.0,11.2258,11.3775,11.3848,11.3931,11.3871,11.2975,11.2224,11.1467,11.0556,11.0024,0.0,0.0,0.0,0.0,0.0,0.0,0.0,0.0,0.0,0.0,0.0,0.0,0.0,0.0,0.0,0.0,0.0,0.0,0.0,0.0,0.0,0.0,0.0,0.0,0.0,0.0,0.0,0.0,0.0,0.0,0.0,0.0,0.0,0.0,0.0,0.0,0.0,0.0,0.0,0.0,0.0,0.0,11.0078,11.002,0.0,0.0,0.0,11.0024,11.0024,0.0,0.0,0.0,0.0,0.0,0.0,0.0,0.0,0.0,0.0,0.0,0.0,0.0,0.0,0.0,0.0,0.0,0.0,0.0,0.0,0.0,0.0,0.0,0.0,0.0,0.0,0.0,0.0,0.0,0.0,0.0,0.0,0.0,0.0,0.0,0.0,0.0,0.0,0.0,0.0,0.0,0.0,0.0,0.0,0.0,0.0,0.0,0.0,0.0,0.0,0.0,0.0,0.0,0.0,0.0,0.0,0.0,11.2211,11.2286,11.2295,11.2302,11.2226,11.1543,11.01,11.0024,11.0024,0.0,0.0,0.0,0.0,0.0,0.0,0.0,0.0,0.0,0.0,0.0,0.0,0.0,0.0,0.0,0.0,0.0,0.0,0.0,0.0,0.0,0.0,0.0,0.0,0.0,0.0,0.0,0.0,0.0,0.0,0.0,0.0,0.0,0.0,0.0,0.0,0.0,0.0,0.0,0.0,0.0,11.0024,11.0024,11.0024,11.0024,0.0,0.0,11.0024,11.0024,11.0024,0.0,0.0,0.0,0.0,0.0,0.0,0.0,0.0,0.0,0.0,0.0,0.0,0.0,0.0,0.0,0.0,0.0,0.0,0.0,0.0,0.0,0.0,0.0,0.0,0.0,0.0,0.0,0.0,0.0,0.0,0.0,0.0,0.0,0.0,0.0,0.0,0.0,0.0,0.0,0.0,0.0,0.0,0.0,0.0,0.0,0.0,0.0,0.0,0.0,0.0,0.0,0.0,0.0,0.0,0.0,0.0,11.0555,11.0555,11.0555,11.0556,11.0556,11.0404,11.0024,11.0024,11.0024,0.0,0.0,0.0,0.0,0.0,0.0,0.0,0.0,0.0,0.0,0.0,0.0,0.0,0.0,0.0,0.0,0.0,0.0,0.0,0.0,0.0,0.0,0.0,0.0,0.0,0.0,0.0,0.0,0.0,0.0,0.0,0.0,0.0,0.0,0.0,0.0,0.0,0.0,0.0,0.0,0.0,11.0024,11.0024,11.0024,0.0,0.0,0.0,0.0,11.0024,11.0024,0.0,0.0,0.0,0.0,0.0,0.0,0.0,0.0,0.0,0.0,0.0,0.0,0.0,0.0,0.0,0.0,0.0,0.0,0.0,0.0,0.0,0.0,0.0,0.0,0.0,0.0,0.0,0.0,0.0,0.0,0.0,0.0,0.0,0.0,0.0,0.0,0.0,0.0,0.0,0.0,0.0,0.0,0.0,0.0,0.0,0.0,0.0,0.0,0.0,0.0,0.0,0.0,0.0,0.0,0.0,0.0,11.0024,11.0024,11.0024,11.0024,11.0024,11.0024,11.0024,11.0024,11.0024,0.0,0.0,0.0,0.0,0.0,0.0,0.0,0.0,0.0,0.0,0.0,0.0,0.0,0.0,0.0,0.0,0.0,0.0,0.0,0.0,0.0,0.0,0.0,0.0,0.0,0.0,0.0,0.0,0.0,0.0,0.0,0.0,0.0,0.0,0.0,0.0,0.0,0.0,0.0,0.0,11.0024,11.0024,11.0024,0.0,0.0,0.0,0.0,0.0,0.0,11.0024,11.0024,0.0,0.0,0.0,0.0,0.0,0.0,0.0,0.0,0.0,0.0,0.0,0.0,0.0,0.0,0.0,0.0,0.0,0.0,0.0,0.0,0.0,0.0,0.0,0.0,0.0,0.0,0.0,0.0,0.0,0.0,0.0,0.0,0.0,0.0,0.0,0.0,0.0,0.0,0.0,0.0,0.0,0.0,0.0,0.0,0.0,0.0,0.0,0.0,0.0,0.0,0.0,0.0,0.0,0.0,0.0,11.0024,11.0024,11.0024,11.0024,11.0024,11.0024,11.0024,11.0024,10.9873,10.9493,0.0,0.0,0.0,0.0,0.0,0.0,0.0,0.0,0.0,0.0,0.0,0.0,0.0,0.0,0.0,0.0,0.0,0.0,0.0,0.0,0.0,0.0,0.0,0.0,0.0,0.0,0.0,0.0,0.0,0.0,0.0,0.0,0.0,0.0,0.0,0.0,0.0,0.0,0.0,11.0024,11.0024,0.0,0.0,0.0,0.0,0.0,0.0,0.0,0.0,11.0024,0.0,0.0,0.0,0.0,0.0,0.0,0.0,0.0,0.0,0.0,0.0,0.0,0.0,0.0,0.0,0.0,0.0,0.0,0.0,0.0,0.0,0.0,0.0,0.0,0.0,0.0,0.0,0.0,0.0,0.0,0.0,0.0,0.0,0.0,0.0,0.0,0.0,0.0,0.0,0.0,0.0,0.0,0.0,0.0,0.0,0.0,0.0,0.0,0.0,0.0,0.0,0.0,0.0,0.0,0.0,0.0,11.0024,11.0024,11.0024,11.0024,11.0024,11.0024,11.0024,10.9341,10.7898,0.0,0.0,0.0,0.0,0.0,0.0,0.0,0.0,0.0,0.0,0.0,0.0,0.0,0.0,0.0,0.0,0.0,0.0,0.0,0.0,0.0,0.0,0.0,0.0,0.0,0.0,0.0,0.0,0.0,0.0,0.0,0.0,0.0,0.0,0.0,0.0,0.0,0.0,11.0024,11.0024,0.0,0.0,0.0,0.0,0.0,0.0,0.0,0.0,11.0024,0.0,0.0,0.0,0.0,0.0,0.0,0.0,0.0,0.0,0.0,0.0,0.0,0.0,0.0,0.0,0.0,0.0,0.0,0.0,0.0,0.0,0.0,0.0,0.0,0.0,0.0,0.0,0.0,0.0,0.0,0.0,0.0,0.0,0.0,0.0,0.0,0.0,0.0,0.0,0.0,0.0,0.0,0.0,0.0,0.0,0.0,0.0,0.0,0.0,0.0,0.0,0.0,0.0,0.0,0.0,0.0,0.0,0.0,11.0024,11.0024,11.0024,11.0024,11.0024,11.0024,10.8809,0.0,0.0,0.0,0.0,0.0,0.0,0.0,0.0,0.0,0.0,0.0,0.0,0.0,0.0,0.0,0.0,0.0,0.0,0.0,0.0,0.0,0.0,0.0,0.0,0.0,0.0,0.0,0.0,0.0,0.0,0.0,0.0,0.0,0.0,0.0,0.0,0.0,0.0,0.0,0.0,0.0,0.0,0.0,0.0,0.0,0.0,0.0,0.0,0.0,0.0,0.0,0.0,0.0,0.0,0.0,0.0,0.0,0.0,0.0,0.0,0.0,0.0,0.0,0.0,0.0,0.0,0.0,0.0,0.0,0.0,0.0,0.0,0.0,0.0,0.0,0.0,0.0,0.0,0.0,0.0,0.0,0.0,0.0,0.0,0.0,0.0,0.0,0.0,0.0,0.0,0.0,0.0,0.0,0.0,0.0,0.0,0.0,0.0,0.0,0.0,0.0,0.0,0.0,0.0,0.0,0.0,0.0,0.0,11.0024,11.0024,11.0024,11.0024,11.0024,10.9721,10.805,0.0,0.0,0.0,0.0,0.0,0.0,0.0,0.0,0.0,0.0,0.0,0.0,0.0,0.0,0.0,0.0,0.0,0.0,0.0,0.0,0.0,0.0,0.0,0.0,0.0,0.0,0.0,0.0,0.0,0.0,0.0,0.0,0.0,0.0,0.0,0.0,0.0,0.0,0.0,0.0,0.0,0.0,0.0,0.0,0.0,0.0,0.0,0.0,11.0024,0.0,0.0,0.0,0.0,0.0,0.0,0.0,0.0,0.0,0.0,0.0,0.0,0.0,0.0,0.0,0.0,0.0,0.0,0.0,0.0,0.0,0.0,0.0,0.0,0.0,0.0,0.0,0.0,0.0,0.0,0.0,0.0,0.0,0.0,0.0,0.0,0.0,0.0,0.0,0.0,0.0,0.0,0.0,0.0,0.0,0.0,0.0,0.0,0.0,0.0,0.0,0.0,0.0,0.0,0.0,0.0,0.0,0.0,0.0,11.0024,11.0024,11.0024,11.0024,11.0024,10.8582,10.6911,0.0,0.0,0.0,0.0,0.0,0.0,0.0,0.0,0.0,0.0,0.0,0.0,0.0,0.0,0.0,0.0,0.0,0.0,0.0,0.0,0.0,0.0,0.0,0.0,0.0,0.0,0.0,0.0,0.0,0.0,0.0,0.0,0.0,0.0,0.0,0.0,0.0,0.0,0.0,0.0,0.0,0.0,0.0,0.0,0.0,0.0,0.0,0.0,0.0,0.0,0.0,0.0,0.0,0.0,0.0,0.0,0.0,0.0,0.0,0.0,0.0,0.0,0.0,0.0,0.0,0.0,0.0,0.0,0.0,0.0,0.0,0.0,0.0,0.0,0.0,0.0,0.0,0.0,0.0,0.0,0.0,0.0,0.0,0.0,0.0,0.0,0.0,0.0,0.0,0.0,0.0,0.0,0.0,0.0,0.0,0.0,0.0,0.0,0.0,0.0,0.0,0.0,0.0,0.0,0.0,0.0,0.0,0.0,11.0024,11.0024,11.0024,11.0024,11.0024,10.8354,10.6683,0.0,0.0,0.0,0.0,0.0,0.0,0.0,0.0,0.0,0.0,0.0,0.0,0.0,0.0,0.0,0.0,0.0,0.0,0.0,0.0,0.0,0.0,0.0,0.0,0.0,0.0,0.0,0.0,0.0,0.0,0.0,0.0,0.0,0.0,0.0,0.0,0.0,0.0,0.0,0.0,0.0,0.0,0.0,0.0,0.0,0.0,0.0,0.0,0.0,0.0,0.0,0.0,0.0,0.0,0.0,0.0,0.0,0.0,0.0,0.0,0.0,0.0,0.0,0.0,0.0,0.0,0.0,0.0,0.0,0.0,0.0,0.0,0.0,0.0,0.0,0.0,0.0,0.0,0.0,0.0,0.0,0.0,0.0,0.0,0.0,0.0,0.0,0.0,0.0,0.0,0.0,0.0,0.0,0.0,0.0,0.0,0.0,0.0,0.0,0.0,0.0,0.0,0.0,0.0,0.0,0.0,0.0,0.0,0.0,11.0024,11.0024,11.0024,10.9948,10.7974,10.6228,0.0,0.0,0.0,0.0,0.0,0.0,0.0,0.0,0.0,0.0,0.0,0.0,0.0,0.0,0.0,0.0,0.0,0.0,0.0,0.0,0.0,0.0,0.0,0.0,0.0,0.0,0.0,0.0,0.0,0.0,0.0,0.0,0.0,0.0,0.0,0.0,0.0,0.0,0.0,0.0,0.0,0.0,0.0,0.0,0.0,0.0,0.0,0.0,0.0,0.0,0.0,0.0,0.0,0.0,0.0,0.0,0.0,0.0,0.0,0.0,0.0,0.0,0.0,0.0,0.0,0.0,0.0,0.0,0.0,0.0,0.0,0.0,0.0,0.0,0.0,0.0,0.0,0.0,0.0,0.0,0.0,0.0,0.0,0.0,0.0,0.0,0.0,0.0,0.0,0.0,0.0,0.0,0.0,0.0,0.0,0.0,0.0,0.0,0.0,0.0,0.0,0.0,0.0,0.0,0.0,0.0,0.0,0.0,0.0,11.0024,11.0024,11.0024,11.0024,10.6835,10.5089,0.0,0.0,0.0,0.0,0.0,0.0,0.0,0.0,0.0,0.0,0.0,0.0,0.0,0.0,0.0,0.0,0.0,0.0,0.0,0.0,0.0,0.0,0.0,0.0,0.0,0.0,0.0,0.0,0.0,0.0,0.0,0.0,0.0,0.0,0.0,0.0,0.0,0.0,0.0,0.0,0.0,0.0,0.0,0.0,0.0,0.0,0.0,0.0,0.0,0.0,0.0,0.0,0.0,0.0,0.0,0.0,0.0,0.0,0.0,0.0,0.0,0.0,0.0,0.0,0.0,0.0,0.0,0.0,0.0,0.0,0.0,0.0,0.0,0.0,0.0,0.0,0.0,0.0,0.0,0.0,0.0,0.0,0.0,0.0,0.0,0.0,0.0,0.0,0.0,0.0,0.0,0.0,0.0,0.0,0.0,0.0,0.0,0.0,0.0,0.0,0.0,0.0,0.0,0.0,0.0,0.0,0.0,0.0,0.0,11.0024,11.0024,11.0024,11.0024,10.6759,10.4937,10.4861,0.0,0.0,0.0,0.0,0.0,0.0,0.0,0.0,0.0,0.0,0.0,0.0,0.0,0.0,0.0,0.0,0.0,0.0,0.0,0.0,0.0,0.0,0.0,0.0,0.0,0.0,0.0,0.0,0.0,0.0,0.0,0.0,0.0,0.0,0.0,0.0,0.0,0.0,0.0,0.0,0.0,0.0,0.0,0.0,0.0,0.0,0.0,0.0,0.0,0.0,0.0,0.0,0.0,0.0,0.0,0.0,0.0,0.0,0.0,0.0,0.0,0.0,0.0,0.0,0.0,0.0,0.0,0.0,0.0,0.0,0.0,0.0,0.0,0.0,0.0,0.0,0.0,0.0,0.0,0.0,0.0,0.0,0.0,0.0,0.0,0.0,0.0,0.0,0.0,0.0,0.0,0.0,0.0,0.0,0.0,0.0,0.0,0.0,0.0,0.0,0.0,0.0,0.0,0.0,0.0,0.0,0.0,0.0,11.0024,11.0024,11.0024,10.9948,10.6759,10.4937,0.0,0.0,0.0,0.0,0.0,0.0,0.0,0.0,0.0,0.0,0.0,0.0,0.0,0.0,0.0,0.0,0.0,0.0,0.0,0.0,0.0,0.0,0.0,0.0,0.0,0.0,0.0,0.0,0.0,0.0,0.0,0.0,0.0,0.0,0.0,0.0,0.0,0.0,0.0,0.0,0.0,0.0,0.0,0.0,0.0,0.0,0.0,0.0,0.0,0.0,0.0,0.0,0.0,0.0,0.0,0.0,0.0,0.0,0.0,0.0,0.0,0.0,0.0,0.0,0.0,0.0,0.0,0.0,0.0,0.0,0.0,0.0,0.0,0.0,0.0,0.0,0.0,0.0,0.0,0.0,0.0,0.0,0.0,0.0,0.0,0.0,0.0,0.0,0.0,0.0,0.0,0.0,0.0,0.0,0.0,0.0,0.0,0.0,0.0,0.0,0.0,0.0,0.0,0.0,0.0,0.0,0.0,0.0,11.0024,11.0024,11.0024,11.0024,10.9948,10.6759,10.4937,0.0,0.0,0.0,0.0,0.0,0.0,0.0,0.0,0.0,0.0,0.0,0.0,0.0,0.0,0.0,0.0,0.0,0.0,0.0,0.0,0.0,0.0,0.0,0.0,0.0,0.0,0.0,0.0,0.0,0.0,0.0,0.0,0.0,0.0,0.0,0.0,0.0,0.0,0.0,0.0,0.0,0.0,0.0,0.0,0.0,0.0,0.0,0.0,0.0,0.0,0.0,0.0,0.0,0.0,0.0,0.0,0.0,0.0,0.0,0.0,0.0,0.0,0.0,0.0,0.0,0.0,0.0,0.0,0.0,0.0,0.0,0.0,0.0,0.0,0.0,0.0,0.0,0.0,0.0,0.0,0.0,0.0,0.0,0.0,0.0,0.0,0.0,0.0,0.0,0.0,0.0,0.0,0.0,0.0,0.0,0.0,0.0,0.0,0.0,0.0,0.0,0.0,0.0,0.0,0.0,0.0,0.0,0.0,0.0,11.0024,0.0,11.0024,0.0,10.6759,10.4937,0.0,0.0,0.0,0.0,0.0,0.0,0.0,0.0,0.0,0.0,0.0,0.0,0.0,0.0,0.0,0.0,0.0,0.0,0.0,0.0,0.0,0.0,0.0,0.0,0.0,0.0,0.0,0.0,0.0,0.0,0.0,0.0,0.0,0.0,0.0,0.0,0.0,0.0,0.0,0.0,0.0,0.0,0.0,0.0,0.0,0.0,0.0,0.0,0.0,0.0,0.0,0.0,0.0,0.0,0.0,0.0,0.0,0.0,0.0,0.0,0.0,0.0,0.0,0.0,0.0,0.0,0.0,0.0,0.0,0.0,0.0,0.0,0.0,0.0,0.0,0.0,0.0,0.0,0.0,0.0,0.0,0.0,0.0,0.0,0.0,0.0,0.0,0.0,0.0,0.0,0.0,0.0,0.0,0.0,0.0,0.0,0.0,0.0,0.0,0.0,0.0,0.0,0.0,0.0,0.0,0.0,0.0,0.0,0.0,11.0024,11.0024,11.0024,10.9948,10.6759,10.4937,0.0,0.0,0.0,0.0,0.0,0.0,0.0,0.0,0.0,0.0,0.0,0.0,0.0,0.0,0.0,0.0,0.0,0.0,0.0,0.0,0.0,0.0,0.0,0.0,0.0,0.0,0.0,0.0,0.0,0.0,0.0,0.0,0.0,0.0,0.0,0.0,0.0,0.0,0.0,0.0,0.0,0.0,0.0,0.0,0.0,0.0,0.0,0.0,0.0,0.0,0.0,0.0,0.0,0.0,0.0,0.0,0.0,0.0,0.0,0.0,0.0,0.0,0.0,0.0,0.0,0.0,0.0,0.0,0.0,0.0,0.0,0.0,0.0,0.0,0.0,0.0,0.0,0.0,0.0,0.0,0.0,0.0,0.0,0.0,0.0,0.0,0.0,0.0,0.0,0.0,0.0,0.0,0.0,0.0,0.0,0.0,0.0,0.0,0.0,0.0,0.0,0.0,0.0,0.0,0.0,0.0,0.0,0.0,0.0,0.0,11.0024,11.0024,10.9948,10.6683,10.4937,0.0,0.0,0.0,0.0,0.0,0.0,0.0,0.0,0.0,0.0,0.0,0.0,0.0,0.0,0.0,0.0,0.0,0.0,0.0,0.0,0.0,0.0,0.0,0.0,0.0,0.0,0.0,0.0,0.0,0.0,0.0,0.0,0.0,0.0,0.0,0.0,0.0,0.0,0.0,0.0,0.0,0.0,0.0,0.0,0.0,0.0,0.0,0.0,0.0,0.0,0.0,0.0,0.0,0.0,0.0,0.0,0.0,0.0,0.0,0.0,0.0,0.0,0.0,0.0,0.0,0.0,0.0,0.0,0.0,0.0,0.0,0.0,0.0,0.0,0.0,0.0,0.0,0.0,0.0,0.0,0.0,0.0,0.0,0.0,0.0,0.0,0.0,0.0,0.0,0.0,0.0,0.0,0.0,0.0,0.0,0.0,0.0,0.0,0.0,0.0,0.0,0.0,0.0,0.0,0.0,0.0,0.0,0.0,0.0,0.0,11.0024,0.0,10.9873,10.6759,10.4937,10.4937,0.0,0.0,0.0,0.0,0.0,0.0,0.0,0.0,0.0,0.0,0.0,0.0,0.0,0.0,0.0,0.0,0.0,0.0,0.0,0.0,0.0,0.0,0.0,0.0,0.0,0.0,0.0,0.0,0.0,0.0,0.0,0.0,0.0,0.0,0.0,0.0,0.0,0.0,0.0,0.0,0.0,0.0,0.0,0.0,0.0,0.0,0.0,0.0,0.0,0.0,0.0,0.0,0.0,0.0,0.0,0.0,0.0,0.0,0.0,0.0,0.0,0.0,0.0,0.0,0.0,0.0,0.0,0.0,0.0,0.0,0.0,0.0,0.0,0.0,0.0,0.0,0.0,0.0,0.0,0.0,0.0,0.0,0.0,0.0,0.0,0.0,0.0,0.0,0.0,0.0,0.0,0.0,0.0,0.0,0.0,0.0,0.0,0.0,0.0,0.0,0.0,0.0,0.0,0.0,0.0,0.0,0.0,0.0,0.0,0.0,11.0024,11.0024,10.805,10.638,0.0,0.0,0.0,0.0,0.0,0.0,0.0,0.0,0.0,0.0,0.0,0.0,0.0,0.0,0.0,0.0,0.0,0.0,0.0,0.0,0.0,0.0,0.0,0.0,0.0,0.0,0.0,0.0,0.0,0.0,0.0,0.0,0.0,0.0,0.0,0.0,0.0,0.0,0.0,0.0,0.0,0.0,0.0,0.0,0.0,0.0,0.0,0.0,0.0,0.0,0.0,0.0,0.0,0.0,0.0,0.0,0.0,0.0,0.0,0.0,0.0,0.0,0.0,0.0,0.0,0.0,0.0,0.0,0.0,0.0,0.0,0.0,0.0,0.0,0.0,0.0,0.0,0.0,0.0,0.0,0.0,0.0,0.0,0.0,0.0,0.0,0.0,0.0,0.0,0.0,0.0,0.0,0.0,0.0,0.0,0.0,0.0,0.0,0.0,0.0,0.0,0.0,0.0,0.0,0.0,0.0,0.0,0.0,0.0,0.0,0.0,11.0024,11.0024,10.9873,0.0,10.5089,0.0,0.0,0.0,0.0,0.0,0.0,0.0,0.0,0.0,0.0,0.0,0.0,0.0,0.0,0.0,0.0,0.0,0.0,0.0,0.0,0.0,0.0,0.0,0.0,0.0,0.0,0.0,0.0,0.0,0.0,0.0,0.0,0.0,0.0,0.0,0.0,0.0,0.0,0.0,0.0,0.0,0.0,0.0,0.0,0.0,0.0,0.0,0.0,0.0,0.0,0.0,0.0,0.0,0.0,0.0,0.0,0.0,0.0,0.0,0.0,0.0,0.0,0.0,0.0,0.0,0.0,0.0,0.0,0.0,0.0,0.0,0.0,0.0,0.0,0.0,0.0,0.0,0.0,0.0,0.0,0.0,0.0,0.0,0.0,0.0,0.0,0.0,0.0,0.0,0.0,0.0,0.0,0.0,0.0,0.0,0.0,0.0,0.0,0.0,0.0,0.0,0.0,0.0,0.0,0.0,0.0,0.0,0.0,0.0,0.0,0.0,0.0,10.8734,10.7063,10.5013,0.0,0.0,0.0,0.0,0.0,0.0,0.0,0.0,0.0,0.0,0.0,0.0,0.0,0.0,0.0,0.0,0.0,0.0,0.0,0.0,0.0,0.0,0.0,0.0,0.0,0.0,0.0,0.0,0.0,0.0,0.0,0.0,0.0,0.0,0.0,0.0,0.0,0.0,0.0,0.0,0.0,0.0,0.0,0.0,0.0,0.0,0.0,0.0,0.0,0.0,0.0,0.0,0.0,0.0,0.0,0.0,0.0,0.0,0.0,0.0,0.0,0.0,0.0,0.0,0.0,0.0,0.0,0.0,0.0,0.0,0.0,0.0,0.0,0.0,0.0,0.0,0.0,0.0,0.0,0.0,0.0,0.0,0.0,0.0,0.0,0.0,0.0,0.0,0.0,0.0,0.0,0.0,0.0,0.0,0.0,0.0,0.0,0.0,0.0,0.0,0.0,0.0,0.0,0.0,0.0,0.0,0.0,0.0,0.0,0.0,11.0024,11.0024,10.8354,10.6683,10.5013,0.0,0.0,0.0,0.0,0.0,0.0,0.0,0.0,0.0,0.0,0.0,0.0,0.0,0.0,0.0,0.0,0.0,0.0,0.0,0.0,0.0,0.0,0.0,0.0,0.0,0.0,0.0,0.0,0.0,0.0,0.0,0.0,0.0,0.0,0.0,0.0,0.0,0.0,0.0,0.0,0.0,0.0,0.0,0.0,0.0,0.0,0.0,0.0,0.0,0.0,0.0,0.0,0.0,0.0,0.0,0.0,0.0,0.0,0.0,0.0,0.0,0.0,0.0,0.0,0.0,0.0,0.0,0.0,0.0,0.0,0.0,0.0,0.0,0.0,0.0,0.0,0.0,0.0,0.0,0.0,0.0,0.0,0.0,0.0,0.0,0.0,0.0,0.0,0.0,0.0,0.0,0.0,0.0,0.0,0.0,0.0,0.0,0.0,0.0,0.0,0.0,0.0,0.0,0.0,0.0,0.0,0.0,0.0,0.0,0.0,0.0,0.0,0.0,0.0,10.4633,0.0,0.0,0.0,0.0,0.0,0.0,0.0,0.0,0.0,0.0,0.0,0.0,0.0,0.0,0.0,0.0,0.0,0.0,0.0,0.0,0.0,0.0,0.0,0.0,0.0,0.0,0.0,0.0,0.0,0.0,0.0,0.0,0.0,0.0,0.0,0.0,0.0,0.0,0.0,0.0,0.0,0.0,0.0,0.0,0.0,0.0,0.0,0.0,0.0,0.0,0.0,0.0,0.0,0.0,0.0,0.0,0.0,0.0,0.0,0.0,0.0,0.0,0.0,0.0,0.0,0.0,0.0,0.0,0.0,0.0,0.0,0.0,0.0,0.0,0.0,0.0,0.0,0.0,0.0,0.0,0.0,0.0,0.0,0.0,0.0,0.0,0.0,0.0,0.0,0.0,0.0,0.0,0.0,0.0,0.0,0.0,0.0,0.0,0.0,0.0,0.0,0.0,0.0,0.0,0.0,0.0,0.0,0.0,0.0,0.0,0.0,0.0,0.0,0.0,0.0,0.0,0.0,0.0,0.0,0.0,0.0,0.0,0.0,0.0,0.0,0.0,0.0,0.0,0.0,0.0,0.0,0.0,0.0,0.0,0.0,0.0,0.0,0.0,0.0,0.0,0.0,0.0,0.0,0.0,0.0,0.0,0.0,0.0,0.0,0.0,0.0,0.0,0.0,0.0,0.0,0.0,0.0,0.0,0.0,0.0,0.0,0.0,0.0,0.0,0.0,0.0,0.0,0.0,0.0,0.0,0.0,0.0,0.0,0.0,0.0,0.0,0.0,0.0,0.0,0.0,0.0,0.0,0.0,0.0,0.0,0.0,0.0,0.0,0.0,0.0,0.0,0.0,0.0,0.0,0.0,0.0,0.0,0.0,0.0,0.0,0.0,0.0,0.0,0.0,0.0,0.0,0.0,0.0,0.0,0.0,0.0,0.0,0.0,0.0,0.0,0.0,0.0,0.0,0.0,0.0,0.0,0.0,0.0,0.0,0.0,0.0,0.0,0.0,0.0,0.0,0.0,0.0,0.0,0.0,0.0,0.0,0.0,0.0,0.0,0.0,0.0,0.0,0.0,0.0,0.0,0.0,0.0,0.0,0.0,0.0,0.0,0.0,0.0,0.0,0.0,0.0,0.0,0.0,0.0,0.0,0.0,0.0,0.0,0.0,0.0,0.0,0.0,0.0,0.0,0.0,0.0,0.0,0.0,0.0,0.0,0.0,0.0,0.0,0.0,0.0,0.0,0.0,0.0,0.0,0.0,0.0,0.0,0.0,0.0,0.0,0.0,0.0,0.0,0.0,0.0,0.0,0.0,0.0,0.0,0.0,0.0,0.0,0.0,0.0,0.0,0.0,0.0,0.0,0.0,0.0,0.0,0.0,0.0,0.0,0.0,0.0,0.0,0.0,0.0,0.0,0.0,0.0,0.0,0.0,0.0,0.0,0.0,0.0,0.0,0.0,0.0,0.0,0.0,0.0,0.0,0.0,0.0,0.0,0.0,0.0,0.0,0.0,0.0,0.0,0.0,0.0,0.0,0.0,0.0,0.0,0.0,0.0,0.0,0.0,0.0,0.0,0.0,0.0,0.0,0.0,0.0,0.0,0.0,0.0,0.0,0.0,0.0,0.0,0.0,0.0,0.0,0.0,0.0,0.0,0.0,0.0,0.0,0.0,0.0,0.0,0.0,0.0,0.0,0.0,0.0,0.0,0.0,0.0,0.0,0.0,0.0,0.0,0.0,0.0,0.0,0.0,0.0,0.0,0.0,0.0,0.0,0.0,0.0,0.0,0.0,0.0,0.0,0.0,0.0,0.0,0.0,0.0,0.0,0.0,0.0,0.0,0.0,0.0,0.0,0.0,0.0,0.0,0.0,0.0,0.0,0.0,0.0,0.0,0.0,0.0,0.0,0.0,0.0,0.0,0.0,0.0,0.0,0.0,0.0,0.0,0.0,0.0,0.0,0.0,0.0,0.0,0.0,0.0,0.0,0.0,0.0,0.0,0.0,0.0,0.0,0.0,0.0,0.0,0.0,0.0,0.0,0.0,0.0,0.0,0.0,0.0,0.0,0.0,0.0,0.0,0.0,0.0,0.0,0.0,0.0,0.0,0.0,0.0,0.0,0.0,0.0,0.0,0.0,0.0,0.0,0.0,0.0,0.0,0.0,0.0,0.0,0.0,0.0,0.0,0.0,0.0,0.0,0.0,0.0,0.0,0.0,0.0,0.0,0.0,0.0,0.0,0.0,0.0,0.0,0.0,0.0,0.0,0.0,0.0,0.0,0.0,0.0,0.0,0.0,0.0,0.0,0.0,0.0,0.0,0.0,0.0,0.0,0.0,0.0,0.0,0.0,0.0,0.0,0.0,0.0,0.0,0.0,0.0,0.0,0.0,0.0,0.0,0.0,0.0,0.0,0.0,0.0,0.0,0.0,0.0,0.0,0.0,0.0,0.0,0.0,0.0,0.0,0.0,0.0,0.0,0.0,0.0,0.0,0.0,0.0,0.0,0.0,0.0,0.0,0.0,0.0,0.0,0.0,0.0,0.0,0.0,0.0,0.0,0.0,0.0,0.0,0.0,0.0,0.0,0.0,0.0,0.0,0.0,0.0,0.0,0.0,0.0,0.0,0.0,0.0,0.0,0.0,0.0,0.0,0.0,0.0,0.0,0.0,0.0,0.0,0.0,0.0,0.0,0.0,0.0,0.0,0.0,0.0,0.0,0.0,0.0,0.0,0.0,0.0,0.0,0.0,0.0,0.0,0.0,0.0,0.0,0.0,0.0,0.0,0.0,0.0,0.0,0.0,0.0,0.0,0.0,0.0,0.0,0.0,0.0,0.0,0.0,0.0,0.0,0.0,0.0,0.0,0.0,0.0,0.0,0.0,0.0,0.0,0.0,0.0,0.0,0.0,0.0,0.0,0.0,0.0,0.0,0.0,0.0,0.0,0.0,0.0,0.0,0.0,0.0,0.0,0.0,0.0,0.0,0.0,0.0,0.0,0.0,0.0,0.0,0.0,0.0,0.0,0.0,0.0,0.0,0.0,0.0,0.0,0.0,0.0,0.0,0.0,0.0,0.0,0.0,0.0,0.0,0.0,0.0,0.0,0.0,0.0,0.0,0.0,0.0,0.0,0.0,0.0,0.0,0.0,0.0,0.0,0.0,0.0,0.0,0.0,0.0,0.0,0.0,0.0,0.0,0.0,0.0,0.0,0.0,0.0,0.0,0.0,0.0,0.0,0.0,0.0,0.0,0.0,0.0,0.0,0.0,0.0,0.0,0.0,0.0,0.0,0.0,0.0,0.0,0.0,0.0,0.0,0.0,0.0,0.0,0.0,0.0,0.0,0.0,0.0,0.0,0.0,0.0,0.0,0.0,0.0,0.0,0.0,0.0,0.0,0.0,0.0,0.0,0.0,0.0,0.0,0.0,0.0,0.0,0.0,0.0,0.0,0.0,0.0,0.0,0.0,0.0,0.0,0.0,0.0,0.0,0.0,0.0,0.0,0.0,0.0,0.0,0.0,0.0,0.0,0.0,0.0,0.0,0.0,0.0,0.0,0.0,0.0,0.0,0.0,0.0,0.0,0.0,0.0,0.0,0.0,0.0,0.0,0.0,0.0,0.0,0.0,0.0,0.0,0.0,0.0,0.0,0.0,0.0,0.0,0.0,0.0,0.0,0.0,0.0,0.0,0.0,0.0,0.0,0.0,0.0,0.0,0.0,0.0,0.0,0.0,0.0,0.0,0.0,0.0,0.0,0.0,0.0,0.0,0.0,0.0,0.0,0.0,0.0,0.0,0.0,0.0,0.0,0.0,0.0,0.0,0.0,0.0,0.0,0.0,0.0,0.0,0.0,0.0,0.0,0.0,0.0,0.0,0.0,0.0,0.0,0.0,0.0,0.0,0.0,0.0,0.0,0.0,0.0,0.0,0.0,0.0,0.0,0.0,0.0,0.0,0.0,0.0,0.0,0.0,0.0,0.0,0.0,0.0,0.0,0.0,0.0,0.0,0.0,0.0,0.0,0.0,0.0,0.0,0.0,0.0,0.0,0.0,0.0,0.0,0.0,0.0,0.0,0.0,0.0,0.0,0.0,0.0,0.0,0.0,0.0,0.0,0.0,0.0,0.0,0.0,0.0,0.0,0.0,0.0,0.0,0.0,0.0,0.0,0.0,0.0,0.0,0.0,0.0,0.0,0.0,0.0,0.0,0.0,0.0,0.0,0.0,0.0,0.0,0.0,0.0,0.0,0.0,0.0,0.0,0.0,0.0,0.0,0.0,0.0,0.0,0.0,0.0,0.0,0.0,0.0,0.0,0.0,0.0,0.0,0.0,0.0,0.0,0.0,0.0,0.0,0.0,0.0,0.0,0.0,0.0]}],[{"header":{"parameterUnit":"kt","parameterCategory":2,"dx":1,"dy":1,"la1":29.587661999999998,"la2":31.0,"lo1":-88.76705300000003,"lo2":-86.6583820000003,"nx":115,"ny":88,"refTime":"2022-10-16T06:00:00:Z","depth":0,"parameterNumber":2,"parameterNumberName":"V-component_of_WINDS"},"data":[6.1644,6.1644,6.1644,6.1644,6.1644,6.1644,6.1644,6.1644,6.1644,6.1644,6.1644,6.1644,6.1644,6.1644,6.1644,6.1644,6.1644,6.1644,6.1644,6.1644,6.1748,6.1696,6.1826,6.2216,6.258,6.284,6.3022,6.315,6.3232,6.37,6.4038,6.422,6.4639,6.4771,6.4823,6.4902,6.4902,6.4902,6.4902,6.4902,6.4902,6.4902,6.4902,6.4902,6.4902,6.4902,6.4902,6.4902,6.4902,6.4902,6.4876,6.4799,6.4617,6.4356,6.4048,6.3814,6.3298,6.2705,6.2404,6.2226,6.2212,6.2119,6.2166,6.2097,6.2076,6.2006,6.1345,6.1081,6.1625,6.1866,6.1938,6.1937,6.1944,6.1944,6.1922,6.1932,6.1182,6.1953,6.242,6.1039,5.9891,5.9316,5.8476,5.821,5.7604,5.5885,5.5774,5.6515,5.6032,5.4456,5.2666,5.2025,5.1238,4.8566,4.6157,4.5944,4.4552,4.4287,4.3534,4.2374,4.1658,4.1534,4.1166,4.0758,3.941,3.7684,3.732,3.7001,3.5833,3.5015,3.3609,3.3049,3.3322,3.3302,3.3486,6.1644,6.1644,6.1644,6.1644,6.1644,6.1644,6.1644,6.1644,6.1644,6.1644,6.1644,6.1644,6.1644,6.1644,6.1644,6.1644,6.1644,6.1644,6.1644,6.1644,6.1644,6.1644,6.167,6.1722,6.1904,6.2115,6.2377,6.2507,6.2559,6.3128,6.3622,6.4114,6.4324,6.4482,6.4771,6.4876,6.4902,6.4876,6.4902,6.4902,6.4876,6.4902,6.4902,6.4902,6.4902,6.4902,6.4902,6.4902,6.4902,6.4902,6.4876,6.4594,6.4259,6.3944,6.3442,6.2716,6.2203,6.2018,6.1723,6.1631,6.1639,6.1626,6.1638,6.1687,6.169,6.1227,6.025,6.0229,6.0986,6.1335,6.1358,6.1365,6.1365,6.1391,6.1373,6.138,5.982,5.8745,5.7995,5.69,5.6468,5.6394,5.6055,5.6003,5.4462,5.1962,5.1514,5.2437,5.2535,5.0588,4.8923,4.8016,4.672,4.5539,4.3994,4.2357,4.0163,4.0205,4.0909,3.992,3.9202,3.9336,3.9108,3.8306,3.6796,3.5063,3.4432,3.4936,3.4347,3.3594,3.3045,3.3043,3.3111,3.3125,3.3233,6.1644,6.1644,6.1644,6.1644,6.1644,6.1644,6.1644,6.1644,6.1644,6.1644,6.1644,6.1644,6.1644,6.1644,6.1644,6.1644,6.1644,6.1644,6.1644,6.1644,6.1644,6.1644,6.1644,6.167,6.1644,6.1644,6.1907,6.2037,6.2089,6.2557,6.2895,6.3154,6.362,6.3934,6.438,6.4484,6.4587,6.4875,6.4902,6.4719,6.4458,6.4745,6.4902,6.4902,6.4902,6.4902,6.4902,6.4902,6.4902,6.4878,6.4703,6.432,6.3734,6.3287,6.2583,6.1862,6.1503,6.1631,6.1626,6.1641,6.163,6.1633,6.1627,6.1425,6.1419,5.9022,5.8095,5.8049,5.88,5.8966,5.9012,5.9036,5.9036,5.9012,5.9016,5.9017,5.7949,5.683,5.6126,5.52,5.4843,5.446,5.2985,5.2882,5.1753,4.925,4.6846,4.7461,4.7371,4.6228,4.4989,4.3725,4.1789,4.0401,4.0572,3.9104,3.6931,3.7237,3.8153,3.767,3.7469,3.7368,3.6715,3.5153,3.3664,3.2456,3.2731,3.3425,3.3088,3.2782,3.2833,3.2908,3.3034,3.3061,3.3073,6.1644,6.1644,6.1644,6.1644,6.1644,6.1644,6.1644,6.1644,6.1644,6.1644,6.1644,6.1644,6.1644,6.1644,6.1644,6.1644,6.1644,6.1644,6.1644,6.1644,6.1644,6.1644,6.1644,6.1644,6.1644,6.1644,6.1644,6.1722,6.1777,6.1988,6.2273,6.2507,6.2819,6.3388,6.3908,6.396,6.4066,6.4228,6.3797,6.3089,6.2933,6.3484,6.3811,6.3713,6.3819,6.3647,6.3697,6.3795,6.3868,6.3915,6.3888,6.3532,6.2976,6.2125,6.147,6.0976,6.0626,6.1034,6.1309,6.1635,6.1633,6.1659,6.1589,6.1361,5.9985,5.726,5.5794,5.5771,5.5818,5.5888,5.5935,5.5935,5.5982,5.5958,5.5935,5.5935,5.5865,5.5446,5.5119,5.4532,5.4014,5.244,5.0327,4.9235,4.8437,4.6736,4.4405,4.3555,4.4016,4.2768,4.1581,4.0307,3.7983,3.7336,3.7454,3.6626,3.5014,3.4937,3.522,3.5521,3.58,3.5118,3.4174,3.2395,3.1663,3.1785,3.202,3.2397,3.2515,3.2361,3.2339,3.2217,3.2355,3.26,3.2719,6.1644,6.1644,6.1644,6.1644,6.1644,6.1644,6.1644,6.1644,6.1644,6.1644,6.1644,6.1644,6.1644,6.1644,6.1644,6.1644,6.1644,6.1644,6.1644,6.1644,6.1644,6.1644,6.1644,6.1644,6.1644,6.1644,6.1644,6.1644,6.1621,6.1751,6.2014,6.2406,6.2388,6.2581,6.2976,6.303,6.2793,6.2733,6.1873,6.1255,6.1013,6.0798,6.0631,6.0948,6.1271,6.152,6.1521,6.1448,6.1328,6.1178,6.1004,6.0729,6.0552,6.0197,5.9508,5.9044,5.8822,5.9446,6.024,6.0543,6.0851,6.1062,6.1533,6.0242,5.879,5.6558,5.4701,5.4237,5.3981,5.3957,5.3909,5.3909,5.393,5.3952,5.3929,5.3952,5.3928,5.3832,5.315,5.1885,5.1199,4.9763,4.7744,4.6675,4.6,4.4377,4.2893,4.278,4.2025,3.9749,3.8536,3.7485,3.6389,3.5965,3.5676,3.4573,3.3004,3.2378,3.2274,3.2608,3.3567,3.286,3.1665,3.1566,3.1492,3.1421,3.1413,3.1575,3.1777,3.1795,3.1787,3.1606,3.1666,3.1931,3.2111,6.1644,6.1644,6.1644,6.1644,6.1644,6.1644,6.1644,6.1644,6.1644,6.1644,6.1644,6.1644,6.1644,6.1644,6.1644,6.1644,6.1644,6.1644,6.1644,6.1644,6.1644,6.1644,6.1644,6.1644,6.1644,6.1644,6.1644,6.1644,6.1644,6.167,6.1647,6.1843,6.1144,6.141,6.1461,6.126,6.0873,6.0303,5.9999,5.9912,6.0016,6.0214,6.0218,6.0438,6.0513,6.0637,6.0662,6.0686,6.0638,6.0516,5.8093,5.8069,5.9558,5.9127,5.8452,5.6914,5.6769,5.7397,5.8119,5.8282,5.8072,5.7911,5.7773,5.7369,5.6437,5.5323,5.366,5.2273,5.2129,5.1938,5.1933,5.202,5.2083,5.203,5.2005,5.2027,5.1976,5.1949,5.0822,4.9323,4.8024,4.6742,4.5461,4.4458,4.322,4.1498,4.0615,4.0427,3.8854,3.6703,3.546,3.4911,3.4607,3.4439,3.3383,3.2416,3.1958,3.1754,3.133,3.133,3.1357,3.1407,3.1469,3.1421,3.1335,3.1339,3.1361,3.1325,3.1316,3.14,3.1453,3.141,3.1483,3.1626,3.1661,6.1644,6.1644,6.1644,6.1644,6.1644,6.1644,6.1644,6.1644,6.1644,6.1644,6.1644,6.1644,6.1644,6.1644,6.1644,6.1644,6.1644,6.1644,6.1644,6.1644,6.1644,6.1644,6.1644,6.1644,6.1644,6.1644,6.1644,6.1644,6.1621,6.1644,6.1598,6.1041,6.0147,5.9927,5.9572,5.8689,5.7673,5.6945,5.6971,5.6902,5.7163,5.7259,5.7402,5.7497,5.7545,5.7688,5.7711,5.7807,5.7855,5.7855,5.5859,5.5366,5.7609,5.7632,5.6831,5.5073,5.4771,5.5026,5.5512,5.5649,5.5855,5.6086,5.3891,5.3776,5.3844,5.295,5.1005,4.9649,4.8903,4.7699,4.7184,4.913,5.0645,4.9718,4.8563,4.8338,4.7837,4.7848,4.771,4.6391,4.5817,4.4345,4.2011,4.114,4.0847,3.8717,3.736,3.6864,3.564,3.3726,3.2512,3.2491,3.2384,3.2712,3.1754,3.1572,3.1429,3.1322,3.1322,3.1322,3.1322,3.1322,3.1335,3.1335,3.1335,3.1335,3.1335,3.1337,3.133,3.1326,3.1313,3.1324,3.1335,3.1388,3.1425,6.1644,6.1644,6.1644,6.1644,6.1644,6.1644,6.1644,6.1644,6.1644,6.1644,6.1644,6.1644,6.1644,6.1644,6.1644,6.1644,6.1644,6.1644,6.1644,6.1644,6.1644,6.1644,6.1644,6.1644,6.1644,6.1644,6.1621,6.1552,6.1526,6.1367,6.0836,6.0071,5.9075,5.8359,5.7337,5.6078,5.4604,5.4207,5.4205,5.4298,5.4391,5.3967,5.427,5.4431,5.4542,5.4678,5.4677,5.4628,5.4414,5.4018,5.3393,5.3146,5.3572,5.4743,5.4111,5.3392,5.2845,5.352,5.4145,5.4166,5.4279,5.2333,4.9732,4.9728,4.971,4.9012,4.7404,4.624,4.5765,4.4138,4.2979,4.5674,4.8275,4.7149,4.5479,4.494,4.4307,4.3765,4.3796,4.347,4.2889,4.191,3.9658,3.8741,3.8758,3.7129,3.6255,3.5346,3.3532,3.1513,3.1428,3.1323,3.1328,3.1306,3.1346,3.1418,3.1322,3.1322,3.1335,3.1335,3.1335,3.1335,3.1335,3.1335,3.1335,3.1335,3.1335,3.1335,3.1298,3.1335,3.1324,3.1335,3.1335,3.1335,3.1335,6.1644,6.1644,6.1644,6.1644,6.1644,6.1644,6.1644,6.1644,6.1644,6.1644,6.1644,6.1644,6.1644,6.1644,6.1644,6.1644,6.1644,6.1644,6.1644,6.1644,6.1644,6.1644,6.1644,6.1644,6.1598,6.1644,6.1575,6.1136,6.0603,6.058,6.0002,5.9075,5.8101,5.6703,5.4863,5.3907,5.2666,5.2294,5.1991,5.2152,5.2221,5.2382,5.2429,5.2472,5.2605,5.2739,5.2881,5.2976,5.3024,5.2861,5.2562,5.2334,5.2545,5.2967,5.2624,5.203,5.1258,5.0302,5.0131,5.01,4.9,4.7507,4.4714,4.5024,4.6951,4.5342,4.3772,4.3061,4.2898,4.0941,3.9065,4.1553,4.3313,4.3639,4.2564,4.2536,4.1799,4.019,3.988,3.9699,3.9263,3.8941,3.7992,3.7457,3.6516,3.585,3.5187,3.3498,3.1708,3.1407,3.135,3.1321,3.1316,3.1321,3.1326,3.1326,3.1339,3.1308,3.1335,3.1335,3.1308,3.1326,3.1319,3.1335,3.1335,3.1335,3.1335,3.1273,3.1199,3.1199,3.1273,3.1311,3.1335,3.1335,3.1335,6.1644,6.1644,6.1644,6.1644,6.1644,6.1644,6.1644,6.1644,6.1644,6.1644,6.1644,6.1644,6.1644,6.1644,6.1644,6.1644,6.1644,6.1644,6.1644,6.1644,6.1644,6.1621,6.1644,6.1598,6.1411,6.1229,6.1021,6.0464,5.9488,5.9539,5.8934,5.8007,5.6938,5.4817,5.2425,5.0847,5.0475,5.0265,5.024,5.0218,5.017,5.0204,5.0198,5.0196,5.0272,5.0308,5.0282,5.0164,5.0164,5.0096,4.9464,4.9564,5.0056,5.0452,5.0138,4.9532,4.8439,4.7066,4.6285,4.4917,4.3639,4.2599,4.1683,4.2745,4.4361,4.2291,4.1246,4.0689,3.9923,3.8228,3.6117,3.8396,3.9255,3.9502,3.9623,3.9612,3.9183,3.7559,3.647,3.6439,3.6784,3.6774,3.6218,3.55,3.4015,3.3057,3.2446,3.0996,3.0714,3.079,3.0991,3.1012,3.1164,3.1233,3.1332,3.1331,3.1328,3.1259,3.1268,3.1193,3.1257,3.1324,3.1326,3.1329,3.1326,3.1335,3.1335,3.1298,3.1175,3.1076,3.1212,3.1287,3.1308,3.1319,3.133,6.1566,6.1618,6.1592,6.1497,6.1163,6.1451,6.1359,6.11,6.1195,6.129,6.1388,6.146,6.1483,6.1644,6.1644,6.1644,6.1644,6.1506,6.1436,6.1197,6.0984,6.1218,6.1192,6.0881,6.0242,6.0062,5.9728,5.9212,5.8344,5.8059,5.7555,5.6652,5.4933,5.2988,4.9864,4.7806,4.6381,4.5552,4.5635,4.5744,4.5932,4.6283,4.6449,4.6591,4.6854,4.7057,4.71,4.7116,4.722,4.7085,4.6435,4.6427,4.6899,4.7247,4.6982,4.61,4.4711,4.3866,4.3569,4.1997,4.1036,4.0269,3.9738,4.031,4.0833,4.0806,3.9985,3.8638,3.7408,3.594,3.5546,3.5691,3.5982,3.6244,3.6429,3.6425,3.6216,3.5223,3.4471,3.4077,3.4727,3.5064,3.4192,3.327,3.1604,3.0661,2.9849,2.9599,2.9758,2.9974,3.0272,3.0458,3.075,3.0758,3.074,3.1023,3.1168,3.1188,3.1077,3.0863,3.0869,3.0817,3.1002,3.1328,3.1275,3.1161,3.1222,3.1269,3.0724,3.0292,3.07,3.1238,3.128,3.1315,3.1329,6.0588,6.0906,6.0952,5.9944,5.8428,5.8312,5.8564,5.884,5.8936,5.939,6.051,6.0582,6.0929,6.1506,6.1572,6.15,6.122,6.0757,6.0577,6.0147,5.9525,5.8915,5.8764,5.8637,5.8534,5.8042,5.7815,5.7389,5.6388,5.5812,5.4897,5.35,5.1733,4.992,4.7425,4.5878,4.468,4.4176,4.3803,4.3364,4.3326,4.3519,4.3575,4.3655,4.3924,4.407,4.4145,4.4291,4.4403,4.4229,4.4027,4.3896,4.3957,4.3984,4.3694,4.2632,4.1328,4.0033,3.9496,3.8356,3.7189,3.7589,3.7493,3.7409,3.7109,3.7058,3.7572,3.6692,3.6108,3.5408,3.5431,3.4923,3.4749,3.4355,3.4439,3.4295,3.3977,3.3215,3.2485,3.2028,3.1585,3.1701,3.1235,3.1294,3.0232,3.0023,2.9537,2.9537,2.955,2.9662,2.9853,3.0082,3.0324,3.0216,3.0107,3.0243,3.0387,3.0421,3.0431,3.0297,3.0253,3.0032,3.0086,3.0847,3.1147,3.1022,3.0882,3.0727,3.0222,2.9672,3.0317,3.1072,3.1105,3.1055,3.1121,5.8965,5.9197,5.8993,5.8187,5.6957,5.6957,5.7132,5.7404,5.7428,5.8039,5.884,5.9114,5.9661,6.0129,6.0288,6.0109,5.9992,5.922,5.8931,5.8463,5.8062,5.7521,5.7354,5.7202,5.6458,5.6034,5.5852,5.5377,5.4107,5.3496,5.2107,4.9892,4.788,4.6154,4.4902,4.3438,4.2362,4.1809,4.1141,4.0884,4.0943,4.1014,4.114,4.1199,4.1447,4.1603,4.161,4.1843,4.1938,4.1902,4.17,4.161,4.1614,4.1361,4.1091,4.0555,3.8574,3.7537,3.7014,3.6324,3.539,3.5352,3.5325,3.5509,3.5802,3.5516,3.5394,3.5301,3.5387,3.3893,3.354,3.301,3.3402,3.319,3.294,3.2766,3.2195,3.1192,3.048,3.0768,3.0068,2.9545,2.9536,2.9539,2.9549,2.9548,2.9545,2.9535,2.9536,2.9615,2.9667,2.9812,2.9875,2.9802,2.9779,2.9692,2.9582,2.9625,2.9682,2.9759,2.9835,2.9597,2.9823,3.0558,3.108,3.0855,3.0617,3.0278,2.9992,2.9681,3.007,3.0695,3.0775,3.0741,3.0733,5.6698,5.6426,5.589,5.5872,5.6199,5.645,5.6338,5.6003,5.6253,5.6257,5.6386,5.718,5.7787,5.8306,5.8217,5.7972,5.7742,5.7134,5.6951,5.6832,5.6592,5.6048,5.566,5.5408,5.5135,5.3985,5.3665,5.2695,5.1448,5.0658,4.8232,4.5669,4.4645,4.2868,4.1608,4.1105,4.025,3.9072,3.8125,3.7978,3.7841,3.7999,3.819,3.8343,3.8712,3.9018,3.8995,3.8857,3.8814,3.8767,3.8604,3.856,3.8417,3.8162,3.7978,3.7537,3.601,3.5073,3.4558,3.4235,3.4629,3.4847,3.4601,3.4069,3.3514,3.433,3.4921,3.4608,3.3594,3.2358,3.0615,2.9256,3.0475,3.0729,3.1065,3.1016,3.0676,2.9661,2.9651,2.9564,2.9532,2.9532,2.9555,2.9546,2.9535,2.9545,2.9532,2.9532,2.9548,2.9539,2.9552,2.9529,2.9542,2.9542,2.9552,2.9546,2.9539,2.9542,2.9529,2.9533,2.9536,2.9687,2.9779,3.0378,3.0534,3.0545,3.0447,3.0079,2.9769,2.9614,2.963,2.9937,3.0086,3.0205,3.0258,5.4109,5.1577,5.1418,5.144,5.1555,5.1555,5.1828,5.2126,5.2239,5.2423,5.3016,5.4452,5.5958,5.6985,5.7004,5.6724,5.6903,5.6308,5.5626,5.4644,5.3777,5.2959,5.2529,5.1939,5.1512,5.0887,5.091,4.9949,4.8493,4.6835,4.4815,4.2388,4.2009,4.0841,3.9535,3.8904,3.8407,3.7001,3.5784,3.4878,3.4371,3.4312,3.4297,3.4335,3.4426,3.4654,3.4684,3.4953,3.5128,3.5137,3.5124,3.5193,3.507,3.4915,3.47,3.4456,3.3872,3.2753,3.1899,3.1515,3.1037,3.1024,3.0991,3.111,3.0357,2.9759,3.0176,3.241,3.1312,3.0182,2.9353,2.9322,2.9385,2.9361,2.9495,2.9542,2.9557,2.9589,2.9579,2.9547,2.9538,2.9551,2.954,2.9547,2.9528,2.9541,2.9532,2.9532,2.9545,2.9545,2.9535,2.9535,2.9548,2.9548,2.9535,2.9558,2.9545,2.9539,2.9539,2.9535,2.9539,2.965,2.9739,2.9713,2.9791,2.9891,3.0083,2.9802,2.9548,2.9549,2.9536,2.9526,2.9562,2.9624,2.9743,5.1056,4.9085,4.8686,4.8508,4.8508,4.8508,4.8682,4.8989,4.9368,4.97,5.0258,5.1857,5.3146,5.3823,5.4206,5.4182,5.4,5.3272,5.2731,5.1987,5.1425,5.0508,4.9593,4.9217,4.8464,4.824,4.773,4.7064,4.4586,4.2657,4.1425,4.0143,3.9828,3.9062,3.7888,3.7249,3.6435,3.5392,3.4122,3.3039,3.2607,3.2479,3.2516,3.2553,3.2782,3.2938,3.3005,3.2949,3.3007,3.2993,3.2923,3.2815,3.2711,3.2564,3.2425,3.2379,3.1765,3.0758,2.9784,2.9678,2.9774,2.9604,2.9117,2.8571,2.8067,2.8064,2.8762,2.9856,2.8546,2.8203,2.8639,2.8771,2.8797,2.8992,2.9193,2.9322,2.9546,2.9544,2.9473,2.9526,2.954,2.9548,2.955,2.9508,2.9475,2.9515,2.9545,2.954,2.9557,2.9543,2.9543,2.9534,2.9543,2.9547,2.9534,2.9538,2.9534,2.9532,2.9532,2.9532,2.9532,2.9532,2.9594,2.9594,2.9581,2.9581,2.9581,2.9532,2.9545,2.9532,2.9532,2.9552,2.9546,2.9571,2.9571,4.7666,4.7641,4.6842,4.6506,4.6485,4.6507,4.6528,4.6638,4.7307,4.7708,4.7724,4.9211,4.9879,5.0103,5.0148,5.0215,5.0105,4.9883,4.9595,4.9327,4.9084,4.8484,4.773,4.7709,4.6597,4.5571,4.5259,4.2933,4.078,3.9955,3.8997,3.8159,3.7843,3.7272,3.5943,3.5309,3.456,3.3698,3.2766,3.2237,3.2103,3.193,3.1839,3.1876,3.1933,3.1899,3.1836,3.185,3.191,3.1973,3.2044,3.2098,3.2129,3.2106,3.2106,3.1606,3.0713,2.956,2.9572,2.9553,2.9523,2.8983,2.8438,2.797,2.7833,2.7849,2.7865,2.7808,2.7832,2.7942,2.7994,2.7901,2.7867,2.8219,2.8656,2.9015,2.9202,2.8879,2.9169,2.9244,2.8965,2.9112,2.9202,2.9291,2.9411,2.9491,2.9535,2.9547,2.9528,2.953,2.9539,2.9544,2.954,2.9552,2.9543,2.9532,2.954,2.9554,2.9532,2.9532,2.9532,2.9532,2.9532,2.9551,2.9554,2.9554,2.9532,2.9532,2.9532,2.9532,2.9532,2.9532,2.9532,2.9532,2.9545,4.4512,4.4763,4.4606,4.4539,4.4517,4.4519,4.4474,4.4539,4.4718,4.4807,4.4964,4.5962,4.6517,4.6698,4.7188,4.7591,4.7592,4.7506,4.6999,4.6555,4.6356,4.5774,4.5033,4.4628,4.4127,4.2935,4.2773,4.1397,3.8437,3.7766,3.7169,3.6256,3.5911,3.5127,3.3766,3.3321,3.3084,3.2448,3.1788,3.1102,3.0754,3.0225,2.9811,2.9847,3.0026,3.0189,3.0308,3.0344,3.0335,3.0326,3.0271,3.0216,3.0147,3.0125,3.0125,3.0062,2.9796,2.958,2.9509,2.9465,2.9033,2.8441,2.7941,2.7846,2.7832,2.7817,2.7816,2.7829,2.7809,2.7814,2.7819,2.7823,2.7811,2.7889,2.8024,2.8199,2.8312,2.8497,2.8784,2.874,2.8414,2.8349,2.8369,2.8447,2.8766,2.889,2.9117,2.9151,2.9101,2.9196,2.9187,2.9291,2.9327,2.9317,2.9293,2.9202,2.9548,2.9534,2.9547,2.956,2.9545,2.9547,2.9534,2.9526,2.9517,2.9473,2.9515,2.9532,2.943,2.9381,2.9505,2.9532,2.9532,2.9532,2.9532,4.1618,4.1361,4.083,4.0763,4.0888,4.0928,4.1017,4.1227,4.165,4.1852,4.2167,4.2885,4.356,4.4119,4.4656,4.5058,4.5265,4.5254,4.4623,4.3877,4.3518,4.2824,4.1479,4.1387,4.0767,3.9969,3.897,3.7261,3.5549,3.5045,3.4192,3.3626,3.3507,3.3037,3.2141,3.1586,3.1342,3.1117,3.0354,2.9703,2.9514,2.9233,2.8943,2.8925,2.9043,2.9064,2.9126,2.9205,2.9356,2.9405,2.9488,2.9541,2.9498,2.9353,2.9074,2.915,2.908,2.8978,2.8747,2.8679,2.8476,2.7885,2.7833,2.7832,2.7813,2.7816,2.7816,2.7816,2.7816,2.7816,2.7816,2.7829,2.7817,2.7828,2.7854,2.7876,2.7898,2.8085,2.83,2.844,2.8186,2.7993,2.7814,2.7958,2.8151,2.8383,2.863,2.863,2.8571,2.8531,2.8446,2.8499,2.8481,2.8489,2.8457,2.8943,2.9555,2.9541,2.9546,2.9546,2.9532,2.9508,2.9503,2.9441,2.9406,2.9367,2.9361,2.9269,2.9209,2.9155,2.9375,2.9542,2.9543,2.9554,2.9532,3.9058,3.8347,3.7489,3.7309,3.7632,3.7672,3.7999,3.8224,3.9064,3.9251,3.939,4.009,4.0949,4.1404,4.1688,4.2064,4.2298,4.2136,4.1715,4.1111,4.0748,4.0184,3.8993,3.8858,3.7608,3.6084,3.481,3.3806,3.2702,3.1829,3.1954,3.1461,3.1416,3.1231,3.0803,3.0334,2.9952,2.9824,2.9255,2.8789,2.8687,2.8564,2.8528,2.8542,2.8625,2.8651,2.8713,2.888,2.9057,2.907,2.929,2.936,2.9232,2.8871,2.8677,2.8638,2.855,2.8352,2.8092,2.7902,2.7859,2.7824,2.7823,2.7821,2.7816,2.7816,2.7816,2.7816,2.7816,2.7816,2.7816,2.7816,2.7829,2.7829,2.7821,2.7813,2.7865,2.8036,2.8245,2.8104,2.7973,2.7817,2.7828,2.7898,2.8002,2.8147,2.8265,2.8239,2.8199,2.812,2.801,2.793,2.7814,2.7827,2.7827,2.8736,2.9192,2.9091,2.9028,2.9028,2.9068,2.9233,2.934,2.9153,2.906,2.902,2.8988,2.8944,2.8859,2.8699,2.9092,2.9541,2.9532,2.9545,2.9548,3.7157,3.7319,3.7204,3.7173,3.7207,3.7097,3.7033,3.7194,3.7486,3.7262,3.7581,3.7985,3.7972,3.8131,3.8389,3.8319,3.8409,3.8339,3.8607,3.8194,3.7949,3.746,3.715,3.6558,3.528,3.1777,3.1413,3.1438,3.1324,3.1165,3.0596,3.0383,3.0314,2.9936,2.9231,2.886,2.8882,2.8877,2.859,2.8427,2.8265,2.8239,2.8226,2.8265,2.8397,2.8515,2.8528,2.8598,2.8673,2.8664,2.869,2.8717,2.869,2.8598,2.8585,2.8537,2.8168,2.7954,2.7846,2.7828,2.7822,2.7817,2.7829,2.7816,2.7816,2.7816,2.7816,2.7816,2.7824,2.7824,2.7816,2.7819,2.7833,2.7824,2.7824,2.7816,2.7829,2.7843,2.7968,2.7824,2.7816,2.7816,2.7834,2.7817,2.7826,2.7839,2.7865,2.7857,2.7879,2.7862,2.7884,2.7828,2.7828,2.782,2.7824,2.8438,2.837,2.8278,2.8179,2.8179,2.8192,2.8391,2.8555,2.8568,2.8621,2.8533,2.8462,2.8458,2.8374,2.8208,2.8455,2.8935,2.9247,2.95,2.9469,3.4327,3.3629,3.3644,3.3739,3.3902,3.3934,3.4006,3.412,3.4135,3.4135,3.4183,3.4315,3.4911,3.5685,3.5882,3.6494,3.6936,3.7117,3.6752,3.6009,3.5311,3.4851,3.4451,3.3581,3.2849,3.1,3.0077,2.9898,2.9839,2.955,2.933,2.8918,2.8852,2.8644,2.8212,2.8177,2.8173,2.8173,2.8147,2.8116,2.7997,2.7971,2.7971,2.801,2.8111,2.8168,2.8208,2.8291,2.8348,2.8309,2.8239,2.8147,2.816,2.8147,2.8168,2.8147,2.7893,2.7819,2.7828,2.7831,2.7816,2.7816,2.7816,2.7816,2.7816,2.7816,2.7816,2.7816,2.7824,2.7823,2.7818,2.7805,2.7826,2.7818,2.7818,2.7838,2.7811,2.7834,2.7824,2.7833,2.7833,2.7824,2.7816,2.7829,2.7808,2.7821,2.7834,2.7834,2.7816,2.7816,2.7816,2.7816,2.7816,2.7829,2.7834,2.7832,2.782,2.7824,2.7818,2.7827,2.7827,2.785,2.7872,2.8002,2.8175,2.8073,2.8112,2.7977,2.7924,2.7915,2.8089,2.8365,2.867,2.8882,2.9014,3.1832,3.0484,3.0484,3.0693,3.094,3.0954,3.1165,3.1383,3.1361,3.1551,3.139,3.147,3.2334,3.355,3.3678,3.435,3.522,3.5269,3.5182,3.4095,3.3037,3.2211,3.1355,3.0506,3.0006,2.9748,2.9134,2.8876,2.8748,2.8337,2.7851,2.7886,2.8046,2.7829,2.7856,2.7895,2.7816,2.7816,2.7808,2.7856,2.7821,2.7821,2.7821,2.7821,2.7856,2.7821,2.7847,2.8006,2.8111,2.8072,2.7953,2.7882,2.7882,2.7869,2.7882,2.7869,2.7843,2.7829,2.7816,2.7829,2.7816,2.7816,2.7816,2.7816,2.7816,2.7816,2.7833,2.7831,2.7831,2.7834,2.7764,2.7583,2.752,2.775,2.7799,2.7706,2.7515,2.7611,2.7796,2.7829,2.7815,2.7831,2.7818,2.7823,2.7816,2.7816,2.7816,2.7816,2.7816,2.7816,2.7816,2.7816,2.7816,2.7816,2.7821,2.7817,2.781,2.7828,2.7828,2.7836,2.7823,2.7849,2.7845,2.7835,2.7816,2.7856,2.7923,2.7814,2.7823,2.7824,2.7885,2.8059,2.8191,2.8291,2.8414,3.0698,3.0484,3.0484,3.0563,3.0499,3.0585,3.0471,3.0578,3.0514,3.0536,3.0557,3.0911,3.1005,3.0965,3.149,3.1467,3.1425,3.1915,3.1438,3.1387,3.1106,3.0433,2.955,2.8639,2.831,2.8238,2.8061,2.7983,2.7991,2.7932,2.7816,2.7816,2.7816,2.7816,2.7816,2.7816,2.7816,2.7816,2.7816,2.7816,2.7816,2.7816,2.7816,2.7816,2.7816,2.7816,2.7829,2.7834,2.7861,2.7826,2.7843,2.7816,2.7816,2.7816,2.7816,2.7816,2.7816,2.7816,2.7816,2.7816,2.7816,2.7816,2.7816,2.7816,2.7816,2.7816,2.7831,2.7831,2.7815,2.7681,2.7537,2.6826,2.6826,2.7394,2.7665,2.7247,2.674,2.7186,2.7825,2.7824,2.7773,2.7796,2.7826,2.7824,2.7811,2.7813,2.781,2.7815,2.7826,2.7826,2.7831,2.7819,2.7816,2.7816,2.7824,2.7824,2.7824,2.7803,2.7803,2.7823,2.7823,2.7813,2.7823,2.7816,2.7816,2.7816,2.7816,2.7816,2.7821,2.7822,2.781,2.7819,2.784,2.8041,2.8103,2.9413,2.8976,2.8933,2.8933,2.8933,2.8933,2.8933,2.8933,2.8912,2.8933,2.899,2.9135,2.9395,2.9706,2.9883,3.0113,3.0456,3.0484,3.0463,3.0463,3.0405,2.9423,2.8073,2.752,2.7217,2.7251,2.7452,2.7552,2.7579,2.7716,2.7803,2.7803,2.7816,2.7816,2.7816,2.7816,2.7816,2.7816,2.7816,2.7816,2.7816,2.7816,2.7816,2.7816,2.7816,2.7816,2.7816,2.7816,2.7816,2.7816,2.7816,2.7816,2.7816,2.7816,2.7816,2.7816,2.7816,2.7816,2.7816,2.7816,2.7816,2.7816,2.7816,2.7816,2.7816,2.7816,2.7826,2.7759,2.7423,2.7122,2.6772,2.6372,2.631,2.673,2.6762,2.6558,2.6173,2.6516,2.6719,2.676,2.6816,2.6991,2.773,2.779,2.7829,2.7792,2.7706,2.7722,2.7752,2.7821,2.7826,2.7823,2.7816,2.7828,2.7809,2.7809,2.7831,2.7798,2.7793,2.7818,2.7824,2.7817,2.7808,2.7801,2.7811,2.7816,2.7816,2.7816,2.7816,2.7816,2.7816,2.7821,2.7834,2.7913,2.79,2.8383,2.7816,2.7816,2.7816,2.7816,2.7816,2.7838,2.7816,2.7859,2.7945,2.7859,2.7816,2.8267,2.8769,2.8834,2.9155,2.9563,2.9713,2.9784,2.9685,2.9579,2.8398,2.7144,2.6828,2.6841,2.6867,2.7149,2.7283,2.7275,2.7425,2.7571,2.7697,2.7706,2.7724,2.7795,2.7816,2.7816,2.7816,2.7816,2.7816,2.7816,2.7816,2.7768,2.7745,2.7697,2.7623,2.7536,2.7615,2.7684,2.7584,2.7602,2.7737,2.7781,2.7816,2.7816,2.7816,2.7816,2.7816,2.7816,2.7816,2.7816,2.7816,2.7816,2.7816,2.7816,2.7815,2.7821,2.7687,2.7065,2.6448,2.6162,2.6044,2.6044,2.6046,2.6131,2.6112,2.6053,2.6044,2.6048,2.6045,2.6106,2.6469,2.6998,2.7252,2.7235,2.7235,2.722,2.7197,2.7217,2.7325,2.7815,2.7831,2.7704,2.7768,2.7768,2.7768,2.7738,2.7645,2.7568,2.7489,2.7356,2.7361,2.7426,2.7675,2.763,2.7505,2.7562,2.7791,2.7824,2.7816,2.7816,2.7816,2.7816,2.7828,2.7815,2.7859,2.7816,2.7816,2.7816,2.7816,2.7816,2.7816,2.7816,2.7816,2.7816,2.7816,2.7816,2.7881,2.7881,2.8053,2.8096,2.7988,2.8133,2.8058,2.7735,2.7444,2.7167,2.6798,2.673,2.671,2.677,2.6836,2.6883,2.6875,2.6975,2.7075,2.7402,2.7407,2.7526,2.7663,2.7781,2.775,2.7702,2.7742,2.7729,2.7729,2.7734,2.7636,2.7428,2.7415,2.7267,2.7046,2.7207,2.7228,2.698,2.7241,2.7491,2.775,2.7816,2.7781,2.7816,2.7816,2.7816,2.7816,2.7816,2.7816,2.7838,2.7811,2.7816,2.7823,2.7794,2.7752,2.7561,2.674,2.6102,2.6078,2.6046,2.6046,2.604,2.604,2.6034,2.604,2.6033,2.6045,2.6044,2.6039,2.6113,2.6229,2.6308,2.6295,2.63,2.6329,2.6363,2.6482,2.7,2.761,2.7657,2.745,2.7414,2.727,2.7249,2.7241,2.7117,2.6925,2.6703,2.6474,2.6472,2.6531,2.7079,2.7343,2.7191,2.7233,2.7642,2.7834,2.7829,2.7829,2.7833,2.7828,2.7821,2.7824,2.7816,2.7816,2.7816,2.7816,2.7816,2.7816,2.7816,2.7816,2.7816,2.7816,2.7816,2.7816,2.7816,2.7816,2.7816,2.7816,2.7768,2.7618,2.7267,2.6825,2.6633,2.648,2.6363,2.633,2.635,2.6356,2.6494,2.6565,2.6599,2.6736,2.6901,2.7014,2.7028,2.7093,2.7172,2.7178,2.7199,2.722,2.7212,2.7165,2.7178,2.7199,2.7167,2.7075,2.7049,2.6941,2.6828,2.6791,2.6746,2.6665,2.6862,2.7201,2.7521,2.756,2.7653,2.7763,2.7816,2.7803,2.7816,2.7819,2.7816,2.7819,2.7829,2.7829,2.7818,2.7823,2.736,2.6879,2.6296,2.6044,2.6046,2.6041,2.6041,2.6041,2.6041,2.6041,2.6041,2.6041,2.6041,2.6047,2.6045,2.6044,2.605,2.6046,2.6039,2.6052,2.6031,2.6037,2.615,2.649,2.6572,2.6672,2.6819,2.6881,2.6775,2.6768,2.6726,2.6574,2.6402,2.6193,2.6052,2.6062,2.6168,2.6743,2.6864,2.6685,2.6831,2.7286,2.7576,2.7807,2.7832,2.7729,2.7584,2.7642,2.7659,2.7571,2.7671,2.7663,2.7702,2.7816,2.7816,2.7816,2.7816,2.7816,2.7816,2.7816,2.7816,2.7816,2.7816,2.7816,2.7763,2.7623,2.7233,2.6885,2.6501,2.6377,2.6211,2.6094,2.6054,2.6041,2.6081,2.6245,2.6317,2.6343,2.646,2.6638,2.6704,2.6697,2.6757,2.6862,2.6815,2.6815,2.6815,2.6815,2.6815,2.6815,2.6828,2.6775,2.6717,2.6717,2.6665,2.6552,2.6402,2.6317,2.6317,2.6559,2.687,2.7149,2.7236,2.7286,2.747,2.7496,2.7539,2.7752,2.7816,2.7824,2.7831,2.7811,2.7725,2.7524,2.7318,2.6845,2.6255,2.6037,2.6034,2.6033,2.6041,2.6041,2.6041,2.6041,2.6041,2.6041,2.6041,2.6041,2.6041,2.6041,2.6041,2.6034,2.6047,2.6033,2.6053,2.604,2.6052,2.6048,2.612,2.6041,2.6034,2.6039,2.6206,2.6318,2.6402,2.6381,2.6275,2.619,2.6063,2.6043,2.6069,2.6196,2.6384,2.6284,2.6266,2.6466,2.6723,2.6913,2.714,2.7188,2.7229,2.7278,2.7303,2.7319,2.7075,2.7354,2.7389,2.7547,2.7702,2.7716,2.7768,2.775,2.7777,2.7763,2.775,2.779,2.7763,2.7768,2.7702,2.7597,2.7309,2.6785,2.646,2.6396,2.6179,2.6047,2.6041,2.6041,2.6041,2.6054,2.6054,2.6088,2.6094,2.6133,2.6265,2.6388,2.6428,2.6533,2.6809,2.6757,2.6783,2.6749,2.6744,2.6762,2.6815,2.6749,2.6631,2.6454,2.6407,2.633,2.6107,2.6081,2.6074,2.6087,2.6304,2.6539,2.6749,2.6856,2.6862,2.6852,2.6826,2.7104,2.7644,2.7672,2.7636,2.7622,2.7714,2.7382,2.6892,2.6475,2.6189,2.605,2.6043,2.6047,2.6034,2.6041,2.6041,2.6041,2.6041,2.6041,2.6041,2.6041,2.6041,2.6041,2.6041,2.6041,2.6041,2.6041,2.6041,2.6041,2.6041,2.604,2.6046,2.6039,2.604,2.6046,2.6057,2.6042,2.6038,2.6047,2.604,2.6053,2.6047,2.6054,2.604,2.6053,2.6173,2.6166,2.6088,2.6087,2.6307,2.6325,2.6466,2.649,2.6305,2.6318,2.6535,2.6743,2.6821,2.6901,2.7001,2.7001,2.7067,2.7167,2.7125,2.7125,2.7151,2.7412,2.7526,2.7555,2.7534,2.7513,2.7508,2.7259,2.7001,2.6725,2.6533,2.6323,2.6179,2.6074,2.6041,2.6041,2.6041,2.6041,2.6041,2.6041,2.6041,2.6041,2.6041,2.6094,2.6186,2.6186,2.6198,2.6284,2.6311,2.629,2.629,2.6277,2.629,2.629,2.6277,2.6238,2.6212,2.6166,2.6126,2.6054,2.6041,2.6041,2.6034,2.6113,2.6205,2.6331,2.6475,2.6473,2.6298,2.6303,2.6407,2.6565,2.6607,2.6635,2.6615,2.6636,2.6559,2.6348,2.6154,2.605,2.6031,2.604,2.6041,2.6041,2.6041,2.6041,2.6041,2.6041,2.6041,2.6041,2.6041,2.6041,2.6041,2.6041,2.6041,2.6041,2.6041,2.6041,2.6041,2.6041,2.6041,2.6041,2.6041,2.6041,2.6041,2.6041,2.6041,2.6054,2.6034,2.6047,2.6047,2.6041,2.6041,2.6034,2.6034,2.6067,2.6054,2.604,2.6046,2.6032,2.6051,2.6084,2.6095,2.6037,2.6046,2.6124,2.6235,2.6483,2.6533,2.6546,2.6651,2.6757,2.6815,2.6815,2.6815,2.6862,2.7088,2.7209,2.7188,2.7188,2.7188,2.7162,2.6738,2.6441,2.6304,2.629,2.6219,2.6047,2.6041,2.6041,2.6041,2.6041,2.6041,2.6041,2.6041,2.6041,2.6041,2.6041,2.6041,2.6041,2.6041,2.6041,2.6041,2.6041,2.6041,2.6054,2.6041,2.6041,2.6067,2.6041,2.6041,2.6041,2.6041,2.6041,2.6041,2.6041,2.6041,2.6041,2.6041,2.6041,2.6067,2.6205,2.6247,2.6062,2.6047,2.6047,2.6047,2.6047,2.6047,2.6055,2.6043,2.6074,2.6048,2.6038,2.6041,2.6054,2.6054,2.5769,2.5637,2.5837,2.605,2.6043,2.605,2.6043,2.6049,2.6049,2.6041,2.6041,2.6041,2.6041,2.6041,2.6041,2.6041,2.6041,2.6041,2.6041,2.6041,2.6041,2.6041,2.6041,2.6041,2.6041,2.6041,2.6041,2.6041,2.6041,2.6041,2.6041,2.6041,2.6041,2.6041,2.6041,2.6041,2.6047,2.604,2.6046,2.6046,2.6052,2.6039,2.6051,2.6041,2.6119,2.6279,2.6035,2.6034,2.629,2.6554,2.6796,2.6742,2.6783,2.6744,2.6789,2.6823,2.6823,2.6843,2.6789,2.6757,2.6311,2.6047,2.6054,2.6041,2.6035,2.6022,2.6001,2.6015,2.6028,2.6041,2.6041,2.6041,2.6041,2.6041,2.6041,2.6041,2.6041,2.6041,2.6041,2.6041,2.6041,2.6041,2.6041,2.6041,2.6041,2.6041,2.6041,2.6041,2.6041,2.6041,2.6041,2.6041,2.6041,2.6041,2.6041,2.6041,2.6041,2.6041,2.6041,2.6054,2.6067,2.604,2.6034,2.6041,2.5914,2.5974,2.6055,2.6055,2.6049,2.6042,2.6055,2.6049,2.6003,2.5968,2.5835,2.5439,2.4702,2.525,2.5798,2.5817,2.5894,2.5955,2.6022,2.6043,2.6049,2.6042,2.6049,2.6042,2.6041,2.6041,2.6041,2.6041,2.6041,2.6041,2.6041,2.6041,2.6041,2.6041,2.6041,2.6041,2.6041,2.6041,2.6041,2.6041,2.6041,2.6041,2.6041,2.6041,2.6041,2.6041,2.6041,2.6041,2.6041,2.6041,2.6041,2.6041,2.6041,2.6041,2.6041,2.6041,2.6101,2.5493,2.5513,2.5764,2.6035,2.6238,2.6238,2.6271,2.6264,2.6454,2.6526,2.6546,2.6567,2.6448,2.6258,2.612,2.6041,2.6015,2.585,2.5784,2.5744,2.5784,2.5744,2.5791,2.5956,2.6041,2.6041,2.6041,2.6041,2.6041,2.6041,2.6041,2.6041,2.6041,2.6041,2.6041,2.6041,2.6041,2.6041,2.6041,2.6041,2.6041,2.6041,2.6041,2.6041,2.6041,2.6041,2.6041,2.6041,2.6041,2.6041,2.6041,2.6041,2.6041,2.6041,2.6041,2.6048,2.6036,2.5685,2.4831,2.5572,2.6057,2.6038,2.6038,2.6038,2.6038,2.6038,2.5821,2.5323,2.4936,2.4741,2.4314,2.4587,2.4781,2.4755,2.4768,2.5185,2.5916,2.6049,2.6014,2.6036,2.6016,2.6043,2.6049,2.6048,2.6041,2.6041,2.6041,2.6041,2.6041,2.6041,2.6041,2.6041,2.6041,2.6041,2.6041,2.6041,2.6041,2.6041,2.6041,2.6041,2.6041,2.6041,2.6041,2.6041,2.6041,2.6041,2.6041,2.6041,2.6041,2.6041,2.6041,2.6041,2.6041,2.6041,2.6041,2.5275,2.5269,2.5447,2.5579,2.5705,2.5718,2.5784,2.5923,2.6074,2.6179,2.6258,2.6034,2.589,2.5731,2.5718,2.5738,2.5705,2.5553,2.5474,2.5513,2.5474,2.5513,2.5487,2.5652,2.5738,2.5731,2.5837,2.587,2.5903,2.5981,2.6041,2.6041,2.6041,2.6041,2.6041,2.6041,2.6041,2.6041,2.6041,2.6041,2.6014,2.5699,2.5477,2.549,2.5154,2.5026,2.4993,2.5034,2.4943,2.4881,2.4949,2.4918,2.4704,2.5572,2.5791,2.5228,2.5421,2.5179,2.4372,2.495,2.5334,2.5334,2.5334,2.545,2.5717,2.5717,2.5421,2.4765,2.445,2.4335,2.4322,2.4316,2.4335,2.4329,2.4323,2.4593,2.5277,2.5326,2.5328,2.5356,2.5762,2.604,2.6049,2.6043,2.6043,2.6048,2.6041,2.6041,2.6041,2.6041,2.6041,2.6041,2.6041,2.6041,2.6041,2.6041,2.6041,2.6041,2.6041,2.6041,2.6041,2.6041,2.6041,2.6041,2.6041,2.6041,2.6041,2.6041,2.6041,2.6041,2.6041,2.6041,2.6041,2.6041,2.6041,2.5156,2.5176,2.519,2.5235,2.5249,2.5275,2.5434,2.5593,2.5626,2.5764,2.5916,2.5461,2.5288,2.5275,2.5288,2.5302,2.5302,2.5249,2.5203,2.5216,2.5235,2.5216,2.5216,2.5242,2.5275,2.5308,2.554,2.5626,2.5659,2.5837,2.5982,2.6035,2.6041,2.6041,2.6041,2.6041,2.6041,2.6041,2.5981,2.5935,2.5834,2.5038,2.4596,2.4495,2.3831,2.3449,2.3525,2.3429,2.3342,2.3135,2.329,2.3174,2.3009,2.4541,2.5061,2.3962,2.4321,2.4451,2.4127,2.4192,2.4367,2.4335,2.4387,2.4619,2.5117,2.5155,2.4903,2.4385,2.4259,2.4285,2.4205,2.4293,2.4333,2.4323,2.4317,2.4333,2.4417,2.4336,2.4328,2.4321,2.5183,2.5879,2.5745,2.5743,2.585,2.5996,2.6049,2.6029,2.6042,2.6042,2.6041,2.6042,2.6029,2.6049,2.6035,2.6042,2.6042,2.6041,2.6041,2.6041,2.6041,2.6041,2.6041,2.6041,2.6041,2.6041,2.6041,2.6041,2.6041,2.6041,2.6041,2.6041,2.6041,2.6041,2.6041,2.4333,2.4544,2.473,2.4803,2.4848,2.515,2.5334,2.5354,2.5368,2.5375,2.5427,2.5322,2.5275,2.5275,2.5275,2.5262,2.5235,2.4966,2.4822,2.4822,2.4803,2.4803,2.4848,2.5111,2.5275,2.5275,2.5322,2.5368,2.5387,2.5414,2.5527,2.5751,2.5956,2.6041,2.6041,2.6041,2.6041,2.6015,2.5679,2.5127,2.4419,2.4203,2.379,2.322,2.3003,2.2905,2.2925,2.2905,2.2881,2.2802,2.2308,2.2226,2.2719,2.2668,2.2727,2.2988,2.2962,2.279,2.2612,2.3607,2.4328,2.4328,2.4328,2.4347,2.451,2.4507,2.4283,2.3832,2.4034,2.4109,2.382,2.404,2.4318,2.4312,2.4329,2.4323,2.4317,2.4326,2.4317,2.4309,2.4502,2.4721,2.4691,2.471,2.5081,2.5795,2.6048,2.6036,2.6036,2.6043,2.605,2.6041,2.6056,2.5993,2.6042,2.6029,2.6043,2.6048,2.6048,2.6028,2.6042,2.6048,2.6041,2.6042,2.6035,2.6042,2.6048,2.6028,2.6035,2.6049,2.6035,2.6035,2.6055,2.6035,2.6028,2.381,2.3955,2.4076,2.4197,2.4329,2.4544,2.4787,2.4966,2.464,2.4468,2.4487,2.4487,2.4487,2.45,2.4595,2.4642,2.4642,2.4564,2.4481,2.45,2.45,2.45,2.4545,2.4748,2.4846,2.4808,2.494,2.5006,2.5038,2.517,2.5354,2.55,2.5626,2.5678,2.5678,2.5698,2.5678,2.5685,2.5022,2.4385,2.3917,2.3176,2.2531,2.2132,2.1397,2.1045,2.1054,2.0643,2.0394,2.0336,1.9733,1.9758,2.0619,2.0651,2.0909,2.1596,2.1772,2.1456,2.0591,2.1985,2.3271,2.4227,2.432,2.4333,2.432,2.4331,2.4073,2.3661,2.3498,2.3364,2.3142,2.3822,2.4311,2.4312,2.4325,2.4325,2.432,2.4321,2.4331,2.4327,2.4326,2.4324,2.4328,2.4323,2.4606,2.5071,2.5237,2.5467,2.5946,2.5632,2.5231,2.5224,2.5223,2.5263,2.5264,2.5638,2.6013,2.6048,2.6049,2.6036,2.6049,2.6036,2.6036,2.6049,2.6036,2.6049,2.6036,2.589,2.5857,2.5936,2.6049,2.6036,2.605,2.6056,2.6043,2.3453,2.3498,2.3498,2.3662,2.3863,2.3844,2.4084,2.4479,2.3828,2.3498,2.3498,2.3498,2.3498,2.3529,2.3775,2.3844,2.3876,2.4076,2.4182,0.0,2.4182,2.4214,2.4235,2.4229,2.4261,2.4314,2.4507,2.4645,2.4671,2.4953,2.515,2.519,2.519,2.5235,2.5275,2.5275,2.5235,2.5123,2.427,2.3746,2.361,2.1997,2.1044,2.0907,1.9542,1.8763,1.8782,1.808,1.7576,1.7458,1.697,1.7108,1.8,1.8681,1.9278,1.984,2.0397,2.0035,1.8565,1.986,2.1532,2.3247,2.3823,2.4055,2.406,2.4051,2.3911,2.3577,2.2961,2.2536,2.2605,2.3427,2.3996,2.3996,2.4032,2.4069,2.4023,2.3987,2.406,2.429,2.4329,2.4331,2.4321,2.4338,2.4324,2.4338,2.4488,2.4645,2.5324,2.4949,2.4393,2.4322,2.4335,2.4328,2.4522,2.519,2.5632,2.5801,2.5738,2.5654,2.5628,2.5667,2.5667,2.575,2.581,2.5835,2.5685,2.5411,2.5334,2.5576,2.5648,2.5688,2.5652,2.5698,2.5775,2.3237,2.3498,2.3498,2.3556,2.3577,2.3614,2.3648,2.3723,0.0,0.0,0.0,2.3498,2.3498,2.3547,2.3551,2.3595,2.3595,2.363,2.3656,2.3656,2.3656,2.3775,2.3976,2.3958,2.4076,2.4301,2.4353,2.4399,2.4361,2.4451,2.4558,2.4782,2.477,2.4966,2.5262,2.5275,2.5018,2.4466,2.3702,2.2982,2.23,2.0629,1.9451,1.8852,1.7957,1.7461,1.7432,1.7308,1.7213,1.7176,1.6896,1.6823,1.6973,1.7016,1.7104,1.7232,1.7906,1.7701,1.6434,1.7746,1.8794,1.9165,2.1435,2.2863,2.285,2.2859,2.2828,2.2762,2.2644,2.2541,2.2536,2.2758,2.288,2.2861,2.2868,2.2874,2.2905,2.2847,2.3286,2.4131,2.424,2.4309,2.4276,2.4261,2.4329,2.4313,2.4325,2.4411,2.4524,2.4464,2.4323,2.4332,2.4316,2.4317,2.4347,2.4565,2.4554,2.4704,2.4697,2.4606,2.4606,2.4587,2.4587,2.4729,2.5106,2.5138,2.4749,2.4606,2.4528,2.4567,2.4606,2.4593,2.4586,2.4639,2.4818,2.2859,0.0,2.3044,2.3105,0.0,2.3219,2.3158,2.3026,2.3008,2.3044,2.3008,2.3026,2.3008,2.3039,2.3153,2.3219,2.3215,2.345,2.3498,2.3498,2.3498,2.3614,2.3741,2.3723,2.377,2.3921,2.4024,2.4071,2.4103,2.4216,2.4361,2.4493,2.4468,2.4591,2.4793,2.4787,2.4307,2.3312,2.2554,2.1777,2.0944,1.9406,1.8366,1.7976,0.0,0.0,0.0,0.0,0.0,0.0,0.0,0.0,0.0,0.0,0.0,1.5708,1.6356,1.6416,1.5842,1.6487,1.7221,1.8044,1.9455,2.029,2.0291,2.1663,2.2281,2.1642,2.218,2.2463,2.2198,2.2376,2.2537,2.2555,2.2533,2.2551,2.2546,2.2542,2.2775,2.3322,2.3405,2.3425,2.3444,2.3411,2.3618,2.4207,2.4315,2.4318,2.4321,2.4328,2.432,2.4329,2.4326,2.4316,2.4334,2.4322,2.433,2.432,2.4321,2.4334,2.4334,2.4334,2.4321,2.434,2.4525,2.4697,2.4359,2.4321,2.4321,2.4334,2.4321,2.4321,2.4321,2.4331,2.4393,2.2455,2.2477,2.2459,2.2631,2.2867,2.2727,2.2591,2.2398,2.2398,2.2415,2.238,2.2415,2.2428,2.2407,2.2688,2.2784,2.2797,2.3176,2.3321,2.3357,2.3321,2.3348,2.3419,2.3401,2.3463,2.3511,2.3731,2.3818,2.3868,2.4042,2.4161,2.4142,2.4161,2.4124,2.4142,0.0,0.0,0.0,2.1429,2.0574,1.9791,1.8268,1.7292,1.6964,1.5047,0.0,1.3511,1.2328,1.1546,1.1436,1.1539,0.0,0.0,0.0,0.0,0.0,0.0,0.0,0.0,0.0,0.0,0.0,1.7118,1.726,1.787,2.0375,2.1554,2.0573,2.1499,2.197,2.1432,2.2081,2.2536,2.255,2.2536,2.2536,2.255,2.253,2.2534,2.2547,2.2551,2.2557,2.258,2.2547,2.2918,2.3757,2.3974,2.3972,2.3959,2.3886,2.3932,2.4017,2.4175,2.4334,2.4324,2.4329,2.4316,2.4324,2.431,2.431,2.4329,2.431,2.4329,2.4329,2.4329,2.4342,2.4315,2.4203,2.4167,2.4263,2.4333,2.433,2.4337,2.431,2.431,2.2001,2.2204,2.2204,2.2345,2.2547,2.2102,2.1882,2.1876,2.1876,2.1859,2.1859,2.1859,2.1859,2.1902,2.2159,2.2257,2.227,2.256,2.2674,2.2657,2.2674,2.2788,2.2994,2.3025,2.3193,2.3498,2.3556,2.3564,2.3564,2.3609,2.3635,2.3604,2.3604,2.3604,2.3617,2.3604,2.3195,2.2368,2.0901,1.9791,1.9005,1.7466,1.6024,1.4681,1.3683,1.2529,1.1228,1.0972,1.0513,0.9902,1.037,1.0738,1.0804,1.1187,1.1495,0.0,1.2176,0.0,0.0,0.0,0.0,0.0,0.0,0.0,0.0,1.8794,1.9937,1.9787,2.0514,2.0729,1.998,2.1492,2.2544,2.2544,2.2544,2.2544,2.2544,2.2537,2.2547,2.2547,2.2549,2.2534,2.2539,2.2534,2.2536,2.2781,2.2852,2.2863,2.28,2.2829,2.2841,2.2796,2.3627,2.4158,2.419,2.4194,2.4121,2.4236,2.4244,2.4322,2.4254,2.4258,2.4281,2.4281,2.4254,2.4303,2.4325,2.3926,2.3825,2.4171,2.4229,2.4228,2.4224,2.4213,2.4322,2.185,2.1938,2.1935,2.2001,2.2106,2.1842,2.177,2.177,2.177,2.177,2.177,2.177,2.177,2.177,2.1902,2.1969,2.1952,2.205,2.2116,2.2116,2.2274,2.2385,2.2516,2.2657,2.2802,2.2987,2.3127,2.3175,2.3224,2.3437,2.3498,2.3498,2.3498,2.3357,2.2964,2.2542,2.2169,2.1796,2.0324,1.8987,1.7755,1.5914,1.4563,1.3854,1.1917,1.0552,0.9851,0.9006,0.8376,0.8048,0.8306,0.8447,0.8477,0.894,0.9238,0.0,0.0,0.0,0.0,0.0,0.0,0.0,0.0,0.0,0.0,0.0,1.8004,1.8015,1.8331,1.8715,1.9164,2.0624,2.1578,2.1582,2.1582,2.1569,2.1589,2.1589,2.1572,2.1589,2.1589,2.1837,2.2456,2.2549,2.2543,2.2542,2.2546,2.255,2.2543,2.2546,2.2534,2.2539,2.3002,2.3321,2.3325,2.1968,2.1392,2.292,2.3338,2.3338,2.3338,2.332,2.3343,2.3384,2.3851,2.4214,2.3925,2.3892,2.3901,2.3892,2.3599,2.3361,2.3328,2.333,2.3475,2.1582,2.1618,2.1568,2.1542,2.1559,2.1542,2.1542,2.1542,2.1542,2.1559,2.1525,2.1525,2.1525,2.1559,2.1605,2.1631,2.1631,2.1714,2.177,2.1783,2.1974,2.205,2.208,2.2287,2.2358,2.2371,2.26,2.2762,2.2758,2.3119,2.3282,2.3268,2.3023,2.2579,2.1937,2.143,2.1083,2.0873,1.9799,1.8485,1.6933,1.4751,1.3353,1.2787,1.038,0.8834,0.8265,0.709,0.6389,0.6231,0.6402,0.6468,0.6468,0.7107,0.0,0.0,0.0,0.0,0.0,0.0,0.0,0.0,0.0,1.1882,1.2583,0.0,1.6088,0.0,1.6323,1.7155,1.827,1.9243,0.0,0.0,2.0407,2.0823,2.0827,2.0827,2.0827,2.0814,2.0219,2.0407,2.1945,2.2146,2.2156,2.2148,2.2139,2.2116,2.2112,2.1639,2.1235,2.1381,2.139,2.1499,2.1294,1.9513,1.8945,2.1122,2.1476,2.15,2.1482,2.1482,2.147,2.156,2.2755,2.3726,2.355,2.369,2.3451,2.2288,2.1757,2.1464,2.1524,2.21,2.2724,2.1021,2.1228,2.0969,2.0896,2.0896,2.0866,2.088,2.0866,2.0866,2.0866,2.0896,2.0896,2.0896,2.0893,2.109,0.0,2.1255,2.1584,2.1757,2.177,2.1783,2.1797,2.1827,2.1819,2.1836,2.1833,2.2089,2.2221,2.2213,2.2507,2.2652,2.2604,2.1666,2.0871,2.0261,2.0391,2.0131,1.9431,1.9291,1.8467,1.6905,1.4733,1.258,1.0461,0.9442,0.7923,0.5847,0.5639,0.5195,0.4566,0.5189,0.5561,0.5574,0.0,0.0,0.0,0.0,0.0,0.0,0.0,0.0,0.0,0.0,0.0,0.0,0.0,0.0,0.0,1.5259,0.0,1.687,1.6983,0.0,0.0,0.0,2.0819,2.0819,2.0819,2.0819,2.0819,0.0,0.0,2.0586,2.0919,2.0912,2.0936,2.0918,2.0925,2.0947,1.8867,1.7502,1.8451,1.8445,1.8472,1.8606,1.8171,1.7975,1.8348,1.8429,1.8559,1.8436,1.8478,1.8495,1.8647,2.0781,2.2775,2.3418,2.2834,2.1703,1.8487,1.825,1.853,1.8734,2.0606,2.231,2.0761,2.0692,2.0638,2.0477,2.0332,2.0334,2.0319,2.0334,2.0319,2.0319,2.0319,2.0319,2.0319,2.0332,2.045,0.0,0.0,0.0,2.1176,2.1172,2.1327,2.1403,2.1419,2.1674,2.177,2.177,2.1855,2.1925,2.1955,2.201,2.1637,2.0783,0.0,0.0,1.9769,1.9438,1.8902,1.8183,1.7727,1.675,1.5283,1.4045,1.2063,0.9404,0.8153,0.6675,0.4802,0.4719,0.4617,0.4279,0.4567,0.4729,0.0,0.0,0.0,0.0,0.0,0.0,0.0,0.0,0.0,0.0,0.0,0.7764,0.7415,0.0,0.0,0.0,1.3152,1.4237,1.5123,1.6121,0.0,0.0,0.0,0.0,0.0,0.0,0.0,1.844,1.7399,1.7764,2.0409,1.9362,1.8352,1.8345,1.834,1.8337,1.8309,0.0,1.6845,1.7183,1.7249,1.724,1.7232,1.6211,1.5395,1.5384,1.6801,1.735,1.5418,1.6696,1.8018,1.8207,1.9022,2.0246,2.1452,2.0223,1.8373,1.6574,1.7178,1.8046,1.8097,1.8965,2.0153,2.0477,0.0,0.0,0.0,0.0,1.9528,1.9466,1.9466,1.9466,1.9466,1.9466,1.9435,0.0,0.0,0.0,0.0,0.0,0.0,2.0044,2.015,2.031,2.0447,2.0508,2.0798,2.0938,2.0951,2.1015,2.1037,2.1054,2.0977,2.0207,1.881,0.0,0.0,0.0,0.0,1.736,1.6888,1.6304,1.5367,1.3928,1.3471,1.1768,0.8815,0.7145,0.5662,0.4309,0.3975,0.3785,0.3685,0.3667,0.0,0.0,0.0,0.0,0.0,0.0,0.0,0.0,0.0,0.0,0.0,0.0,0.0,0.0,0.0,0.0,0.0,0.0,0.0,1.3337,1.5177,1.6349,0.0,0.0,0.0,0.0,0.0,0.0,0.0,0.0,0.0,1.8945,1.7738,1.6733,0.0,0.0,1.6725,1.672,1.6057,1.5556,1.5542,1.5554,0.0,0.0,1.4315,1.333,1.3328,1.5105,1.541,1.1984,1.4216,1.678,1.7551,1.7692,1.7874,1.8517,1.6989,1.5434,1.4853,1.5583,1.6459,1.6567,1.7202,1.8074,0.0,0.0,0.0,0.0,0.0,0.0,0.0,0.0,1.8142,1.8161,0.0,1.8176,0.0,0.0,0.0,0.0,0.0,1.8209,0.0,0.0,1.8601,1.867,1.8925,1.8965,1.8965,1.8957,1.9217,1.9325,1.928,1.9036,0.0,0.0,0.0,0.0,0.0,0.0,1.5451,1.5391,1.5365,1.4664,1.3285,1.3184,1.1744,0.881,0.6642,0.5117,0.4296,0.3294,0.2604,0.2232,0.2198,0.0,0.0,0.0,0.0,0.0,0.0,0.0,0.0,0.0,0.0,0.0,0.0,0.0,0.0,0.0,0.0,0.0,0.0,0.0,0.0,1.3884,0.0,0.0,0.0,0.0,0.0,0.0,0.0,0.0,0.0,0.0,1.56,1.6177,1.6717,1.6666,0.0,0.0,0.0,0.0,1.2774,1.2785,1.2744,1.2767,1.2753,1.2702,1.2623,1.2627,0.0,0.0,0.8991,1.09,1.3742,1.6239,1.6668,1.6329,1.5043,1.3795,1.2877,1.2737,1.2906,1.2882,1.3016,1.4966,1.6759,0.0,0.0,0.0,0.0,0.0,0.0,0.0,0.0,0.0,1.7563,0.0,1.756,0.0,0.0,0.0,0.0,0.0,0.0,0.0,0.0,1.8224,1.8283,1.8347,1.853,1.8598,0.0,1.8856,1.7925,0.0,0.0,0.0,0.0,0.0,0.0,0.0,0.0,1.401,1.3564,1.307,1.2385,1.1451,1.0526,0.955,0.8491,0.6425,0.4978,0.4279,0.2129,0.0898,0.0,0.0,0.0,0.0,0.0,0.0,0.0,0.0,0.0,0.0,0.0,0.0,0.0,0.0,0.0,0.0,0.0,0.0,0.0,0.0,0.0,0.0,0.0,1.2811,0.0,0.0,0.0,0.0,0.0,0.0,0.0,0.0,0.0,1.2965,1.3094,1.3301,1.3285,1.3287,1.3282,1.329,0.0,0.0,0.0,0.0,0.0,0.0,0.0,0.9868,0.9852,1.0625,1.0592,0.869,1.0711,1.2938,1.387,0.0,0.0,1.2181,1.2302,1.2357,1.1431,1.1984,1.264,1.2633,1.3383,1.4348,0.0,0.0,0.0,0.0,0.0,0.0,0.0,0.0,0.0,1.5785,1.5826,0.0,0.0,0.0,0.0,0.0,0.0,0.0,0.0,0.0,0.0,0.0,1.6775,1.6941,0.0,0.0,0.0,0.0,0.0,0.0,0.0,0.0,0.0,0.0,0.0,0.0,1.2345,1.1897,1.1124,1.045,0.9772,0.8635,0.7819,0.7291,0.5783,0.4724,0.4278,0.0,0.0,0.0,0.0,0.0,0.0,0.0,0.0,0.0,0.0,0.0,0.0,0.0,0.0,0.0,0.0,0.0,0.0,0.0,0.0,0.0,0.0,0.0,0.0,0.0,1.0148,0.0,0.0,0.0,0.0,0.0,0.0,0.0,0.0,0.0,0.0,0.0,1.015,1.0176,1.0144,1.0164,1.0157,1.062,1.0271,0.0,0.0,0.0,0.0,0.0,0.0,0.0,0.0,0.0,0.0,0.0,0.0,0.0,0.0,1.1213,1.122,1.1187,1.091,0.9967,0.0,0.0,0.0,0.0,0.0,0.0,0.0,0.0,0.0,0.0,0.0,0.0,0.0,0.0,0.0,0.0,0.0,0.0,1.2878,0.0,0.0,0.0,0.0,0.0,0.0,0.0,0.0,0.0,0.0,0.0,0.0,0.0,0.0,0.0,0.0,0.0,0.0,0.0,0.0,0.0,0.0,1.0424,1.0424,0.9668,0.8956,0.8336,0.7683,0.6683,0.5311,0.4628,0.4225,0.4129,0.0,0.0,0.0,0.0,0.0,0.0,0.0,0.0,0.0,0.0,0.0,0.0,0.0,0.0,0.0,0.0,0.0,0.0,0.0,0.0,0.0,0.0,0.0,0.0,0.0,0.0,0.7654,0.986,1.1322,0.0,0.0,0.0,0.0,0.0,0.0,0.0,0.0,0.0,0.0,0.761,0.7617,0.7655,0.7564,0.7528,0.7483,0.7884,0.7341,0.4736,0.4348,0.426,0.0,0.0,0.0,0.0,0.0,0.0,0.0,0.0,0.0,0.0,0.0,0.0,0.0,0.0,0.0,0.0,0.0,0.0,0.0,0.0,0.0,0.0,0.0,0.0,0.0,0.0,0.0,0.0,0.0,0.0,0.0,0.0,0.0,0.0,0.0,0.0,0.0,0.0,0.0,0.0,0.0,0.0,0.0,0.0,0.0,0.0,0.0,0.0,0.0,0.0,0.0,0.0,0.0,0.0,0.8252,0.8298,0.7548,0.7026,0.6846,0.6122,0.5366,0.4593,0.4293,0.325,0.0,0.0,0.0,0.0,0.0,0.0,0.0,0.0,0.0,0.0,0.0,0.0,0.0,0.0,0.0,0.0,0.0,0.0,0.0,0.0,0.0,0.0,0.0,0.0,0.0,0.0,0.0,0.0,0.8129,0.8747,0.8749,0.0,0.0,0.0,0.0,0.0,0.0,0.0,0.0,0.0,0.0,0.7601,0.7572,0.608,0.4989,0.5002,0.5139,0.4943,0.4148,0.3996,0.4086,0.4244,0.0,0.0,0.0,0.0,0.0,0.0,0.0,0.0,0.0,0.0,0.0,0.0,0.0,0.0,0.0,0.0,0.0,0.0,0.0,0.0,0.0,0.0,0.0,0.0,0.0,0.0,0.0,0.0,0.0,0.0,0.0,0.0,0.0,0.0,0.0,0.0,0.0,0.0,0.0,0.0,0.0,0.0,0.0,0.0,0.0,0.0,0.0,0.0,0.0,0.0,0.0,0.0,0.0,0.6811,0.6924,0.6162,0.5692,0.5462,0.4986,0.4587,0.4211,0.3086,0.1742,0.0,0.0,0.0,0.0,0.0,0.0,0.0,0.0,0.0,0.0,0.0,0.0,0.0,0.0,0.0,0.0,0.0,0.0,0.0,0.0,0.0,0.0,0.0,0.0,0.0,0.0,0.0,0.0,0.5898,0.6404,0.7483,0.0,0.0,0.0,0.0,0.0,0.0,0.0,0.0,0.0,0.0,0.6158,0.6158,0.4856,0.0,0.0,0.3923,0.3555,0.254,0.2401,0.2472,0.2595,0.494,0.0,0.0,0.0,0.0,0.0,0.0,0.0,0.0,0.0,0.0,0.0,0.0,0.0,0.0,0.0,0.0,0.0,0.0,0.0,0.0,0.0,0.0,0.0,0.0,0.0,0.0,0.0,0.0,0.0,0.0,0.0,0.0,0.0,0.0,0.0,0.0,0.0,0.0,0.0,0.0,0.0,0.0,0.0,0.0,0.0,0.0,0.0,0.0,0.0,0.0,0.0,0.0,0.0,0.6044,0.5376,0.4798,0.4302,0.4171,0.4031,0.3772,0.1312,0.0,0.0,0.0,0.0,0.0,0.0,0.0,0.0,0.0,0.0,0.0,0.0,0.0,0.0,0.0,0.0,0.0,0.0,0.0,0.0,0.0,0.0,0.0,0.0,0.0,0.0,0.0,0.0,0.0,0.0,0.0,0.0,0.0,0.0,0.0,0.0,0.0,0.0,0.0,0.0,0.0,0.0,0.3912,0.3909,0.373,0.3612,0.0,0.0,0.2792,0.0405,0.0,0.0,0.0,0.0,0.0,0.0,0.0,0.0,0.0,0.0,0.0,0.0,0.0,0.0,0.0,0.0,0.0,0.0,0.0,0.0,0.0,0.0,0.0,0.0,0.0,0.0,0.0,0.0,0.0,0.0,0.0,0.0,0.0,0.0,0.0,0.0,0.0,0.0,0.0,0.0,0.0,0.0,0.0,0.0,0.0,0.0,0.0,0.0,0.0,0.0,0.0,0.0,0.0,0.0,0.0,0.0,0.0,0.4616,0.4521,0.4414,0.4238,0.3151,0.2044,0.1064,0.0365,0.0,0.0,0.0,0.0,0.0,0.0,0.0,0.0,0.0,0.0,0.0,0.0,0.0,0.0,0.0,0.0,0.0,0.0,0.0,0.0,0.0,0.0,0.0,0.0,0.0,0.0,0.0,0.3499,0.0,0.0,0.0,0.0,0.0,0.0,0.0,0.0,0.0,0.0,0.0,0.0,0.0,0.0,0.3915,0.3915,0.222,0.0975,0.0,0.0,0.0735,0.0,0.0,0.0,0.0,0.0,0.0,0.0,0.0,0.0,0.0,0.0,0.0,0.0,0.0,0.0,0.0,0.0,0.0,0.0,0.0,0.0,0.0,0.0,0.0,0.0,0.0,0.0,0.0,0.0,0.0,0.0,0.0,0.0,0.0,0.0,0.0,0.0,0.0,0.0,0.0,0.0,0.0,0.0,0.0,0.0,0.0,0.0,0.0,0.0,0.0,0.0,0.0,0.0,0.0,0.0,0.0,0.0,0.3169,0.3243,0.3323,0.3077,0.2438,0.1571,0.0735,0.0,0.0,0.0,0.0,0.0,0.0,0.0,0.0,0.0,0.0,0.0,0.0,0.0,0.0,0.0,0.0,0.0,0.0,0.0,0.0,0.0,0.0,0.0,0.0,0.0,0.0,0.0,0.0,0.0,0.0,0.0,0.0,0.0,0.0,0.0,0.0,0.0,0.0,0.0,0.0,0.0,0.0,0.0,0.0,0.0,0.2207,0.0975,0.0,0.0,0.0,0.0,0.0,0.0,0.0,0.0,0.0,0.0,0.0,0.0,0.0,0.0,0.0,0.0,0.0,0.0,0.0,0.0,0.0,0.0,0.0,0.0,0.0,0.0,0.0,0.0,0.0,0.0,0.0,0.0,0.0,0.0,0.0,0.0,0.0,0.0,0.0,0.0,0.0,0.0,0.0,0.0,0.0,0.0,0.0,0.0,0.0,0.0,0.0,0.0,0.0,0.0,0.0,0.0,0.0,0.0,0.0,0.0,0.0,0.0,0.1882,0.1914,0.1271,0.0,0.0,0.0,0.0,0.0,0.0,0.0,0.0,0.0,0.0,0.0,0.0,0.0,0.0,0.0,0.0,0.0,0.0,0.0,0.0,0.0,0.0,0.0,0.0,0.0,0.0,0.0,0.0,0.0,0.0,0.0,0.0,0.0,0.0,0.0,0.0,0.0,0.0,0.0,0.0,0.0,0.0,0.0,0.0,0.0,0.0,0.0,0.0,0.0,0.0,0.0,0.0,0.0,0.0,0.0,0.0,0.0,0.0,0.0,0.0,0.0,0.0,0.0,0.0,0.0,0.0,0.0,0.0,0.0,0.0,0.0,0.0,0.0,0.0,0.0,0.0,0.0,0.0,0.0,0.0,0.0,0.0,0.0,0.0,0.0,0.0,0.0,0.0,0.0,0.0,0.0,0.0,0.0,0.0,0.0,0.0,0.0,0.0,0.0,0.0,0.0,0.0,0.0,0.0,0.0,0.0,0.0,0.0,0.0,0.0,0.0,0.0,0.0422,0.0422,0.0301,0.0,0.0,0.0,0.0,0.0,0.0,0.0,0.0,0.0,0.0,0.0,0.0,0.0,0.0,0.0,0.0,0.0,0.0,0.0,0.0,0.0,0.0,0.0,0.0,0.0,0.0,0.0,0.0,0.0,0.0,0.0,0.0,0.0,0.0,0.0,0.0,0.0,0.0,0.0,0.0,0.0,0.0,0.0,0.0,0.0,0.0,0.0,0.0,0.0,0.0,0.0,0.0,0.0,0.0,0.0,0.0,0.0,0.0,0.0,0.0,0.0,0.0,0.0,0.0,0.0,0.0,0.0,0.0,0.0,0.0,0.0,0.0,0.0,0.0,0.0,0.0,0.0,0.0,0.0,0.0,0.0,0.0,0.0,0.0,0.0,0.0,0.0,0.0,0.0,0.0,0.0,0.0,0.0,0.0,0.0,0.0,0.0,0.0,0.0,0.0,0.0,0.0,0.0,0.0,0.0,0.0,0.0,0.0,0.0,0.0,0.0,0.0,0.0,0.0,0.0,0.0,0.0,0.0,0.0,0.0,0.0,0.0,0.0,0.0,0.0,0.0,0.0,0.0,0.0,0.0,0.0,0.0,0.0,0.0,0.0,0.0,0.0,0.0,0.0,0.0,0.0,0.0,0.0,0.0,0.0,0.0,0.0,0.0,0.0,0.0,0.0,0.0,0.0,0.0,0.0,0.0,0.0,0.0,0.0,0.0,0.0,0.0,0.0,0.0,0.0,0.0,0.0,0.0,0.0,0.0,0.0,0.0,0.0,0.0,0.0,0.0,0.0,0.0,0.0,0.0,0.0,0.0,0.0,0.0,0.0,0.0,0.0,0.0,0.0,0.0,0.0,0.0,0.0,0.0,0.0,0.0,0.0,0.0,0.0,0.0,0.0,0.0,0.0,0.0,0.0,0.0,0.0,0.0,0.0,0.0,0.0,0.0,0.0,0.0,0.0,0.0,0.0,0.0,0.0,0.0,0.0,0.0,0.0,0.0,0.0,0.0,0.0,0.0,0.0,0.0,0.0,0.0,0.0,0.0,0.0,0.0,0.0,0.0,0.0,0.0,0.0,0.0,0.0,0.0,0.0,0.0,0.0,0.0,0.0,0.0,0.0,0.0,0.0,0.0,0.0,0.0,0.0,0.0,0.0,0.0,0.0,0.0,0.0,0.0,0.0,0.0,0.0,0.0,0.0,0.0,0.0,0.0,0.0,0.0,0.0,0.0,0.0,0.0,0.0,0.0,0.0,0.0,0.0,0.0,0.0,0.0,0.0,0.0,0.0,0.0,0.0,0.0,0.0,0.0,0.0,0.0,0.0,0.0,0.0,0.0,0.0,0.0,0.0,0.0,0.0,0.0,0.0,0.0,0.0,0.0,0.0,0.0,0.0,0.0,0.0,0.0,0.0,0.0,0.0,0.0,0.0,0.0,0.0,0.0,0.0,0.0,0.0,0.0,0.0,0.0,0.0,0.0,0.0,0.0,0.0,0.0,0.0,0.0,0.0,0.0,0.0,0.0,0.0,0.0,0.0,0.0,0.0,0.0,0.0,0.0,0.0,0.0,0.0,0.0,0.0,0.0,0.0,0.0,0.0,0.0,0.0,0.0,0.0,0.0,0.0,0.0,0.0,0.0,0.0,0.0,0.0,0.0,0.0,0.0,0.0,0.0,0.0,0.0,0.0,0.0,0.0,0.0,0.0,0.0,0.0,0.0,0.0,0.0,0.0,0.0,0.0,0.0,0.0,0.0,0.0,0.0,0.0,0.0,0.0,0.0,0.0,0.0,0.0,0.0,0.0,0.0,0.0,0.0,0.0,0.0,0.0,0.0,0.0,0.0,0.0,0.0,0.0,0.0,0.0,0.0,0.0,0.0,0.0,0.0,0.0,0.0,0.0,0.0,0.0,0.0,0.0,0.0,0.0,0.0,0.0,0.0,0.0,0.0,0.0,0.0,0.0,0.0,0.0,0.0,0.0,0.0,0.0,0.0,0.0,0.0,0.0,0.0,0.0,0.0,0.0,0.0,0.0,0.0,0.0,0.0,0.0,0.0,0.0,0.0,0.0,0.0,0.0,0.0,0.0,0.0,0.0,0.0,0.0,0.0,0.0,0.0,0.0,0.0,0.0,0.0,0.0,0.0,0.0,0.0,0.0,0.0,0.0,0.0,0.0,0.0,0.0,0.0,0.0,0.0,0.0,0.0,0.0,0.0,0.0,0.0,0.0,0.0,0.0,0.0,0.0,0.0,0.0,0.0,0.0,0.0,0.0,0.0,0.0,0.0,0.0,0.0,0.0,0.0,0.0,0.0,0.0,0.0,0.0,0.0,0.0,0.0,0.0,0.0,0.0,0.0,0.0,0.0,0.0,0.0,0.0,0.0,0.0,0.0,0.0,0.0,0.0,0.0,0.0,0.0,0.0,0.0,0.0,0.0,0.0,0.0,0.0,0.0,0.0,0.0,0.0,0.0,0.0,0.0,0.0,0.0,0.0,0.0,0.0,0.0,0.0,0.0,0.0,0.0,0.0,0.0,0.0,0.0,0.0,0.0,0.0,0.0,0.0,0.0,0.0,0.0,0.0,0.0,0.0,0.0,0.0,0.0,0.0,0.0,0.0,0.0,0.0,0.0,0.0,0.0,0.0,0.0,0.0,0.0,0.0,0.0,0.0,0.0,0.0,0.0,0.0,0.0,0.0,0.0,0.0,0.0,0.0,0.0,0.0,0.0,0.0,0.0,0.0,0.0,0.0,0.0,0.0,0.0,0.0,0.0,0.0,0.0,0.0,0.0,0.0,0.0,0.0,0.0,0.0,0.0,0.0,0.0,0.0,0.0,0.0,0.0,0.0,0.0,0.0,0.0,0.0,0.0,0.0,0.0,0.0,0.0,0.0,0.0,0.0,0.0,0.0,0.0,0.0,0.0,0.0,0.0,0.0,0.0,0.0,0.0,0.0,0.0,0.0,0.0,0.0,0.0,0.0,0.0,0.0,0.0,0.0,0.0,0.0,0.0,0.0,0.0,0.0,0.0,0.0,0.0,0.0,0.0,0.0,0.0,0.0,0.0,0.0,0.0,0.0,0.0,0.0,0.0,0.0,0.0,0.0,0.0,0.0,0.0,0.0,0.0,0.0,0.0,0.0,0.0,0.0,0.0,0.0,0.0,0.0,0.0,0.0,0.0,0.0,0.0,0.0,0.0,0.0,0.0,0.0,0.0,0.0,0.0,0.0,0.0,0.0,0.0,0.0,0.0,0.0,0.0,0.0,0.0,0.0,0.0,0.0,0.0,0.0,0.0,0.0,0.0,0.0,0.0,0.0,0.0,0.0,0.0,0.0,0.0,0.0,0.0,0.0,0.0,0.0,0.0,0.0,0.0,0.0,0.0,0.0,0.0,0.0,0.0,0.0,0.0,0.0,0.0,0.0,0.0,0.0,0.0,0.0,0.0,0.0,0.0,0.0,0.0,0.0,0.0,0.0,0.0,0.0,0.0,0.0,0.0,0.0,0.0,0.0,0.0,0.0,0.0,0.0,0.0,0.0,0.0,0.0,0.0,0.0,0.0,0.0,0.0,0.0,0.0,0.0,0.0,0.0,0.0,0.0,0.0,0.0,0.0,0.0,0.0,0.0,0.0,0.0,0.0,0.0,0.0,0.0,0.0,0.0,0.0,0.0,0.0,0.0,0.0,0.0,0.0,0.0,0.0,0.0,0.0,0.0,0.0,0.0,0.0,0.0,0.0,0.0,0.0,0.0,0.0,0.0,0.0,0.0,0.0,0.0,0.0,0.0,0.0,0.0,0.0,0.0,0.0,0.0,0.0,0.0,0.0,0.0,0.0,0.0,0.0,0.0,0.0,0.0,0.0,0.0,0.0,0.0,0.0,0.0,0.0,0.0,0.0,0.0,0.0,0.0,0.0,0.0,0.0,0.0,0.0,0.0,0.0,0.0,0.0,0.0,0.0,0.0,0.0,0.0,0.0,0.0,0.0,0.0,0.0,0.0,0.0,0.0,0.0,0.0,0.0,0.0,0.0,0.0,0.0,0.0,0.0,0.0,0.0,0.0,0.0,0.0,0.0,0.0,0.0,0.0,0.0,0.0,0.0,0.0,0.0,0.0,0.0,0.0,0.0,0.0,0.0,0.0,0.0,0.0,0.0,0.0,0.0,0.0,0.0,0.0,0.0,0.0,0.0,0.0,0.0,0.0,0.0,0.0,0.0,0.0,0.0,0.0,0.0,0.0,0.0,0.0,0.0,0.0,0.0,0.0,0.0,0.0,0.0,0.0,0.0,0.0,0.0,0.0,0.0,0.0,0.0,0.0,0.0,0.0,0.0,0.0,0.0,0.0,0.0,0.0,0.0,0.0,0.0,0.0,0.0,0.0,0.0,0.0,0.0,0.0,0.0,0.0,0.0,0.0,0.0,0.0,0.0,0.0,0.0,0.0,0.0,0.0,0.0,0.0,0.0,0.0,0.0,0.0,0.0,0.0,0.0,0.0,0.0,0.0,0.0,0.0,0.0,0.0,0.0,0.0,0.0,0.0,0.0,0.0,0.0,0.0,0.0,0.0,0.0,0.0,0.0,0.0,0.0,0.0,0.0,0.0,0.0,0.0,0.0,0.0,0.0,0.0,0.0,0.0,0.0,0.0,0.0,0.0,0.0,0.0,0.0,0.0,0.0,0.0,0.0,0.0,0.0,0.0,0.0,0.0,0.0,0.0,0.0,0.0,0.0,0.0,0.0,0.0,0.0,0.0,0.0,0.0,0.0,0.0,0.0,0.0,0.0,0.0,0.0,0.0,0.0,0.0,0.0,0.0,0.0,0.0,0.0,0.0,0.0,0.0,0.0,0.0,0.0,0.0,0.0,0.0,0.0,0.0,0.0,0.0,0.0,0.0,0.0,0.0,0.0,0.0,0.0,0.0,0.0,0.0,0.0,0.0,0.0,0.0,0.0,0.0,0.0,0.0,0.0,0.0,0.0,0.0,0.0,0.0,0.0,0.0,0.0,0.0,0.0,0.0,0.0,0.0,0.0,0.0,0.0,0.0,0.0,0.0,0.0,0.0,0.0,0.0,0.0,0.0,0.0,0.0,0.0,0.0,0.0,0.0,0.0,0.0,0.0,0.0,0.0,0.0,0.0,0.0,0.0,0.0,0.0,0.0,0.0,0.0,0.0,0.0,0.0,0.0,0.0,0.0,0.0,0.0,0.0,0.0,0.0,0.0,0.0,0.0,0.0,0.0,0.0,0.0,0.0,0.0,0.0,0.0,0.0,0.0,0.0,0.0,0.0,0.0,0.0,0.0,0.0,0.0,0.0,0.0,0.0,0.0,0.0,0.0,0.0,0.0,0.0,0.0,0.0,0.0,0.0,0.0,0.0,0.0,0.0,0.0,0.0,0.0,0.0,0.0,0.0,0.0,0.0,0.0,0.0,0.0,0.0,0.0,0.0,0.0,0.0,0.0,0.0,0.0,0.0,0.0,0.0,0.0,0.0,0.0,0.0,0.0,0.0,0.0,0.0,0.0,0.0,0.0,0.0,0.0,0.0,0.0,0.0,0.0,0.0,0.0,0.0,0.0,0.0,0.0,0.0,0.0,0.0,0.0,0.0,0.0,0.0,0.0,0.0,0.0,0.0,0.0,0.0,0.0,0.0,0.0,0.0,0.0,0.0,0.0,0.0,0.0,0.0,0.0,0.0,0.0,0.0,0.0,0.0,0.0,0.0,0.0,0.0,0.0,0.0,0.0,0.0,0.0,0.0,0.0,0.0,0.0,0.0,0.0,0.0,0.0,0.0,0.0,0.0,0.0,0.0,0.0,0.0,0.0,0.0,0.0,0.0,0.0,0.0,0.0,0.0,0.0,0.0,0.0,0.0,0.0,0.0,0.0,0.0,0.0,0.0,0.0,0.0,0.0,0.0,0.0,0.0,0.0,0.0,0.0,0.0,0.0,0.0,0.0,0.0,0.0,0.0,0.0,0.0,0.0,0.0,0.0,0.0,0.0,0.0,0.0,0.0,0.0,0.0,0.0,0.0,0.0,0.0,0.0,0.0,0.0,0.0,0.0,0.0,0.0,0.0,0.0,0.0,0.0,0.0,0.0,0.0,0.0,0.0,0.0,0.0,0.0,0.0,0.0,0.0,0.0,0.0,0.0,0.0,0.0,0.0,0.0,0.0,0.0,0.0,0.0,0.0,0.0,0.0,0.0,0.0,0.0,0.0,0.0,0.0,0.0,0.0,0.0,0.0,0.0,0.0,0.0,0.0,0.0,0.0,0.0,0.0,0.0,0.0,0.0,0.0,0.0,0.0,0.0,0.0,0.0,0.0,0.0,0.0,0.0,0.0,0.0,0.0,0.0,0.0,0.0,0.0,0.0,0.0,0.0,0.0,0.0,0.0,0.0,0.0,0.0,0.0,0.0,0.0,0.0,0.0,0.0,0.0,0.0,0.0,0.0,0.0,0.0,0.0,0.0,0.0,0.0,0.0,0.0,0.0,0.0,0.0,0.0,0.0,0.0,0.0,0.0,0.0,0.0,0.0,0.0,0.0,0.0,0.0,0.0,0.0,0.0,0.0,0.0,0.0,0.0,0.0,0.0,0.0,0.0,0.0,0.0,0.0,0.0,0.0,0.0,0.0,0.0,0.0,0.0,0.0,0.0,0.0,0.0,0.0,0.0,0.0,0.0,0.0,0.0,0.0,0.0,0.0,0.0,0.0,0.0,0.0,0.0,0.0,0.0,0.0,0.0,0.0,0.0,0.0,0.0,0.0,0.0,0.0,0.0,0.0,0.0,0.0,0.0,0.0,0.0,0.0,0.0,0.0,0.0,0.0,0.0,0.0,0.0,0.0,0.0,0.0,0.0,0.0,0.0,0.0,0.0,0.0,0.0,0.0,0.0,0.0,0.0,0.0,0.0,0.0,0.0,0.0,0.0,0.0,0.0,0.0,0.0,0.0,0.0,0.0,0.0,0.0,0.0,0.0,0.0,0.0,0.0,0.0,0.0,0.0,0.0,0.0,0.0,0.0,0.0,0.0,0.0,0.0,0.0,0.0,0.0,0.0,0.0,0.0,0.0,0.0,0.0,0.0,0.0,0.0,0.0,0.0,0.0,0.0,0.0,0.0,0.0,0.0,0.0,0.0,0.0,0.0,0.0,0.0,0.0,0.0,0.0,0.0,0.0,0.0,0.0,0.0,0.0,0.0,0.0,0.0,0.0,0.0,0.0,0.0,0.0,0.0,0.0,0.0,0.0,0.0,0.0,0.0,0.0,0.0,0.0,0.0,0.0,0.0,0.0,0.0,0.0,0.0,0.0,0.0,0.0,0.0,0.0,0.0,0.0,0.0,0.0,0.0,0.0,0.0,0.0,0.0,0.0,0.0,0.0,0.0,0.0,0.0,0.0,0.0,0.0,0.0,0.0,0.0,0.0,0.0,0.0,0.0,0.0,0.0,0.0,0.0,0.0,0.0,0.0,0.0,0.0,0.0,0.0,0.0,0.0,0.0,0.0,0.0,0.0,0.0,0.0,0.0,0.0,0.0,0.0,0.0,0.0,0.0,0.0,0.0,0.0,0.0,0.0,0.0,0.0,0.0,0.0,0.0,0.0,0.0,0.0,0.0,0.0,0.0,0.0,0.0,0.0,0.0,0.0,0.0,0.0,0.0,0.0,0.0,0.0,0.0,0.0,0.0,0.0,0.0,0.0,0.0,0.0,0.0,0.0,0.0,0.0,0.0,0.0,0.0,0.0,0.0,0.0,0.0,0.0,0.0,0.0,0.0,0.0,0.0,0.0,0.0,0.0,0.0,0.0,0.0,0.0,0.0,0.0,0.0,0.0,0.0,0.0,0.0,0.0,0.0,0.0,0.0,0.0,0.0,0.0,0.0,0.0,0.0,0.0,0.0,0.0,0.0,0.0,0.0,0.0,0.0,0.0,0.0,0.0,0.0,0.0,0.0,0.0,0.0,0.0,0.0,0.0,0.0,0.0,0.0,0.0,0.0,0.0,0.0,0.0,0.0,0.0,0.0,0.0,0.0,0.0,0.0,0.0,0.0,0.0,0.0,0.0,0.0,0.0,0.0,0.0,0.0,0.0,0.0,0.0,0.0,0.0,0.0,0.0,0.0,0.0,0.0,0.0,0.0,0.0,0.0,0.0,0.0,0.0,0.0,0.0,0.0,0.0,0.0,0.0,0.0,0.0,0.0,0.0,0.0,0.0,0.0,0.0,0.0,0.0,0.0,0.0,0.0,0.0,0.0,0.0,0.0,0.0,0.0,0.0,0.0,0.0,0.0,0.0,0.0,0.0,0.0,0.0,0.0,0.0,0.0,0.0,0.0,0.0,0.0,0.0,0.0,0.0,0.0,0.0,0.0,0.0,0.0,0.0,0.0,0.0,0.0,0.0,0.0,0.0,0.0,0.0,0.0,0.0,0.0,0.0,0.0,0.0,0.0,0.0,0.0,0.0,0.0,0.0,0.0,0.0,0.0,0.0,0.0,0.0,0.0,0.0,0.0,0.0,0.0,0.0,0.0,0.0,0.0,0.0,0.0,0.0,0.0,0.0,0.0,0.0,0.0,0.0,0.0,0.0,0.0,0.0,0.0,0.0,0.0,0.0,0.0,0.0,0.0,0.0,0.0,0.0,0.0,0.0,0.0,0.0,0.0,0.0,0.0,0.0,0.0,0.0,0.0,0.0,0.0,0.0,0.0,0.0,0.0,0.0,0.0,0.0,0.0,0.0,0.0,0.0,0.0,0.0,0.0,0.0,0.0,0.0,0.0,0.0,0.0,0.0,0.0,0.0,0.0,0.0,0.0,0.0,0.0,0.0,0.0,0.0,0.0,0.0,0.0,0.0,0.0,0.0,0.0,0.0,0.0,0.0,0.0,0.0,0.0,0.0,0.0,0.0,0.0,0.0,0.0,0.0,0.0,0.0,0.0,0.0,0.0,0.0,0.0,0.0,0.0,0.0,0.0,0.0,0.0,0.0,0.0,0.0,0.0,0.0,0.0,0.0,0.0,0.0,0.0,0.0,0.0,0.0,0.0,0.0,0.0,0.0,0.0,0.0,0.0,0.0,0.0,0.0,0.0,0.0,0.0,0.0,0.0,0.0,0.0,0.0,0.0,0.0,0.0,0.0,0.0,0.0,0.0,0.0,0.0,0.0,0.0,0.0,0.0,0.0,0.0,0.0,0.0,0.0,0.0,0.0,0.0,0.0,0.0,0.0,0.0,0.0,0.0,0.0,0.0,0.0,0.0,0.0,0.0,0.0,0.0,0.0,0.0,0.0,0.0,0.0,0.0,0.0,0.0,0.0,0.0,0.0,0.0,0.0,0.0,0.0,0.0,0.0,0.0,0.0,0.0,0.0,0.0,0.0,0.0,0.0,0.0,0.0,0.0,0.0,0.0,0.0,0.0,0.0,0.0,0.0,0.0,0.0,0.0,0.0,0.0,0.0,0.0,0.0,0.0,0.0,0.0,0.0,0.0,0.0,0.0,0.0,0.0,0.0,0.0,0.0,0.0,0.0,0.0,0.0,0.0,0.0,0.0,0.0,0.0,0.0,0.0,0.0,0.0,0.0,0.0,0.0,0.0,0.0,0.0,0.0,0.0,0.0,0.0,0.0,0.0,0.0,0.0,0.0,0.0,0.0,0.0,0.0,0.0,0.0,0.0,0.0,0.0,0.0,0.0,0.0,0.0,0.0,0.0,0.0,0.0,0.0,0.0,0.0,0.0,0.0,0.0,0.0,0.0,0.0,0.0,0.0,0.0,0.0,0.0,0.0,0.0,0.0,0.0,0.0,0.0,0.0,0.0,0.0,0.0,0.0,0.0,0.0,0.0,0.0,0.0,0.0,0.0,0.0,0.0,0.0,0.0,0.0,0.0,0.0,0.0,0.0,0.0,0.0,0.0,0.0,0.0,0.0,0.0,0.0,0.0,0.0,0.0,0.0,0.0,0.0,0.0,0.0,0.0,0.0,0.0,0.0,0.0,0.0,0.0,0.0,0.0,0.0,0.0,0.0,0.0,0.0,0.0,0.0,0.0,0.0,0.0,0.0,0.0,0.0,0.0,0.0,0.0,0.0,0.0,0.0,0.0,0.0,0.0,0.0,0.0,0.0,0.0,0.0,0.0,0.0,0.0,0.0,0.0,0.0,0.0,0.0,0.0,0.0,0.0,0.0,0.0,0.0,0.0,0.0,0.0,0.0,0.0,0.0,0.0,0.0,0.0,0.0,0.0,0.0,0.0,0.0,0.0,0.0,0.0,0.0,0.0,0.0,0.0,0.0,0.0,0.0,0.0,0.0,0.0,0.0,0.0,0.0,0.0,0.0,0.0,0.0,0.0,0.0,0.0,0.0,0.0,0.0,0.0,0.0,0.0,0.0,0.0,0.0,0.0,0.0,0.0,0.0,0.0,0.0,0.0,0.0,0.0,0.0,0.0,0.0,0.0,0.0,0.0,0.0,0.0,0.0,0.0,0.0,0.0,0.0,0.0,0.0,0.0,0.0,0.0,0.0,0.0,0.0,0.0,0.0,0.0,0.0,0.0,0.0,0.0,0.0,0.0,0.0,0.0,0.0,0.0,0.0,0.0,0.0,0.0,0.0,0.0,0.0,0.0,0.0,0.0,0.0,0.0,0.0,0.0,0.0,0.0,0.0,0.0,0.0,0.0,0.0,0.0,0.0,0.0,0.0,0.0,0.0,0.0,0.0,0.0,0.0,0.0,0.0,0.0,0.0,0.0,0.0,0.0,0.0,0.0,0.0,0.0,0.0,0.0,0.0,0.0,0.0,0.0,0.0,0.0,0.0,0.0,0.0,0.0,0.0,0.0,0.0,0.0,0.0,0.0,0.0,0.0,0.0,0.0,0.0,0.0,0.0,0.0,0.0,0.0,0.0,0.0,0.0,0.0,0.0,0.0,0.0,0.0,0.0,0.0,0.0,0.0,0.0,0.0,0.0,0.0,0.0,0.0,0.0,0.0,0.0,0.0,0.0,0.0,0.0,0.0,0.0,0.0,0.0,0.0,0.0,0.0,0.0,0.0,0.0,0.0,0.0,0.0,0.0,0.0,0.0,0.0,0.0,0.0,0.0,0.0,0.0,0.0,0.0,0.0,0.0,0.0,0.0,0.0,0.0,0.0,0.0,0.0,0.0,0.0,0.0,0.0,0.0,0.0,0.0,0.0,0.0,0.0,0.0,0.0,0.0,0.0,0.0,0.0,0.0,0.0,0.0,0.0,0.0,0.0,0.0,0.0,0.0,0.0,0.0,0.0,0.0,0.0,0.0,0.0,0.0,0.0,0.0,0.0,0.0,0.0,0.0,0.0,0.0,0.0,0.0,0.0,0.0,0.0,0.0,0.0,0.0,0.0,0.0,0.0,0.0,0.0,0.0,0.0,0.0,0.0,0.0,0.0,0.0,0.0,0.0,0.0,0.0,0.0,0.0,0.0,0.0,0.0,0.0,0.0,0.0,0.0,0.0,0.0,0.0,0.0,0.0,0.0,0.0,0.0,0.0,0.0,0.0,0.0,0.0,0.0,0.0,0.0,0.0,0.0,0.0,0.0,0.0,0.0,0.0,0.0,0.0,0.0,0.0,0.0,0.0,0.0,0.0,0.0,0.0,0.0,0.0,0.0,0.0,0.0,0.0,0.0,0.0,0.0,0.0,0.0,0.0,0.0,0.0,0.0,0.0,0.0,0.0,0.0,0.0,0.0,0.0,0.0,0.0,0.0,0.0,0.0,0.0,0.0,0.0,0.0,0.0,0.0,0.0,0.0,0.0,0.0,0.0,0.0,0.0,0.0,0.0,0.0,0.0,0.0,0.0,0.0,0.0,0.0,0.0,0.0,0.0,0.0,0.0,0.0,0.0,0.0,0.0,0.0,0.0,0.0,0.0,0.0,0.0,0.0,0.0,0.0,0.0,0.0,0.0,0.0,0.0,0.0,0.0,0.0,0.0,0.0,0.0,0.0,0.0,0.0,0.0,0.0,0.0,0.0,0.0,0.0,0.0,0.0,0.0,0.0,0.0,0.0,0.0,0.0,0.0,0.0,0.0,0.0,0.0,0.0,0.0,0.0,0.0,0.0,0.0,0.0,0.0,0.0,0.0,0.0,0.0,0.0,0.0,0.0,0.0,0.0,0.0,0.0,0.0,0.0,0.0,0.0,0.0,0.0,0.0,0.0,0.0,0.0,0.0,0.0,0.0,0.0,0.0,0.0,0.0,0.0,0.0,0.0,0.0,0.0,0.0,0.0,0.0,0.0,0.0,0.0,0.0,0.0,0.0,0.0,0.0,0.0,0.0,0.0,0.0,0.0,0.0,0.0,0.0,0.0,0.0,0.0,0.0,0.0,0.0,0.0,0.0,0.0,0.0,0.0,0.0,0.0,0.0,0.0,0.0,0.0,0.0,0.0,0.0,0.0,0.0,0.0,0.0,0.0,0.0,0.0,0.0,0.0,0.0,0.0,0.0,0.0,0.0,0.0,0.0,0.0,0.0,0.0,0.0,0.0,0.0,0.0,0.0,0.0,0.0,0.0,0.0,0.0,0.0,0.0,0.0,0.0,0.0,0.0,0.0,0.0,0.0,0.0,0.0,0.0,0.0,0.0,0.0,0.0,0.0,0.0,0.0,0.0,0.0,0.0,0.0,0.0,0.0,0.0,0.0,0.0,0.0,0.0,0.0,0.0,0.0,0.0,0.0,0.0,0.0,0.0,0.0,0.0,0.0,0.0,0.0,0.0,0.0,0.0,0.0,0.0,0.0,0.0,0.0,0.0,0.0,0.0,0.0,0.0,0.0,0.0,0.0,0.0,0.0,0.0,0.0,0.0,0.0,0.0,0.0,0.0,0.0,0.0,0.0,0.0,0.0,0.0,0.0,0.0,0.0,0.0,0.0,0.0,0.0,0.0,0.0,0.0,0.0,0.0,0.0,0.0,0.0,0.0,0.0,0.0,0.0,0.0,0.0,0.0,0.0,0.0,0.0,0.0,0.0,0.0,0.0,0.0,0.0,0.0,0.0,0.0,0.0,0.0,0.0,0.0,0.0,0.0,0.0,0.0,0.0,0.0,0.0,0.0,0.0,0.0,0.0,0.0,0.0,0.0,0.0,0.0,0.0,0.0,0.0,0.0,0.0,0.0,0.0,0.0,0.0,0.0,0.0,0.0,0.0,0.0,0.0,0.0,0.0,0.0,0.0,0.0,0.0,0.0,0.0,0.0,0.0,0.0,0.0,0.0,0.0,0.0,0.0,0.0,0.0,0.0,0.0,0.0,0.0,0.0,0.0,0.0,0.0,0.0,0.0,0.0,0.0,0.0,0.0,0.0,0.0,0.0,0.0,0.0,0.0,0.0,0.0,0.0,0.0,0.0,0.0,0.0,0.0,0.0,0.0,0.0,0.0,0.0,0.0,0.0,0.0,0.0,0.0,0.0,0.0,0.0,0.0,0.0,0.0,0.0,0.0,0.0,0.0,0.0,0.0,0.0,0.0,0.0,0.0,0.0,0.0,0.0,0.0,0.0,0.0,0.0,0.0,0.0,0.0,0.0,0.0,0.0,0.0,0.0,0.0,0.0,0.0,0.0,0.0,0.0,0.0,0.0,0.0,0.0,0.0,0.0,0.0,0.0,0.0,0.0,0.0,0.0,0.0,0.0,0.0,0.0,0.0,0.0,0.0,0.0,0.0,0.0,0.0,0.0,0.0,0.0,0.0,0.0,0.0,0.0,0.0,0.0,0.0,0.0,0.0,0.0,0.0,0.0,0.0,0.0,0.0,0.0,0.0,0.0,0.0,0.0,0.0,0.0,0.0,0.0,0.0,0.0,0.0,0.0,0.0,0.0,0.0,0.0,0.0,0.0,0.0,0.0,0.0,0.0,0.0,0.0,0.0,0.0,0.0,0.0,0.0,0.0,0.0,0.0,0.0,0.0,0.0,0.0,0.0,0.0,0.0,0.0,0.0,0.0,0.0,0.0,0.0,0.0,0.0,0.0,0.0,0.0,0.0,0.0,0.0,0.0,0.0,0.0,0.0,0.0,0.0,0.0,0.0,0.0,0.0,0.0,0.0,0.0,0.0,0.0,0.0,0.0,0.0,0.0,0.0,0.0,0.0,0.0,0.0,0.0,0.0,0.0,0.0,0.0,0.0,0.0,0.0,0.0,0.0,0.0,0.0,0.0,0.0,0.0,0.0,0.0,0.0,0.0,0.0,0.0,0.0,0.0,0.0,0.0,0.0,0.0,0.0,0.0,0.0,0.0,0.0,0.0,0.0,0.0,0.0,0.0,0.0,0.0,0.0,0.0,0.0,0.0,0.0,0.0,0.0,0.0,0.0,0.0,0.0,0.0,0.0,0.0,0.0,0.0,0.0,0.0,0.0,0.0,0.0,0.0,0.0,0.0,0.0,0.0,0.0,0.0,0.0,0.0,0.0,0.0,0.0,0.0,0.0,0.0,0.0,0.0,0.0,0.0,0.0,0.0,0.0,0.0,0.0,0.0,0.0,0.0,0.0,0.0,0.0,0.0,0.0,0.0,0.0,0.0,0.0,0.0,0.0,0.0,0.0,0.0,0.0,0.0,0.0,0.0,0.0,0.0,0.0,0.0,0.0,0.0,0.0,0.0,0.0,0.0,0.0,0.0,0.0,0.0,0.0,0.0,0.0,0.0,0.0,0.0,0.0,0.0,0.0,0.0,0.0,0.0,0.0,0.0,0.0,0.0,0.0,0.0,0.0,0.0,0.0,0.0,0.0,0.0,0.0,0.0,0.0,0.0,0.0,0.0,0.0,0.0,0.0,0.0,0.0,0.0,0.0,0.0,0.0,0.0,0.0,0.0,0.0,0.0,0.0,0.0,0.0,0.0,0.0,0.0,0.0,0.0,0.0,0.0,0.0,0.0,0.0,0.0,0.0,0.0,0.0,0.0,0.0,0.0,0.0,0.0,0.0,0.0,0.0,0.0,0.0,0.0,0.0,0.0,0.0,0.0,0.0,0.0,0.0,0.0,0.0,0.0,0.0,0.0,0.0,0.0,0.0,0.0,0.0,0.0,0.0,0.0,0.0,0.0,0.0,0.0,0.0,0.0,0.0,0.0,0.0,0.0,0.0,0.0]}]]]